[[{"header":{"parameterUnit":"m.s-1","parameterCategory":1,"la1":30.6,"la2":28.766,"lo1":-90.7593,"lo2":-88.6598,"dy":0.0162,"dx":0.0183,"nx":116,"ny":114,"refTime":"2023-04-29T12:00:00:Z","depth":0,"parameterNumber":2,"parameterNumberName":"U-component_of_WINDS"},"data":[0.0,0.0,0.0,0.0,0.0,0.0,0.0,0.0,0.0,0.0,0.0,0.0,0.0,0.0,0.0,0.0,0.0,0.0,0.0,0.0,0.0,0.0,0.0,0.0,0.0,0.0,0.0,0.0,0.0,0.0,0.0,0.0,0.0,0.0,0.0,0.0,0.0,0.0,0.0,0.0,0.0,0.0,0.0,0.0,0.0,0.0,0.0,0.0,0.0,0.0,0.0,0.0,0.0,0.0,0.0,0.0,0.0,0.0,0.0,0.0,0.0,0.0,0.0,0.0,0.0,0.0,0.0,0.0,0.0,0.0,0.0,0.0,0.0,0.0,0.0,0.0,0.0,0.0,0.0,0.0,0.0,0.0,0.0,0.0,0.0,0.0,0.0,0.0,0.0,0.0,0.0,0.0,0.0,0.0,0.0,0.0,0.0,0.0,0.0,0.0,0.0,0.0,0.0,0.0,0.0,0.0,0.0,0.0,0.0,0.0,0.0,0.0,0.0,0.0,0.0,0.0,0.0,0.0,0.0,0.0,0.0,0.0,0.0,0.0,0.0,0.0,0.0,0.0,0.0,0.0,0.0,0.0,0.0,0.0,0.0,0.0,0.0,0.0,0.0,0.0,0.0,0.0,0.0,0.0,0.0,0.0,0.0,0.0,0.0,0.0,0.0,0.0,0.0,0.0,0.0,0.0,0.0,0.0,0.0,0.0,0.0,0.0,0.0,0.0,0.0,0.0,0.0,0.0,0.0,0.0,0.0,0.0,0.0,0.0,0.0,0.0,0.0,0.0,0.0,0.0,0.0,0.0,0.0,0.0,0.0,0.0,0.0,0.0,0.0,0.0,0.0,0.0,0.0,0.0,0.0,0.0,0.0,0.0,0.0,0.0,0.0,0.0,0.0,0.0,0.0,0.0,0.0,0.0,0.0,0.0,0.0,0.0,0.0,0.0,0.0,0.0,0.0,0.0,0.0,0.0,0.0,0.0,0.0,0.0,0.0,0.0,0.0,0.0,0.0,0.0,0.0,0.0,0.0,0.0,0.0,0.0,0.0,0.0,0.0,0.0,0.0,0.0,0.0,0.0,0.0,0.0,0.0,0.0,0.0,0.0,0.0,0.0,0.0,0.0,0.0,0.0,0.0,0.0,0.0,0.0,0.0,0.0,0.0,0.0,0.0,0.0,0.0,0.0,0.0,0.0,0.0,0.0,0.0,0.0,0.0,0.0,0.0,0.0,0.0,0.0,0.0,0.0,0.0,0.0,0.0,0.0,0.0,0.0,0.0,0.0,0.0,0.0,0.0,0.0,0.0,0.0,0.0,0.0,0.0,0.0,0.0,0.0,0.0,0.0,0.0,0.0,0.0,0.0,0.0,0.0,0.0,0.0,0.0,0.0,0.0,0.0,0.0,0.0,0.0,0.0,0.0,0.0,0.0,0.0,0.0,0.0,0.0,0.0,0.0,0.0,0.0,0.0,0.0,0.0,0.0,0.0,0.0,0.0,0.0,0.0,0.0,0.0,0.0,0.0,0.0,0.0,0.0,0.0,0.0,0.0,0.0,0.0,0.0,0.0,0.0,0.0,0.0,0.0,0.0,0.0,0.0,0.0,0.0,0.0,0.0,0.0,0.0,0.0,0.0,0.0,0.0,0.0,0.0,0.0,0.0,0.0,0.0,0.0,0.0,0.0,0.0,0.0,0.0,0.0,0.0,0.0,0.0,0.0,0.0,0.0,0.0,0.0,0.0,0.0,0.0,0.0,0.0,0.0,0.0,0.0,0.0,0.0,0.0,0.0,0.0,0.0,0.0,0.0,0.0,0.0,0.0,0.0,0.0,0.0,0.0,0.0,0.0,0.0,0.0,0.0,0.0,0.0,0.0,0.0,0.0,0.0,0.0,0.0,0.0,0.0,0.0,0.0,0.0,0.0,0.0,0.0,0.0,0.0,0.0,0.0,0.0,0.0,0.0,0.0,0.0,0.0,0.0,0.0,0.0,0.0,0.0,0.0,0.0,0.0,0.0,0.0,0.0,0.0,0.0,0.0,0.0,0.0,0.0,0.0,0.0,0.0,0.0,0.0,0.0,0.0,0.0,0.0,0.0,0.0,0.0,0.0,0.0,0.0,0.0,0.0,0.0,0.0,0.0,0.0,0.0,0.0,0.0,0.0,0.0,0.0,0.0,0.0,0.0,0.0,0.0,0.0,0.0,0.0,0.0,0.0,0.0,0.0,0.0,0.0,0.0,0.0,0.0,0.0,0.0,0.0,0.0,0.0,0.0,0.0,0.0,0.0,0.0,0.0,0.0,0.0,0.0,0.0,0.0,0.0,0.0,0.0,0.0,0.0,0.0,0.0,0.0,0.0,0.0,0.0,0.0,0.0,0.0,0.0,0.0,0.0,0.0,0.0,0.0,0.0,0.0,0.0,0.0,0.0,0.0,0.0,0.0,0.0,0.0,0.0,0.0,0.0,0.0,0.0,0.0,0.0,0.0,0.0,0.0,0.0,0.0,0.0,0.0,0.0,0.0,0.0,0.0,0.0,0.0,0.0,0.0,0.0,0.0,0.0,0.0,0.0,0.0,0.0,0.0,0.0,0.0,0.0,0.0,0.0,0.0,0.0,0.0,0.0,0.0,0.0,0.0,0.0,0.0,0.0,0.0,0.0,0.0,0.0,0.0,0.0,0.0,0.0,0.0,0.0,0.0,0.0,0.0,0.0,0.0,0.0,0.0,0.0,0.0,0.0,0.0,0.0,0.0,0.0,0.0,0.0,0.0,0.0,0.0,0.0,0.0,0.0,0.0,0.0,0.0,0.0,0.0,0.0,0.0,0.0,0.0,0.0,0.0,0.0,0.0,0.0,0.0,0.0,0.0,0.0,0.0,0.0,0.0,0.0,0.0,0.0,0.0,0.0,0.0,0.0,0.0,0.0,0.0,0.0,0.0,0.0,0.0,0.0,0.0,0.0,0.0,0.0,0.0,0.0,0.0,0.0,0.0,0.0,0.0,0.0,0.0,0.0,0.0,0.0,0.0,0.0,0.0,0.0,0.0,0.0,0.0,0.0,0.0,0.0,0.0,0.0,0.0,0.0,0.0,0.0,0.0,0.0,0.0,0.0,0.0,0.0,0.0,0.0,0.0,0.0,0.0,0.0,0.0,0.0,0.0,0.0,0.0,0.0,0.0,0.0,0.0,0.0,0.0,0.0,0.0,0.0,0.0,0.0,0.0,0.0,0.0,0.0,0.0,0.0,0.0,0.0,0.0,0.0,0.0,0.0,0.0,0.0,0.0,0.0,0.0,0.0,0.0,0.0,0.0,0.0,0.0,0.0,0.0,0.0,0.0,0.0,0.0,0.0,0.0,0.0,0.0,0.0,0.0,0.0,0.0,0.0,0.0,0.0,0.0,0.0,0.0,0.0,0.0,0.0,0.0,0.0,0.0,0.0,0.0,0.0,0.0,0.0,0.0,0.0,0.0,0.0,0.0,0.0,0.0,0.0,0.0,0.0,0.0,0.0,0.0,0.0,0.0,0.0,0.0,0.0,0.0,0.0,0.0,0.0,0.0,0.0,0.0,0.0,0.0,0.0,0.0,0.0,0.0,0.0,0.0,0.0,0.0,0.0,0.0,0.0,0.0,0.0,0.0,0.0,0.0,0.0,0.0,0.0,0.0,0.0,0.0,0.0,0.0,0.0,0.0,0.0,0.0,0.0,0.0,0.0,0.0,0.0,0.0,0.0,0.0,0.0,0.0,0.0,0.0,0.0,0.0,0.0,0.0,0.0,0.0,0.0,0.0,0.0,0.0,0.0,0.0,0.0,0.0,0.0,0.0,0.0,0.0,0.0,0.0,0.0,0.0,0.0,0.0,0.0,0.0,0.0,0.0,0.0,0.0,0.0,0.0,0.0,0.0,0.0,0.0,0.0,0.0,0.0,0.0,0.0,0.0,0.0,0.0,0.0,0.0,0.0,0.0,0.0,0.0,0.0,0.0,0.0,0.0,0.0,0.0,0.0,0.0,0.0,0.0,0.0,0.0,0.0,0.0,0.0,0.0,0.0,0.0,0.0,0.0,0.0,0.0,0.0,0.0,0.0,0.0,0.0,0.0,0.0,0.0,0.0,0.0,0.0,0.0,0.0,0.0,0.0,0.0,0.0,0.0,0.0,0.0,0.0,0.0,0.0,0.0,0.0,0.0,0.0,0.0,0.0,0.0,0.0,0.0,0.0,0.0,0.0,0.0,0.0,0.0,0.0,0.0,0.0,0.0,0.0,0.0,0.0,0.0,0.0,0.0,0.0,0.0,0.0,0.0,0.0,0.0,0.0,0.0,0.0,0.0,0.0,0.0,0.0,0.0,0.0,0.0,0.0,0.0,0.0,0.0,0.0,0.0,0.0,0.0,0.0,0.0,0.0,0.0,0.0,0.0,0.0,0.0,0.0,0.0,0.0,0.0,0.0,0.0,0.0,0.0,0.0,0.0,0.0,0.0,0.0,0.0,0.0,0.0,0.0,0.0,0.0,0.0,0.0,0.0,0.0,0.0,0.0,0.0,0.0,0.0,0.0,0.0,0.0,0.0,0.0,0.0,0.0,0.0,0.0,0.0,0.0,0.0,0.0,0.0,0.0,0.0,0.0,0.0,0.0,0.0,0.0,0.0,0.0,0.0,0.0,0.0,0.0,0.0,0.0,0.0,0.0,0.0,0.0,0.0,0.0,0.0,0.0,0.0,0.0,0.0,0.0,0.0,0.0,0.0,0.0,0.0,0.0,0.0,0.0,0.0,0.0,0.0,0.0,0.0,0.0,0.0,0.0,0.0,0.0,0.0,0.0,0.0,0.0,0.0,0.0,0.0,0.0,0.0,0.0,0.0,0.0,0.0,0.0,0.0,0.0,0.0,0.0,0.0,0.0,0.0,0.0,0.0,0.0,0.0,0.0,0.0,0.0,0.0,0.0,0.0,0.0,0.0,0.0,0.0,0.0,0.0,0.0,0.0,0.0,0.0,0.0,0.0,0.0,0.0,0.0,0.0,0.0,0.0,0.0,0.0,0.0,0.0,0.0,0.0,0.0,0.0,0.0,0.0,0.0,0.0,0.0,0.0,0.0,0.0,0.0,0.0,0.0,0.0,0.0,0.0,0.0,0.0,0.0,0.0,0.0,0.0,0.0,0.0,0.0,0.0,0.0,0.0,0.0,0.0,0.0,0.0,0.0,0.0,0.0,0.0,0.0,0.0,0.0,0.0,0.0,0.0,0.0,0.0,0.0,0.0,0.0,0.0,0.0,0.0,0.0,0.0,0.0,0.0,0.0,0.0,0.0,0.0,0.0,0.0,0.0,0.0,0.0,0.0,0.0,0.0,0.0,0.0,0.0,0.0,0.0,0.0,0.0,0.0,0.0,0.0,0.0,0.0,0.0,0.0,0.0,0.0,0.0,0.0,0.0,0.0,0.0,0.0,0.0,0.0,0.0,0.0,0.0,0.0,0.0,0.0,0.0,0.0,0.0,0.0,0.0,0.0,0.0,0.0,0.0,0.0,0.0,0.0,0.0,0.0,0.0,0.0,0.0,0.0,0.0,0.0,0.0,0.0,0.0,0.0,0.0,0.0,0.0,0.0,0.0,0.0,0.0,0.0,0.0,0.0,0.0,0.0,0.0,0.0,0.0,0.0,0.0,0.0,0.0,0.0,0.0,0.0,0.0,0.0,0.0,0.0,0.0,0.0,0.0,0.0,0.0,0.0,0.0,0.0,0.0,0.0,0.0,0.0,0.0,0.0,0.0,0.0,0.0,0.0,0.0,0.0,0.0,0.0,0.0,0.0,0.0,0.0,0.0,0.0,0.0,0.0,0.0,0.0,0.0,0.0,0.0,0.0,0.0,0.0,0.0,0.0,0.0,0.0,0.0,0.0,0.0,0.0,0.0,0.0,0.0,0.0,0.0,0.0,0.0,0.0,0.0,0.0,0.0,0.0,0.0,0.0,0.0,0.0,0.0,0.0,0.0,0.0,0.0,0.0,0.0,0.0,0.0,0.0,0.0,0.0,0.0,0.0,0.0,0.0,0.0,0.0,0.0,0.0,0.0,0.0,0.0,0.0,0.0,0.0,0.0,0.0,0.0,0.0,0.0,2.4651,0.0,0.0,0.0,0.0,0.0,0.0,0.0,0.0,0.0,0.0,0.0,0.0,0.0,0.0,0.0,0.0,0.0,0.0,0.0,0.0,0.0,0.0,0.0,0.0,0.0,0.0,0.0,0.0,0.0,0.0,0.0,0.0,0.0,0.0,0.0,0.0,0.0,0.0,0.0,0.0,0.0,0.0,0.0,0.0,0.0,0.0,0.0,0.0,0.0,0.0,0.0,0.0,0.0,0.0,0.0,0.0,0.0,0.0,0.0,0.0,0.0,0.0,0.0,0.0,0.0,0.0,0.0,0.0,0.0,0.0,0.0,0.0,0.0,0.0,0.0,0.0,0.0,0.0,0.0,0.0,0.0,0.0,0.0,0.0,0.0,0.0,0.0,0.0,0.0,0.0,0.0,0.0,0.0,0.0,0.0,0.0,0.0,0.0,0.0,0.0,0.0,0.0,0.0,0.0,0.0,0.0,0.0,0.0,0.0,0.0,0.0,0.0,0.0,0.0,0.0,0.0,2.4639,0.0,0.0,0.0,0.0,0.0,0.0,0.0,0.0,0.0,0.0,0.0,0.0,0.0,0.0,0.0,0.0,0.0,0.0,0.0,0.0,0.0,0.0,0.0,0.0,0.0,0.0,0.0,0.0,0.0,0.0,0.0,0.0,0.0,0.0,0.0,0.0,0.0,0.0,0.0,0.0,0.0,0.0,0.0,0.0,0.0,0.0,0.0,0.0,0.0,0.0,0.0,0.0,0.0,0.0,0.0,0.0,0.0,0.0,0.0,0.0,0.0,0.0,0.0,0.0,0.0,0.0,0.0,0.0,0.0,0.0,0.0,0.0,0.0,0.0,0.0,0.0,0.0,0.0,0.0,0.0,0.0,0.0,0.0,0.0,0.0,0.0,0.0,0.0,0.0,0.0,0.0,0.0,0.0,0.0,0.0,0.0,0.0,0.0,0.0,0.0,0.0,0.0,0.0,0.0,0.0,0.0,0.0,0.0,2.6914,2.7172,2.7022,2.7452,2.7657,2.758,2.6013,2.5277,2.5205,2.5054,0.0,0.0,0.0,0.0,0.0,0.0,0.0,0.0,0.0,0.0,0.0,0.0,0.0,0.0,0.0,0.0,0.0,0.0,0.0,0.0,0.0,0.0,0.0,0.0,0.0,0.0,0.0,0.0,0.0,0.0,0.0,0.0,0.0,0.0,0.0,0.0,0.0,0.0,0.0,0.0,0.0,0.0,0.0,0.0,0.0,0.0,0.0,0.0,0.0,0.0,0.0,0.0,0.0,0.0,0.0,0.0,0.0,0.0,0.0,0.0,0.0,0.0,0.0,0.0,0.0,0.0,0.0,0.0,0.0,0.0,0.0,0.0,0.0,0.0,0.0,0.0,0.0,0.0,0.0,0.0,0.0,0.0,0.0,0.0,0.0,0.0,2.6971,2.6971,0.0,0.0,0.0,0.0,0.0,0.0,0.0,0.0,0.0,0.0,0.0,0.0,0.0,2.6277,2.6469,2.6742,2.6841,2.6803,2.7255,2.7447,2.7433,2.7719,2.7868,2.7849,2.7596,0.0,2.6884,2.6852,0.0,0.0,0.0,0.0,0.0,0.0,0.0,0.0,0.0,0.0,0.0,0.0,0.0,0.0,0.0,0.0,0.0,0.0,0.0,0.0,0.0,0.0,0.0,0.0,0.0,0.0,0.0,0.0,0.0,0.0,0.0,0.0,0.0,0.0,0.0,0.0,0.0,0.0,0.0,0.0,0.0,0.0,0.0,0.0,0.0,0.0,0.0,0.0,0.0,0.0,0.0,0.0,0.0,0.0,0.0,0.0,0.0,0.0,0.0,0.0,0.0,0.0,0.0,0.0,0.0,0.0,0.0,0.0,0.0,0.0,0.0,0.0,0.0,0.0,0.0,0.0,0.0,0.0,0.0,0.0,0.0,0.0,0.0,0.0,0.0,2.7746,2.7801,2.7957,2.7596,2.7349,0.0,0.0,0.0,0.0,0.0,0.0,0.0,0.0,0.0,2.7901,2.7785,2.7798,2.7948,2.8043,2.8307,2.8772,2.9082,2.9563,3.0151,3.0371,3.024,2.9813,2.9971,2.9436,2.8371,2.7535,2.6842,2.634,0.0,0.0,0.0,0.0,2.6385,2.6144,0.0,0.0,0.0,0.0,0.0,0.0,0.0,0.0,0.0,0.0,0.0,0.0,0.0,0.0,0.0,0.0,0.0,0.0,0.0,0.0,0.0,0.0,0.0,0.0,0.0,0.0,0.0,0.0,0.0,0.0,0.0,0.0,0.0,0.0,0.0,0.0,0.0,0.0,0.0,0.0,0.0,0.0,0.0,0.0,0.0,0.0,0.0,0.0,0.0,0.0,0.0,0.0,0.0,0.0,0.0,0.0,0.0,0.0,0.0,0.0,0.0,0.0,0.0,0.0,0.0,0.0,0.0,0.0,0.0,0.0,0.0,0.0,0.0,0.0,0.0,0.0,0.0,2.827,2.8435,2.8573,2.8485,2.8368,0.0,0.0,0.0,0.0,0.0,0.0,2.8485,2.8547,2.8822,2.9384,2.9333,2.942,2.9622,2.9622,2.9916,3.0503,3.0787,3.1325,3.2089,3.2312,3.2072,3.1518,3.1728,3.1113,2.9897,2.8441,2.7456,2.6853,2.7112,2.7049,2.6877,2.7112,2.7068,2.6877,0.0,0.0,0.0,0.0,0.0,0.0,0.0,0.0,0.0,0.0,0.0,0.0,0.0,0.0,0.0,0.0,0.0,0.0,0.0,0.0,0.0,0.0,0.0,0.0,0.0,0.0,0.0,0.0,0.0,0.0,0.0,0.0,0.0,0.0,0.0,0.0,0.0,0.0,0.0,0.0,0.0,0.0,0.0,0.0,0.0,0.0,0.0,0.0,0.0,0.0,0.0,0.0,0.0,0.0,0.0,0.0,0.0,0.0,0.0,0.0,0.0,0.0,0.0,0.0,0.0,0.0,0.0,0.0,0.0,0.0,0.0,0.0,0.0,0.0,0.0,0.0,0.0,0.0,0.0,2.7964,2.8192,0.0,0.0,0.0,0.0,2.7897,2.821,2.8485,2.8769,2.8897,2.9462,3.0488,3.0259,3.0503,3.1256,3.1274,3.1292,3.1329,3.1603,3.1756,3.1837,3.2031,3.209,3.2072,3.2072,3.1936,3.1573,3.0152,2.9286,2.8865,2.8865,2.8865,2.8865,2.8865,2.8865,2.8865,0.0,0.0,0.0,0.0,0.0,0.0,0.0,0.0,0.0,0.0,0.0,0.0,0.0,0.0,0.0,0.0,0.0,0.0,0.0,0.0,0.0,0.0,0.0,0.0,0.0,0.0,0.0,0.0,0.0,0.0,0.0,0.0,0.0,0.0,0.0,0.0,0.0,0.0,0.0,0.0,0.0,0.0,0.0,0.0,0.0,0.0,0.0,0.0,0.0,0.0,0.0,0.0,0.0,0.0,0.0,0.0,0.0,0.0,0.0,0.0,0.0,0.0,0.0,0.0,0.0,0.0,0.0,0.0,0.0,0.0,0.0,0.0,0.0,0.0,0.0,0.0,0.0,0.0,0.0,2.8237,2.8342,0.0,2.8583,2.8386,2.8532,2.9308,2.9489,2.9832,3.0448,3.0522,3.0717,3.1112,3.1011,3.0991,3.1003,3.1003,3.1128,3.1321,3.1738,3.2287,3.2957,3.3306,3.3178,3.2695,3.2859,3.2411,3.1523,3.1203,3.0556,2.9769,2.9769,2.9475,2.8994,2.8994,2.8994,2.8994,0.0,0.0,0.0,0.0,0.0,0.0,0.0,0.0,0.0,0.0,0.0,1.7277,0.0,0.0,0.0,0.0,0.0,0.0,0.0,0.0,0.0,0.0,0.0,0.0,0.0,0.0,0.0,0.0,0.0,0.0,0.0,0.0,0.0,0.0,0.0,0.0,0.0,0.0,0.0,0.0,0.0,0.0,0.4418,0.0,0.0,0.0,0.0,0.0,0.0,0.0,0.0,0.0,0.0,0.0,0.0,0.0,0.0,0.0,0.0,0.0,0.0,0.0,0.0,0.0,0.0,0.0,0.0,0.0,0.0,0.0,0.0,0.0,0.0,0.0,0.0,0.0,0.0,0.0,2.8458,2.8622,2.8861,2.9166,2.9618,2.9482,2.9751,3.0534,3.0595,3.0834,3.1366,3.1514,3.1691,3.1946,3.2064,3.2119,3.212,3.2138,3.2214,3.2466,3.297,3.3556,3.4254,3.471,3.4624,3.4105,3.3999,3.343,3.2621,3.2508,3.1911,3.098,3.0705,3.0283,2.9824,2.9824,2.9824,2.9745,0.0,0.0,0.0,0.0,0.0,0.0,0.0,0.0,0.0,0.0,0.0,2.0516,1.5579,0.0,0.0,0.0,0.0,0.0,0.0,0.0,0.0,0.0,0.0,0.0,0.0,0.0,0.0,0.0,0.0,0.0,0.0,0.0,0.0,0.0,0.0,0.0,0.0,0.0,0.0,0.0,0.0,0.0,0.2526,0.0,0.0,0.0,0.0,0.0,0.0,0.0,0.0,0.0,0.0,0.0,0.0,0.0,0.0,0.0,0.0,0.0,0.0,0.0,0.0,0.0,0.0,0.0,0.0,0.0,0.0,0.0,0.0,0.0,0.0,0.0,0.0,0.0,2.7989,2.8246,2.864,2.9123,2.9797,3.0417,3.0867,3.1224,3.1439,3.1458,3.1451,3.1488,3.1549,3.1846,3.2373,3.316,3.3397,3.39,3.4676,3.4676,3.4676,3.4676,3.5198,3.5465,3.5497,3.6024,3.6285,3.6248,3.5422,3.5027,3.4972,3.4211,3.3403,3.2596,3.1751,3.1403,3.1384,3.1384,3.1384,3.1174,0.0,0.0,0.0,0.0,0.0,0.0,0.0,0.0,0.0,0.0,1.8843,1.5073,1.3683,0.0,0.0,0.0,0.0,0.0,0.0,0.0,0.0,0.0,0.0,0.0,0.0,0.0,0.0,0.0,0.0,0.0,0.0,0.0,0.0,0.0,0.0,0.0,0.0,0.0,0.0,0.0,0.0,0.0,0.0737,0.0,0.0,0.0,0.0,0.0,0.0,0.0,0.0,0.0,0.0,0.0,0.0,0.0,0.0,0.0,0.0,0.0,0.0,0.0,0.0,0.0,0.0,0.0,0.0,0.0,0.0,0.0,0.0,0.0,0.0,0.0,0.0,2.918,2.9151,2.9461,2.9965,3.0698,3.0954,3.1121,3.1239,3.1583,3.2147,3.3065,3.2991,3.3525,3.488,3.4303,3.4189,3.4817,3.4549,3.4356,3.4283,3.4265,3.409,3.375,3.4227,3.4657,3.501,3.5497,3.5915,3.6285,3.6046,3.5936,3.5936,3.5697,3.511,3.4183,3.2816,3.1916,3.1384,3.1384,3.1232,3.0857,0.0,0.0,0.0,0.0,0.0,0.0,0.0,0.0,0.0,0.0,2.0853,1.5539,0.8283,1.2351,0.0,0.0,0.0,0.0,0.0,0.0,0.0,0.0,0.0,0.0,0.0,0.0,0.0,0.0,0.0,0.0,0.0,0.0,0.0,0.0,0.0,0.0,0.0,0.0,0.0,0.0,0.0,0.0,-0.1136,-0.151,0.0651,0.449,0.9175,1.4033,1.8847,2.2436,0.0,0.0,0.0,0.0,0.0,0.0,0.0,0.0,0.0,0.0,0.0,0.0,0.0,0.0,0.0,0.0,0.0,0.0,0.0,0.0,0.0,0.0,0.0,0.0,2.9948,3.0064,3.0923,3.0712,3.0932,3.2239,3.2412,3.2598,3.3067,3.3291,3.3622,3.4135,3.4066,3.4479,3.5562,3.5155,3.5041,3.535,3.5168,3.4985,3.4727,3.4727,3.4601,3.4336,3.4833,3.5201,3.5495,3.599,3.6474,3.6929,3.6601,3.6614,3.678,3.6431,3.6009,0.0,0.0,0.0,0.0,0.0,3.2263,3.1918,0.0,0.0,0.0,0.0,0.0,0.0,0.0,0.0,0.0,0.0,0.0,1.8651,0.1821,0.5246,0.8783,0.0,0.0,0.0,0.0,0.0,0.0,0.0,0.0,0.0,0.0,0.0,0.0,0.0,0.0,0.0,0.0,0.0,0.0,0.0,0.0,0.0,0.0,0.0,0.0,0.0,0.0,0.0,-0.285,-0.3803,-0.0976,0.4043,0.8571,1.3579,1.8643,2.3178,0.0,0.0,0.0,0.0,0.0,0.0,0.0,0.0,0.0,0.0,0.0,0.0,0.0,0.0,0.0,0.0,0.0,0.0,0.0,0.0,0.0,0.0,0.0,0.0,3.0346,3.102,3.288,3.2014,3.1856,3.367,3.3936,3.4371,3.5321,3.5504,3.5341,3.4889,3.4815,3.4868,3.4977,0.0,0.0,0.0,0.0,3.5362,3.5362,3.5362,3.5407,3.547,3.595,3.6291,3.6416,3.6865,3.736,3.7789,3.707,3.7033,3.7412,3.6717,3.6339,3.6067,3.4969,3.4213,3.3762,3.3835,3.3781,3.3441,0.0,0.0,0.0,0.0,0.0,0.0,0.0,0.0,0.0,1.9366,2.0836,1.5553,0.1538,0.1158,0.1938,0.0,0.0,0.0,0.0,0.0,0.0,0.0,0.0,0.0,0.0,0.0,0.0,0.0,0.0,0.0,0.0,0.0,0.0,0.0,0.0,0.0,0.0,0.0,0.0,0.0,0.0,0.0,-0.3801,-0.5417,-0.3218,0.1731,0.9442,1.383,1.7116,2.4769,2.8361,2.9611,2.9611,0.0,0.0,0.0,0.0,0.0,0.0,0.0,0.0,0.0,0.0,0.0,0.0,0.0,0.0,0.0,0.0,0.0,0.0,0.0,0.0,3.1393,3.1709,3.2245,3.3351,3.3476,3.372,3.4443,3.4914,3.5073,3.4871,3.5439,3.5775,3.5666,3.5503,3.5783,3.6675,3.5454,3.4889,3.5331,3.4444,3.4003,3.4003,3.4003,3.4235,3.4783,0.0,0.0,3.6416,3.6498,3.6843,3.7323,3.7163,3.7146,3.7255,3.7095,3.6432,3.5483,3.5339,3.4598,3.3687,3.406,3.3602,3.2727,0.0,0.0,0.0,0.0,0.0,0.0,0.0,0.0,0.0,0.0,0.9853,0.7356,0.0727,-0.0,-0.0,0.0,0.0,0.0,0.0,0.0,0.0,0.0,0.0,0.0,0.0,0.0,0.0,0.0,0.0,0.0,0.0,0.0,0.0,0.0,0.0,0.0,0.0,0.0,0.0,0.0,0.0,0.0,-0.8627,-0.7516,-0.536,-0.1606,0.8925,1.3867,1.6704,2.5214,2.8627,2.9303,2.9295,2.8615,2.7874,0.0,0.0,0.0,0.0,0.0,0.0,0.0,0.0,0.0,0.0,0.0,0.0,0.0,0.0,3.1485,0.0,0.0,3.1346,3.2271,3.2359,3.2793,3.4181,3.434,3.4542,3.524,3.5528,3.5652,3.5577,3.5924,3.5896,3.5292,3.515,3.5186,3.5385,3.4558,3.4203,3.4493,3.3905,3.3582,3.3582,3.3582,3.3786,3.4087,3.4087,3.4414,3.4998,3.5352,3.5778,3.6336,3.6649,3.696,3.719,3.719,3.6693,3.585,3.594,3.5078,3.3949,3.4643,3.4342,3.3616,0.0,0.0,0.0,0.0,0.0,0.0,0.0,0.0,0.0,0.0,0.0,-0.0,-0.0,-0.0,-0.0838,0.0,0.0,0.0,0.0,0.0,0.0,0.0,0.0,0.0,0.0,0.0,0.0,0.0,0.0,0.0,0.0,0.0,0.0,0.0,0.0,0.0,0.0,0.0,0.0,0.0,0.0,0.0,-1.4909,-1.1088,-0.7459,-0.2946,0.8101,1.4165,1.8139,2.5993,2.8643,2.8668,2.8762,2.7992,2.7178,2.7794,2.8233,0.0,0.0,0.0,0.0,0.0,0.0,0.0,0.0,0.0,3.179,3.1298,3.161,3.1714,3.0955,3.1223,3.1905,3.2934,3.2878,3.3226,3.4675,3.466,3.4754,3.5399,3.5787,3.6046,3.6239,3.6232,3.5769,3.4671,3.4479,3.4186,3.3633,3.3495,3.3391,3.3391,3.3287,3.3166,3.3166,3.3166,3.3271,3.3391,3.3391,3.3479,3.3633,3.4186,3.4622,3.5069,3.5752,3.6381,3.6904,3.6904,3.6643,3.6207,3.6105,3.5366,3.4461,3.519,3.5101,3.4585,0.0,0.0,0.0,0.0,0.0,0.0,0.0,0.0,0.0,0.0,0.0,0.0,0.0,0.0,0.0,0.0,0.0,0.0,0.0,0.0,0.0,0.0,0.0,0.0,0.0,0.0,0.0,0.0,0.0,0.0,0.0,0.0,0.0,0.0,0.0,0.0,0.0,0.0,0.0,0.0,0.0,0.0,-2.1061,-1.7689,-0.9177,0.1747,0.7717,1.5212,2.318,2.8727,2.9473,2.8168,2.8644,2.7589,2.6432,2.7906,0.0,2.9287,3.0422,3.1721,3.2956,3.3762,3.3684,3.3332,0.0,0.0,3.24,3.2315,3.2366,3.2493,3.2651,3.2769,3.2913,3.3301,3.3855,3.4095,3.3719,3.4206,3.4396,3.3925,3.5334,3.6163,3.5722,3.5576,3.5239,3.4671,3.4037,3.3684,3.3582,3.3039,3.2695,3.2695,3.2064,3.1739,3.1739,3.1739,3.2048,3.2695,3.2695,3.3039,3.3582,3.3684,3.3735,3.382,3.4511,3.5157,3.5766,3.5766,3.5739,3.565,3.5018,3.5073,3.5416,3.5272,3.4797,3.4185,0.0,0.0,0.0,0.0,0.0,0.0,0.0,0.0,0.0,0.0,0.0,0.0,0.0,0.0,0.0,0.0,0.0,0.0,0.0,0.0,0.0,0.0,0.0,0.0,0.0,0.0,0.0,0.0,0.0,0.0,0.0,0.0,0.0,0.0,0.0,0.0,0.0,0.0,0.0,0.0,0.0,0.0,-2.3885,-2.2508,-1.5181,-0.4362,0.5089,1.0911,0.0,0.0,2.9038,2.7934,2.7437,2.6693,2.6236,2.7538,2.828,0.0,3.1378,3.2346,0.0,0.0,3.3089,3.2409,3.1969,3.1686,3.1468,3.1117,3.138,3.159,3.1515,3.1818,3.2276,0.0,3.3137,3.3386,3.3551,3.3793,3.3937,3.3633,3.4301,3.4686,3.4447,3.4733,3.4526,3.3531,3.3198,3.2826,3.2407,3.2104,3.1951,3.1951,3.119,3.0777,3.0777,3.0329,3.0421,3.1261,3.1261,3.1664,3.2407,3.2826,3.3235,3.3649,3.3887,3.4399,3.5005,3.5005,3.5253,3.5515,3.483,3.4783,3.5048,3.5246,3.5147,3.5002,0.0,0.0,0.0,0.0,0.0,0.0,0.0,0.0,0.0,0.0,0.0,0.0,0.0,0.0,0.0,0.0,0.0,0.0,0.0,0.0,0.0,0.0,0.0,0.0,0.0,0.0,0.0,0.0,0.0,0.0,0.0,0.0,0.0,0.0,0.0,0.0,0.0,0.0,0.0,0.0,0.0,0.0,-2.5719,-2.5908,-2.1339,-1.3405,-0.2194,0.5618,0.0,0.0,2.5806,2.7917,2.6591,2.5986,2.5972,2.7139,2.814,2.9282,3.1276,0.0,0.0,3.2947,3.24,3.1593,3.1053,3.0802,3.0466,2.9691,3.0103,3.0535,3.0418,3.0975,3.1741,3.2652,3.2796,3.2921,3.3276,3.3339,3.3166,3.2763,3.2855,3.2701,3.1995,3.3212,3.3633,3.2695,3.2437,3.2064,3.1524,3.1278,3.1161,3.1161,3.0389,2.995,2.995,2.9317,2.9317,2.995,3.0208,3.0584,3.1204,3.1936,3.268,3.3339,3.3339,3.3684,3.4333,3.4333,3.4592,3.4958,3.4284,3.4186,3.4366,3.4572,3.4905,3.5407,0.0,0.0,0.0,0.0,0.0,0.0,0.0,0.0,0.0,0.0,0.0,0.0,0.0,0.0,0.0,0.0,0.0,0.0,0.0,0.0,0.0,0.0,0.0,0.0,0.0,0.0,0.0,0.0,0.0,0.0,0.0,0.0,0.0,0.0,0.0,0.0,0.0,0.0,0.0,0.0,0.0,0.0,-2.7012,-2.7673,-2.6637,-2.3821,-1.5827,0.0,0.0,0.0,1.8715,2.8228,2.6609,2.5631,0.0,2.6867,2.8533,0.0,0.0,0.0,3.1759,3.2364,3.2073,3.1491,3.1019,3.0523,2.9799,2.8607,2.8963,2.9623,3.0292,3.1002,3.1934,3.3326,3.355,3.3375,3.2749,3.2641,3.2074,3.0555,3.0954,3.0411,0.0,3.0719,3.2641,3.2586,3.1951,3.1524,3.1482,3.0777,3.0329,3.0329,2.9504,2.9066,2.9066,2.9002,2.9002,2.9066,2.9889,3.0329,3.0329,3.1146,3.1951,3.2641,3.2641,3.2986,3.3633,3.3633,3.3633,3.3582,3.2949,3.3039,3.3531,3.2933,3.3479,3.4736,0.0,0.0,0.0,0.0,0.0,0.0,0.0,0.0,0.0,0.0,0.0,0.0,0.0,0.0,0.0,0.0,0.0,0.0,0.0,0.0,0.0,0.0,0.0,0.0,0.0,0.0,0.0,0.0,0.0,0.0,0.0,0.0,0.0,0.0,0.0,0.0,0.0,0.0,0.0,0.0,0.0,0.0,-2.8618,-2.8838,-2.7604,-2.5576,0.0,0.0,0.0,0.0,1.3902,1.7191,1.6732,0.0,0.0,2.4975,2.7284,2.9502,0.0,0.0,3.1016,3.21,3.1893,3.0872,2.8856,2.8691,2.8316,2.5977,2.5012,2.4799,2.5723,2.5437,2.5515,2.7006,2.7734,2.818,2.8261,2.8266,2.8089,2.7563,2.7717,0.0,0.0,0.0,0.0,2.9265,2.8411,2.8479,2.9752,2.8955,2.8457,2.8457,2.7657,2.686,2.6189,2.562,2.599,2.7233,2.8707,2.9766,3.0329,3.0584,3.1131,3.1853,3.1853,3.2272,3.2949,3.2949,3.3182,3.3531,3.2841,3.2749,3.2895,3.2695,3.2895,3.3391,0.0,0.0,0.0,0.0,0.0,0.0,0.0,0.0,0.0,0.0,0.0,0.0,0.0,0.0,0.0,0.0,0.0,0.0,0.0,0.0,0.0,0.0,0.0,0.0,0.0,0.0,0.0,0.0,0.0,0.0,0.0,0.0,0.0,0.0,0.0,0.0,0.0,0.0,0.0,0.0,0.0,0.0,-2.9319,-2.926,-2.7893,0.0,0.0,0.0,0.0,0.0,0.0,0.0,0.0,1.3377,2.0158,2.4187,2.6397,2.7674,2.7872,2.8462,2.9261,3.0359,2.9685,2.8349,2.6519,2.6258,2.5675,2.3275,2.2811,2.2677,2.1883,2.0907,2.0676,2.1968,2.3007,2.3807,2.4166,2.4288,2.4374,2.4435,2.4447,2.4179,0.0,0.0,0.0,2.6324,2.5827,2.5882,2.6723,2.587,2.5382,2.5382,2.4589,2.3867,2.3206,2.3025,2.3693,2.5187,2.6742,2.7708,2.818,2.8606,2.924,3.0047,3.0047,3.0719,3.1777,3.1777,3.221,3.2826,3.2367,3.2231,3.2231,3.2231,3.2382,3.2695,0.0,0.0,0.0,0.0,0.0,0.0,0.0,0.0,0.0,0.0,0.0,0.0,0.0,0.0,0.0,0.0,0.0,0.0,0.0,0.0,0.0,0.0,0.0,0.0,0.0,0.0,0.0,0.0,0.0,0.0,0.0,0.0,0.0,0.0,0.0,0.0,0.0,0.0,0.0,0.0,0.0,0.0,-2.9135,-2.8931,0.0,0.0,0.0,0.0,0.0,0.0,0.0,0.0,0.0,0.0,1.363,2.3679,2.5535,2.4557,2.5582,2.6204,2.6726,2.731,2.5786,2.4131,2.4012,2.3182,2.2043,2.0403,2.204,2.2564,0.0,0.0,1.7263,1.8397,1.9558,2.0359,2.0502,2.0718,2.0866,0.0,0.0,0.0,0.0,0.0,0.0,2.3511,0.0,2.3488,2.2523,2.167,2.1217,2.1217,2.047,2.0024,1.9947,2.1065,2.2094,2.2877,2.3999,2.4507,2.4352,2.5475,2.6547,2.7499,2.7499,2.8534,3.0269,3.0269,3.0777,3.1409,3.1467,3.1482,3.1482,3.1482,3.1951,3.2641,0.0,0.0,0.0,0.0,0.0,0.0,0.0,0.0,0.0,0.0,0.0,0.0,0.0,0.0,0.0,0.0,0.0,0.0,0.0,0.0,0.0,0.0,0.0,0.0,0.0,0.0,0.0,0.0,0.0,0.0,0.0,0.0,0.0,0.0,0.0,0.0,0.0,0.0,0.0,0.0,0.0,0.0,-2.8461,0.0,0.0,0.0,0.0,0.0,0.0,0.0,0.0,0.0,0.0,0.47,1.0245,1.2928,1.8247,2.3162,2.3027,2.3896,2.4949,2.5105,2.3965,2.2222,1.9796,1.8761,1.8038,1.7161,1.5948,1.4749,0.0,0.0,0.0,1.3631,1.5682,0.0,1.6699,1.6688,0.0,1.594,0.0,1.5678,1.5174,1.5182,0.0,0.0,1.69,1.797,1.8308,1.7397,1.6905,1.6905,1.6708,1.6212,1.5553,1.7389,1.8406,1.8683,2.052,2.2167,2.3492,2.3812,2.5261,2.7499,2.7499,2.8214,2.938,3.0011,3.0389,3.0644,3.1278,3.1482,3.1482,3.1482,3.164,3.1796,0.0,0.0,0.0,0.0,0.0,0.0,0.0,0.0,0.0,0.0,0.0,0.0,0.0,0.0,0.0,0.0,0.0,0.0,0.0,0.0,0.0,0.0,0.0,0.0,0.0,0.0,0.0,0.0,0.0,0.0,0.0,0.0,0.0,0.0,0.0,0.0,0.0,0.0,0.0,0.0,0.0,0.0,0.0,0.0,0.0,0.0,0.0,0.0,0.0,0.0,0.0,-1.4171,-0.672,-0.0,0.6058,1.1386,0.0,1.9977,2.0823,2.1529,2.1884,2.1318,2.0737,1.9174,1.4993,1.3021,1.1797,1.099,0.9563,0.0,0.0,0.0,0.0,0.0,0.0,0.0,1.2481,1.195,1.1863,0.0,1.2451,0.0,1.2451,1.2451,1.2219,0.0,1.3121,1.4103,1.4063,1.3539,1.3438,1.3748,1.3748,1.3201,1.1954,1.3973,1.4981,1.4981,1.7183,1.8599,1.9217,2.0148,2.1967,2.439,0.0,2.6138,2.7841,2.8346,2.901,2.9752,2.9742,3.0257,3.097,3.097,3.1219,3.1482,0.0,0.0,0.0,0.0,0.0,0.0,0.0,0.0,0.0,0.0,0.0,0.0,0.0,0.0,0.0,0.0,0.0,0.0,0.0,0.0,0.0,0.0,0.0,0.0,0.0,0.0,0.0,0.0,0.0,0.0,0.0,0.0,0.0,0.0,0.0,0.0,0.0,0.0,0.0,0.0,0.0,0.0,0.0,0.0,0.0,0.0,0.0,0.0,0.0,0.0,-1.4533,-1.053,-0.9702,-0.5237,0.1852,1.2785,1.5518,1.5582,1.8537,1.9049,1.8452,1.7382,1.6649,1.4772,0.9559,0.6637,0.4675,0.3579,0.0,0.2271,0.0382,0.0,0.2923,0.2707,0.0,0.776,0.7951,0.7017,0.7076,0.8996,0.9213,0.9226,0.9226,0.9226,0.9165,0.9231,1.0043,1.0424,1.0183,1.0101,1.0299,1.0702,1.0702,1.0178,0.915,1.0745,1.1549,1.1549,1.3818,1.4608,1.4065,1.5996,1.8089,2.0256,2.1288,0.0,2.5758,2.5977,2.7074,2.8579,2.7799,2.8598,3.0133,3.0269,3.0718,3.1351,0.0,0.0,0.0,0.0,0.0,0.0,0.0,0.0,0.0,0.0,-1.906,0.0,0.0,0.0,0.0,0.0,0.0,0.0,0.0,0.0,0.0,0.0,0.0,0.0,0.0,0.0,0.0,0.0,0.0,0.0,0.0,0.0,0.0,0.0,0.0,0.0,0.0,0.0,0.0,0.0,0.0,0.0,0.0,0.0,0.0,0.0,0.0,0.0,0.0,0.0,-1.6367,-1.3933,-0.8562,-0.4565,-0.0893,0.4029,0.7248,1.0398,1.5331,1.6612,1.6669,1.7162,1.2965,0.7589,0.3137,0.0923,0.0,0.0,0.0,-0.3656,-0.6863,-0.4803,0.0,0.0152,0.0,0.0,0.0,0.0,0.2339,0.0,0.0,0.0,0.0,0.0,0.0,0.0,0.0,0.3793,0.7521,0.7705,0.6884,0.5078,0.4989,0.5794,0.7503,0.78,0.7948,0.8036,1.0393,1.2372,1.3981,1.44,1.6246,1.9118,2.0236,0.0,2.2823,2.4425,2.5733,2.6819,2.7328,2.8228,2.9317,3.0011,3.0389,3.0584,0.0,0.0,0.0,0.0,0.0,0.0,0.0,0.0,0.0,0.0,-2.0926,-2.0703,0.0,0.0,0.0,0.0,0.0,0.0,0.0,0.0,0.0,0.0,0.0,0.0,0.0,0.0,0.0,0.0,0.0,0.0,0.0,0.0,0.0,0.0,0.0,0.0,0.0,0.0,0.0,0.0,0.0,0.0,0.0,0.0,0.0,0.0,0.0,0.0,0.0,0.0,-1.6805,-1.5033,-1.035,-0.7464,-0.5584,-0.396,0.0077,0.4595,0.7254,0.8809,0.9619,0.9418,0.6995,0.351,-0.1091,0.0,0.0,0.0,0.0,-0.8019,-0.9712,0.0,0.0,0.0,0.0,0.0,0.0,0.0,0.0,0.0,0.0,0.0,0.0,0.0,0.0,0.0,0.0,-0.2908,0.3108,0.3383,0.285,0.1779,0.1692,0.2227,0.339,0.4628,0.5874,0.7143,0.8249,0.9352,1.0444,1.2281,1.4289,1.6393,1.8646,0.0,2.1222,2.2742,2.3944,2.4897,2.5259,2.6294,2.7696,2.8593,2.9254,2.969,0.0,0.0,0.0,0.0,0.0,0.0,0.0,-2.0652,-2.1409,-2.2209,-2.231,-2.2015,-2.1193,-2.1836,-2.231,0.0,0.0,0.0,0.0,0.0,0.0,0.0,0.0,0.0,0.0,0.0,0.0,0.0,0.0,0.0,0.0,0.0,0.0,0.0,0.0,0.0,0.0,0.0,0.0,0.0,0.0,0.0,0.0,0.0,0.0,0.0,0.0,0.0,0.0,0.0,-1.724,-1.6097,-1.3233,-1.1348,-1.0014,-0.963,-0.5883,-0.1821,-0.1666,-0.0321,0.0808,-0.0159,-0.0317,-0.1338,-0.5628,-0.8694,0.0,0.0,0.0,-1.1605,-1.139,0.0,0.0,0.0,0.0,0.0,0.0,0.0,0.0,0.0,0.0,0.0,0.0,0.0,0.0,0.0,0.0,0.0,-0.2556,-0.2298,-0.2301,-0.2301,-0.1775,-0.1244,-0.08,0.1245,0.339,0.5552,0.5957,0.6467,0.7176,0.9962,1.2122,1.3814,1.6547,0.0,0.0,2.0941,2.2092,2.3147,2.3147,2.4339,2.6096,2.7085,2.7959,2.8748,0.0,0.0,0.0,0.0,0.0,0.0,0.0,-2.1231,-2.2209,-2.2282,-2.231,-2.2265,-2.2163,-2.2237,-2.231,0.0,0.0,0.0,0.0,0.0,0.0,0.0,0.0,0.0,0.0,0.0,0.0,0.0,0.0,0.0,0.0,0.0,0.0,0.0,0.0,0.0,0.0,0.0,0.0,0.0,0.0,0.0,0.0,0.0,0.0,0.0,0.0,0.0,0.0,0.0,0.0,-1.8862,-1.6495,-1.4371,-1.2417,-1.0689,0.0,0.0,-0.8593,-0.8248,-0.8089,-0.8242,-0.8686,-0.9823,-1.2696,0.0,0.0,0.0,-1.4148,-1.4506,-1.3578,0.0,0.0,0.0,0.0,0.0,0.0,0.0,0.0,0.0,0.0,0.0,0.0,0.0,0.0,0.0,0.0,0.0,-0.968,-0.9598,-0.9598,-0.9598,-0.7555,-0.5414,-0.3271,-0.2306,-0.0978,0.0712,0.2133,0.4345,0.7088,0.7439,0.9352,1.2486,1.3891,0.0,0.0,1.8789,2.042,2.2103,2.2103,2.3368,2.5205,2.6108,2.7005,2.792,0.0,0.0,0.0,0.0,0.0,0.0,0.0,-2.1302,-2.231,-2.231,-2.231,-2.231,-2.231,-2.231,-2.231,0.0,0.0,0.0,0.0,0.0,0.0,0.0,0.0,0.0,0.0,0.0,0.0,0.0,0.0,0.0,0.0,0.0,0.0,0.0,0.0,0.0,0.0,0.0,0.0,0.0,0.0,0.0,0.0,0.0,0.0,0.0,0.0,0.0,0.0,0.0,0.0,0.0,-1.872,-1.7006,0.0,0.0,-1.0979,-1.0383,-0.9509,-0.9276,-0.9471,-0.9964,-1.0329,-1.1139,-1.3353,0.0,0.0,-1.5209,-1.579,-1.6062,-1.6227,0.0,0.0,0.0,0.0,0.0,0.0,0.0,0.0,0.0,0.0,0.0,0.0,0.0,0.0,0.0,0.0,0.0,-1.3698,-1.1746,-1.0641,-1.0641,-1.0144,-0.8528,-0.575,-0.5414,-0.4896,-0.4198,-0.0712,0.1599,0.2925,0.5755,0.7872,0.9352,1.2608,0.0,0.0,1.7236,1.8452,1.9289,2.0526,2.1511,2.2477,2.4708,2.573,2.6239,0.0,0.0,0.0,0.0,0.0,0.0,-2.0002,-2.1302,-2.231,-2.231,-2.231,-2.231,-2.231,-2.231,-2.231,-2.231,0.0,0.0,0.0,0.0,0.0,0.0,0.0,0.0,0.0,0.0,0.0,0.0,0.0,0.0,0.0,0.0,0.0,0.0,0.0,0.0,0.0,0.0,0.0,0.0,0.0,0.0,0.0,0.0,0.0,0.0,0.0,0.0,0.0,0.0,0.0,0.0,0.0,0.0,0.0,0.0,-1.2906,-1.1905,-1.1199,-1.1063,-1.1199,-1.1832,-1.2045,-1.2476,0.0,0.0,0.0,-1.6867,-1.7239,-1.7503,-1.7861,0.0,0.0,0.0,0.0,0.0,0.0,0.0,0.0,0.0,0.0,0.0,0.0,0.0,0.0,0.0,0.0,0.0,-1.6635,-1.4052,-1.2304,-1.1649,-1.1796,-1.0911,-0.8657,-0.799,-0.7489,-0.7071,-0.374,-0.1335,0.0089,0.3456,0.5755,0.726,1.053,0.0,0.0,1.5659,1.6748,1.7496,1.9289,2.013,2.0738,2.3187,2.4492,2.5075,0.0,0.0,0.0,0.0,0.0,0.0,0.0,-2.1302,-2.231,-2.231,-2.231,-2.231,-2.231,-2.231,-2.231,-2.231,0.0,0.0,0.0,0.0,0.0,0.0,0.0,0.0,0.0,0.0,0.0,0.0,0.0,0.0,0.0,0.0,0.0,0.0,0.0,0.0,0.0,0.0,0.0,0.0,0.0,0.0,0.0,0.0,0.0,0.0,0.0,0.0,0.0,0.0,0.0,0.0,0.0,0.0,0.0,0.0,-1.6573,-1.5163,-1.5163,-1.5163,-1.5163,-1.5163,-1.5163,-1.5367,0.0,0.0,0.0,-1.7852,-1.8649,-1.9013,-1.8073,0.0,0.0,0.0,0.0,0.0,0.0,0.0,0.0,0.0,0.0,0.0,0.0,0.0,0.0,0.0,0.0,0.0,-1.8795,-1.7768,-1.6281,-1.4166,-1.2942,-1.2242,-1.2237,-1.0009,-0.8257,-0.7092,-0.7058,-0.4552,-0.0,0.0089,0.266,0.0,0.0,0.0,0.0,1.3981,1.5321,1.7423,1.855,1.9543,2.0507,2.1628,2.3294,2.4862,0.0,0.0,0.0,0.0,0.0,0.0,0.0,-2.0889,-2.1735,-2.2243,-2.231,-2.231,-2.231,-2.231,-2.231,-2.231,0.0,0.0,0.0,0.0,0.0,0.0,0.0,0.0,0.0,0.0,0.0,0.0,0.0,0.0,0.0,0.0,0.0,0.0,0.0,0.0,0.0,0.0,0.0,0.0,0.0,0.0,0.0,0.0,0.0,0.0,0.0,0.0,0.0,0.0,0.0,0.0,0.0,0.0,0.0,0.0,0.0,0.0,-1.5376,-1.5234,-1.55,-1.6711,-1.7055,-1.7269,-1.8267,0.0,0.0,-1.8094,-1.87,-1.942,-1.9705,-2.0493,0.0,0.0,0.0,0.0,0.0,0.0,0.0,0.0,0.0,0.0,0.0,0.0,0.0,0.0,0.0,0.0,-1.8991,-1.8621,-1.7496,-1.5296,-1.4782,-1.384,-1.2322,-1.1552,-1.0595,-0.9461,-0.7899,-0.6304,-0.4782,-0.1509,0.08,0.0,0.0,0.0,0.0,1.2298,1.3769,1.5228,1.6355,1.6903,1.7518,1.9965,2.1283,2.2029,0.0,0.0,0.0,0.0,0.0,0.0,0.0,-2.0619,-2.1445,-2.1847,-2.2218,-2.2398,-2.231,-2.2388,-2.2398,-2.231,0.0,0.0,0.0,0.0,0.0,0.0,0.0,0.0,0.0,0.0,0.0,0.0,0.0,0.0,0.0,0.0,0.0,0.0,0.0,0.0,0.0,0.0,0.0,0.0,0.0,0.0,-2.2622,0.0,0.0,0.0,0.0,0.0,0.0,0.0,0.0,0.0,0.0,0.0,0.0,0.0,-1.919,0.0,0.0,-1.7269,-1.7406,-1.8228,-1.8429,0.0,0.0,0.0,0.0,0.0,-1.9431,-1.9955,-2.0526,-2.1302,-2.2063,0.0,0.0,0.0,0.0,0.0,0.0,0.0,0.0,0.0,0.0,0.0,0.0,0.0,0.0,0.0,-2.1314,-2.0566,-1.9298,-1.7518,-1.674,-1.5433,-1.3587,-1.3159,-1.214,-1.0611,-0.9109,-0.7979,-0.7031,-0.3992,-0.1687,0.0,0.0,0.0,0.0,1.0336,1.1735,1.2948,1.4434,1.5094,1.5418,1.8708,2.0062,2.0584,0.0,0.0,0.0,0.0,0.0,0.0,0.0,0.0,0.0,0.0,-2.2048,-2.253,-2.236,-2.2537,-2.2573,0.0,0.0,0.0,0.0,0.0,0.0,0.0,0.0,0.0,0.0,0.0,0.0,-2.3165,-2.3165,-2.2857,-2.231,0.0,0.0,0.0,0.0,0.0,0.0,0.0,0.0,0.0,0.0,0.0,0.0,0.0,0.0,0.0,0.0,0.0,0.0,0.0,0.0,0.0,0.0,0.0,0.0,0.0,0.0,0.0,0.0,0.0,0.0,0.0,0.0,0.0,0.0,0.0,0.0,0.0,0.0,-2.0719,-2.0719,-2.1428,-2.2013,0.0,0.0,0.0,0.0,0.0,0.0,0.0,0.0,0.0,0.0,0.0,0.0,0.0,0.0,0.0,-2.4803,-2.3091,-2.1587,-2.0584,-1.8656,-1.7082,-1.5861,-1.4747,-1.314,-1.095,-1.0864,-0.9579,-0.7344,-0.72,-0.4694,0.0,0.0,0.0,0.0,0.8257,0.9488,1.0778,1.2971,1.3814,1.4309,1.7454,1.9219,2.013,0.0,0.0,0.0,0.0,0.0,0.0,0.0,0.0,0.0,0.0,-2.1791,-2.1996,-2.2556,-2.249,-2.236,0.0,0.0,0.0,0.0,0.0,0.0,0.0,0.0,0.0,0.0,0.0,0.0,-2.2822,-2.2822,-2.2625,-2.231,-2.231,0.0,0.0,0.0,0.0,-2.1764,0.0,0.0,0.0,0.0,0.0,0.0,0.0,0.0,0.0,-2.0795,-2.0446,0.0,0.0,0.0,0.0,0.0,0.0,0.0,0.0,-2.1642,-2.1981,-2.2384,0.0,-2.0719,-2.1164,-2.1302,0.0,0.0,0.0,0.0,0.0,0.0,-2.1616,-2.1616,-2.2249,0.0,0.0,0.0,0.0,0.0,0.0,0.0,0.0,0.0,0.0,0.0,0.0,0.0,0.0,0.0,-2.2784,-2.3228,-2.2811,-2.225,-2.1618,-2.1161,-1.9603,-1.6927,-1.6667,-1.5838,-1.4511,-1.3652,-1.1958,-0.9753,-0.7888,-0.6486,0.0,0.0,0.0,0.5383,0.6903,0.8765,1.0611,1.1203,1.1969,1.2905,1.4559,1.589,1.7058,0.0,0.0,0.0,0.0,0.0,0.0,0.0,0.0,0.0,0.0,0.0,0.0,0.0,0.0,0.0,0.0,0.0,0.0,0.0,0.0,0.0,0.0,0.0,0.0,0.0,0.0,0.0,0.0,0.0,-2.2704,0.0,0.0,0.0,0.0,0.0,-2.2032,-2.1582,-2.1117,-2.1244,0.0,-2.1668,0.0,0.0,0.0,0.0,0.0,-2.1197,-2.0769,0.0,-1.9901,-1.9798,-1.9798,0.0,0.0,0.0,0.0,-2.1681,-2.2372,-2.2673,-2.225,-2.1803,-2.1877,-2.1877,-2.1877,0.0,0.0,0.0,0.0,0.0,0.0,-2.1877,0.0,0.0,0.0,0.0,0.0,0.0,0.0,0.0,0.0,0.0,0.0,0.0,0.0,0.0,0.0,0.0,-2.3352,-2.3635,-2.3225,-2.2842,-2.2606,-2.2186,-2.0672,-1.8141,-1.8069,-1.7228,-1.5644,-1.5079,-1.3555,-1.1257,-0.9534,-0.8162,0.0,0.0,0.0,0.2741,0.4689,0.6916,0.9069,0.9579,1.0183,1.095,1.2608,1.3884,1.517,0.0,0.0,0.0,0.0,0.0,0.0,0.0,0.0,0.0,0.0,0.0,0.0,0.0,0.0,0.0,0.0,0.0,0.0,0.0,0.0,0.0,0.0,0.0,0.0,0.0,0.0,0.0,0.0,0.0,0.0,0.0,0.0,-2.231,0.0,0.0,-2.2077,-2.1658,-2.0766,-2.1047,-2.2045,-2.1398,0.0,0.0,0.0,0.0,0.0,0.0,0.0,0.0,-2.0003,-1.9798,-1.9798,-1.9798,0.0,0.0,0.0,0.0,0.0,-2.2272,-2.2648,-2.2845,-2.2237,-2.2063,-2.2063,0.0,0.0,0.0,0.0,0.0,0.0,0.0,0.0,0.0,0.0,0.0,0.0,0.0,0.0,0.0,0.0,0.0,0.0,0.0,0.0,0.0,0.0,0.0,-2.4607,-2.4695,-2.3855,-2.334,-2.3278,-2.2525,-2.1214,-1.9453,-1.9316,-1.8189,-1.6006,-1.6075,-1.4842,-1.2409,-1.1348,-0.9543,-0.7267,0.0,0.0,-0.0178,0.2128,0.4628,0.7173,0.8204,0.8719,0.9144,1.0984,1.2427,1.3639,0.0,0.0,0.0,0.0,0.0,0.0,0.0,0.0,0.0,0.0,0.0,0.0,0.0,0.0,0.0,0.0,0.0,0.0,0.0,0.0,0.0,0.0,0.0,0.0,0.0,0.0,0.0,0.0,0.0,0.0,-2.231,-2.231,-2.231,-2.231,-2.231,-2.2254,-2.2163,-2.1612,-2.1633,-2.2027,-2.2059,0.0,0.0,0.0,0.0,0.0,0.0,0.0,0.0,-1.985,-1.9798,-1.9798,-1.9798,0.0,0.0,0.0,0.0,0.0,-2.2058,-2.2372,-2.2489,-2.2832,-2.2944,-2.2944,0.0,0.0,0.0,0.0,0.0,0.0,0.0,0.0,0.0,0.0,0.0,0.0,0.0,0.0,0.0,0.0,0.0,0.0,0.0,0.0,0.0,0.0,0.0,-2.3602,-2.4104,-2.3991,-2.372,-2.3333,-2.3144,-2.2594,-2.149,-2.0719,-1.9516,-1.7873,-1.7891,-1.6421,-1.371,-1.2505,-1.0732,-0.8532,0.0,-0.4816,-0.1867,-0.0178,0.3117,0.7084,0.7347,0.8036,0.8978,0.9314,1.0168,1.1284,0.0,0.0,0.0,0.0,0.0,0.0,0.0,0.0,0.0,0.0,0.0,0.0,0.0,0.0,0.0,0.0,0.0,0.0,0.0,0.0,0.0,0.0,0.0,0.0,0.0,0.0,0.0,0.0,0.0,-2.2563,-2.231,-2.231,-2.231,-2.231,-2.231,-2.2163,-2.1853,-2.1148,-2.1129,-2.1596,0.0,0.0,0.0,0.0,0.0,0.0,0.0,0.0,0.0,0.0,-1.9798,-1.9798,-1.9798,0.0,0.0,0.0,0.0,0.0,-2.128,-2.1857,-2.2372,-2.2623,-2.2912,0.0,0.0,0.0,0.0,0.0,0.0,0.0,0.0,0.0,0.0,0.0,0.0,0.0,0.0,0.0,0.0,0.0,0.0,0.0,0.0,0.0,0.0,0.0,0.0,0.0,-2.4107,-2.3771,-2.3381,-2.3228,-2.3164,-2.2771,-2.1932,-2.1527,-2.0737,-1.9512,-1.8489,-1.7269,-1.5921,-1.3804,-1.223,-1.1174,0.0,-0.6851,-0.4786,-0.2309,0.0534,0.3476,0.6086,0.7432,0.8036,0.8632,0.9235,0.9836,0.0,0.0,0.0,0.0,0.0,0.0,0.0,0.0,0.0,0.0,0.0,0.0,0.0,0.0,0.0,0.0,0.0,0.0,0.0,0.0,0.0,0.0,0.0,0.0,0.0,0.0,-2.3414,-2.3093,-2.2764,-2.25,-2.231,-2.231,-2.231,0.0,-2.218,-2.2028,-2.1767,-2.0856,-2.0859,-2.15,0.0,0.0,0.0,0.0,0.0,0.0,0.0,0.0,0.0,0.0,0.0,0.0,0.0,0.0,0.0,-1.9798,-2.0112,-2.0542,-2.068,-2.128,-2.1995,-2.2246,0.0,0.0,0.0,0.0,0.0,0.0,0.0,0.0,0.0,0.0,0.0,0.0,0.0,0.0,0.0,0.0,0.0,0.0,0.0,0.0,0.0,0.0,0.0,0.0,0.0,0.0,-2.4509,-2.3989,-2.359,-2.3365,-2.3365,-2.2992,-2.2187,-2.2002,-2.1483,-2.0716,-1.9,-1.8119,-1.7915,-1.5131,-1.3668,-1.305,-1.0578,-0.8616,-0.6954,-0.4513,-0.2131,0.0356,0.4013,0.6086,0.717,0.812,0.846,0.8627,0.0,0.0,0.0,0.0,0.0,0.0,0.0,0.0,0.0,0.0,0.0,0.0,0.0,0.0,0.0,0.0,0.0,0.0,0.0,0.0,0.0,0.0,0.0,0.0,0.0,-2.3414,-2.3069,-2.2746,-2.2463,-2.2338,-2.231,-2.231,-2.231,-2.2282,-2.1823,-2.196,-2.249,-2.1594,-2.1652,-2.2286,-2.1758,0.0,0.0,0.0,0.0,0.0,0.0,0.0,0.0,0.0,0.0,0.0,0.0,0.0,-1.9798,-1.9798,-1.9823,-1.9987,-2.0567,-2.0781,-2.1029,-2.2058,0.0,0.0,0.0,0.0,0.0,0.0,0.0,0.0,0.0,0.0,0.0,0.0,0.0,0.0,0.0,0.0,0.0,0.0,0.0,0.0,0.0,0.0,0.0,0.0,0.0,0.0,-2.5342,-2.5287,-2.4894,-2.4234,-2.4234,-2.3826,-2.3005,-2.2261,-2.1632,-2.1163,-2.0217,-1.9455,-1.8807,-1.6672,-1.4712,-1.2844,-1.1875,-0.9736,-0.7079,-0.686,-0.4074,-0.0,0.0356,0.3207,0.7084,0.7173,0.7245,0.7401,0.0,0.0,0.0,0.0,0.0,0.0,0.0,0.0,0.0,0.0,0.0,0.0,0.0,0.0,0.0,0.0,0.0,0.0,0.0,0.0,0.0,0.0,0.0,-2.3459,-2.3392,-2.3259,-2.3236,-2.3323,-2.2789,-2.2537,-2.2537,-2.2388,0.0,0.0,-2.2457,-2.2459,-2.2875,-2.2191,-2.2186,-2.2524,-2.1931,-2.1941,0.0,0.0,0.0,0.0,0.0,0.0,0.0,0.0,-1.9798,-1.9798,0.0,-1.9798,-1.9798,-1.9798,-1.9798,-1.9849,-2.0075,-2.0388,-2.0819,-2.1179,0.0,0.0,0.0,0.0,0.0,0.0,0.0,0.0,0.0,0.0,0.0,0.0,0.0,0.0,0.0,0.0,0.0,0.0,0.0,0.0,0.0,0.0,0.0,0.0,0.0,0.0,-2.6068,-2.5231,-2.4794,-2.4951,-2.4047,-2.3662,-2.3826,-2.3053,-2.2543,-2.2339,-2.0989,-1.9959,-1.9178,-1.7967,-1.6706,-1.5367,-1.3277,-1.1399,-0.9625,-0.7828,-0.6013,-0.4114,-0.1151,0.1691,0.4457,0.6355,0.7081,0.716,0.0,0.0,0.0,0.0,0.0,0.0,0.0,0.0,0.0,0.0,0.0,0.0,0.0,0.0,0.0,0.0,0.0,0.0,0.0,0.0,0.0,0.0,0.0,-2.3323,-2.3189,-2.3189,-2.3259,-2.3392,-2.284,-2.2573,-2.2563,0.0,0.0,0.0,-2.2636,-2.2696,-2.3112,-2.264,-2.2541,-2.2655,-2.2193,-2.2036,0.0,0.0,0.0,0.0,0.0,0.0,0.0,0.0,-1.9798,-1.9798,0.0,0.0,-1.9798,-1.9798,-1.9798,-1.9798,-1.9798,-2.0087,-2.0439,0.0,0.0,0.0,0.0,0.0,0.0,0.0,0.0,0.0,0.0,0.0,0.0,0.0,0.0,0.0,0.0,0.0,0.0,0.0,0.0,0.0,0.0,0.0,0.0,0.0,0.0,0.0,0.0,-2.5877,-2.5439,-2.5728,-2.4711,-2.4208,-2.4292,-2.3767,-2.3365,-2.3078,-2.1928,-2.0974,-2.0085,-1.91,-1.8132,-1.7186,-1.5111,-1.3256,-1.1551,-0.937,-0.7958,-0.6784,-0.3537,-0.0623,0.1868,0.4101,0.5813,0.7088,0.0,0.0,0.0,0.0,0.0,0.0,0.0,0.0,0.0,0.0,0.0,0.0,0.0,0.0,0.0,0.0,0.0,0.0,0.0,0.0,0.0,0.0,0.0,-2.2873,-2.3189,-2.3189,-2.3045,-2.2695,-2.2453,-2.231,-2.231,-2.2282,0.0,0.0,-2.2197,-2.2492,-2.3295,-2.2914,-2.2728,-2.2694,-2.2694,-2.1941,-2.0944,0.0,0.0,0.0,0.0,0.0,0.0,0.0,-1.9811,-1.9798,0.0,0.0,0.0,-1.9798,-1.9798,-1.9798,-1.9798,-1.9798,0.0,0.0,0.0,0.0,0.0,0.0,0.0,0.0,0.0,0.0,0.0,0.0,0.0,0.0,0.0,0.0,0.0,0.0,0.0,0.0,0.0,0.0,0.0,0.0,0.0,0.0,0.0,0.0,0.0,-2.7575,-2.7255,-2.651,-2.651,-2.5783,-2.435,-2.4292,-2.3884,-2.3078,-2.3138,-2.2702,-2.1815,-2.0139,-1.8793,-1.7881,-1.7257,-1.5275,-1.2348,-1.1703,-0.9732,-0.7139,-0.7126,-0.4198,-0.0089,-0.0,0.2943,0.7009,0.0,0.0,0.0,0.0,0.0,0.0,0.0,0.0,0.0,0.0,0.0,0.0,0.0,0.0,0.0,0.0,0.0,0.0,0.0,0.0,0.0,0.0,0.0,0.0,0.0,0.0,-2.3141,-2.3045,-2.2738,-2.2573,0.0,0.0,0.0,-2.3921,0.0,0.0,0.0,0.0,-2.3697,-2.3334,-2.3334,-2.3098,-2.2756,0.0,0.0,0.0,0.0,0.0,0.0,0.0,0.0,0.0,-2.0346,0.0,0.0,-1.9798,-1.9798,-1.9798,-1.9798,-1.9798,0.0,0.0,0.0,0.0,0.0,0.0,0.0,0.0,0.0,0.0,0.0,0.0,0.0,0.0,0.0,0.0,0.0,0.0,0.0,0.0,0.0,0.0,0.0,0.0,0.0,0.0,0.0,0.0,0.0,-2.71,-2.6982,-2.7255,-2.5769,-2.5007,-2.5063,-2.4567,-2.3884,-2.3138,-2.3649,-2.322,-2.1877,-2.1365,-2.0311,-1.8803,-1.8027,-1.6368,-1.4088,-1.1165,-0.9176,-0.7784,-0.7297,-0.6219,-0.4546,-0.1239,0.089,0.2316,0.0,0.0,0.0,0.0,0.0,0.0,0.0,0.0,0.0,0.0,0.0,0.0,0.0,0.0,0.0,0.0,0.0,0.0,0.0,0.0,0.0,0.0,0.0,0.0,0.0,-2.3007,-2.2832,0.0,0.0,0.0,0.0,0.0,0.0,-2.4611,0.0,-2.4392,0.0,0.0,-2.3921,-2.3595,-2.3595,-2.3465,-2.3231,0.0,0.0,0.0,0.0,0.0,0.0,0.0,0.0,0.0,0.0,0.0,0.0,-1.9901,-2.0003,-2.0144,-1.985,0.0,0.0,0.0,0.0,0.0,0.0,0.0,0.0,0.0,0.0,0.0,0.0,0.0,0.0,0.0,0.0,0.0,0.0,0.0,0.0,0.0,0.0,0.0,0.0,0.0,0.0,0.0,0.0,0.0,0.0,-2.7203,-2.7137,-2.7575,-2.6308,-2.5659,-2.5837,-2.5119,-2.4337,-2.3603,-2.3767,-2.3352,-2.2384,-2.2063,-2.1302,-2.0257,-1.8609,-1.6803,-1.4877,-1.1878,-1.0037,-0.9181,-0.8022,-0.7344,-0.6675,-0.3839,-0.2199,-0.1057,0.0,0.0,0.0,0.0,0.0,0.0,0.0,0.0,0.0,0.0,0.0,0.0,0.0,0.0,0.0,0.0,0.0,0.0,0.0,0.0,0.0,0.0,0.0,0.0,0.0,0.0,0.0,0.0,0.0,0.0,0.0,0.0,-2.3926,-2.4771,0.0,-2.4286,0.0,-2.3879,-2.3638,-2.3595,-2.3595,-2.329,-2.283,-2.3377,0.0,0.0,0.0,0.0,0.0,0.0,0.0,0.0,-2.0194,-2.0396,-2.0696,-2.0055,-2.0295,-2.0646,0.0,0.0,0.0,0.0,0.0,0.0,0.0,0.0,0.0,0.0,0.0,0.0,0.0,0.0,0.0,0.0,0.0,0.0,0.0,0.0,0.0,0.0,0.0,0.0,0.0,0.0,0.0,0.0,0.0,0.0,0.0,-2.7595,-2.7625,-2.7625,-2.7509,-2.7203,-2.651,-2.5837,-2.5119,-2.4408,-2.3708,-2.3365,-2.3185,-2.2384,-2.1939,-2.1753,-1.9128,-1.7017,-1.523,-1.3364,-1.1986,-1.087,-0.9091,-0.7796,-0.6905,-0.702,-0.5712,-0.3646,0.0,0.0,0.0,0.0,0.0,0.0,0.0,0.0,0.0,0.0,0.0,0.0,0.0,0.0,0.0,0.0,0.0,0.0,0.0,0.0,0.0,0.0,0.0,0.0,0.0,0.0,0.0,0.0,0.0,0.0,0.0,0.0,0.0,-2.4804,0.0,-2.4768,-2.4389,-2.4266,-2.3991,-2.3595,-2.3595,-2.3508,-2.3421,-2.3551,-2.3508,0.0,0.0,0.0,0.0,0.0,0.0,0.0,-2.1799,-2.1513,-2.0746,-2.066,-2.0696,-2.0646,0.0,0.0,0.0,0.0,0.0,0.0,0.0,0.0,0.0,0.0,0.0,0.0,0.0,0.0,0.0,0.0,0.0,0.0,0.0,0.0,0.0,0.0,0.0,0.0,0.0,0.0,0.0,0.0,0.0,0.0,-2.6846,-2.729,-2.7625,-2.7625,-2.7034,-2.6669,-2.651,-2.6336,-2.5892,0.0,-2.555,-2.5175,-2.4002,-2.3233,-2.2506,-2.1815,-1.9857,-1.8362,-1.7163,-1.528,-1.3528,-1.1819,-1.0716,-0.9262,-0.7641,-0.6987,-0.6554,-0.6254,0.0,0.0,0.0,0.0,0.0,0.0,0.0,0.0,0.0,0.0,0.0,0.0,0.0,0.0,0.0,0.0,0.0,0.0,0.0,0.0,0.0,0.0,0.0,0.0,0.0,0.0,0.0,0.0,0.0,0.0,0.0,0.0,0.0,-2.5713,0.0,-2.5411,-2.5128,-2.4632,-2.4225,-2.3948,-2.3724,-2.3595,-2.3595,-2.3595,-2.3595,-2.3551,-2.3246,0.0,0.0,0.0,0.0,0.0,0.0,0.0,-2.1657,-2.1307,-2.1452,-2.1547,0.0,0.0,0.0,0.0,0.0,0.0,0.0,0.0,0.0,0.0,0.0,0.0,0.0,0.0,0.0,0.0,0.0,0.0,0.0,0.0,0.0,0.0,0.0,0.0,0.0,0.0,0.0,0.0,0.0,-2.7083,-2.6518,-2.6853,-2.6907,-2.6632,-2.6568,-2.6528,-2.6528,-2.6524,-2.6283,-2.596,-2.596,-2.5398,-2.4292,-2.3484,-2.2628,-2.1815,-2.0526,-1.9399,-1.8439,-1.6573,-1.5246,-1.4117,-1.2223,-1.0936,-0.9755,-0.7932,-0.7356,-0.7473,0.0,0.0,0.0,0.0,0.0,0.0,0.0,0.0,0.0,0.0,0.0,0.0,0.0,0.0,0.0,0.0,0.0,0.0,0.0,0.0,0.0,0.0,0.0,0.0,0.0,0.0,0.0,0.0,0.0,0.0,0.0,0.0,0.0,-2.6657,0.0,-2.5888,-2.5689,-2.4871,-2.4471,-2.4348,-2.3921,-2.3767,-2.3709,-2.3638,-2.3595,-2.3595,-2.3595,-2.3551,-2.3377,-2.2965,0.0,0.0,0.0,0.0,-2.2603,-2.2053,-2.2253,-2.2543,0.0,0.0,0.0,0.0,0.0,0.0,0.0,0.0,0.0,0.0,0.0,0.0,0.0,0.0,0.0,0.0,0.0,0.0,0.0,0.0,0.0,0.0,0.0,0.0,0.0,0.0,0.0,0.0,0.0,-2.6883,-2.6251,-2.6315,-2.6168,-2.5615,-2.6138,-2.6422,-2.6422,-2.6381,-2.6393,-2.6509,-2.5903,-2.5287,-2.4624,-2.3708,-2.2871,-2.2063,-2.1164,-2.0398,-1.9617,-1.7784,-1.6973,-1.654,-1.395,-1.2663,-1.1883,-0.9617,-0.84,-0.7915,0.0,0.0,0.0,0.0,0.0,0.0,0.0,0.0,0.0,0.0,0.0,0.0,0.0,0.0,0.0,0.0,0.0,0.0,0.0,0.0,0.0,0.0,0.0,0.0,0.0,0.0,0.0,0.0,0.0,0.0,0.0,0.0,0.0,-2.6488,0.0,0.0,-2.4617,-2.495,-2.4816,-2.4389,-2.4307,-2.4266,-2.4225,-2.3752,-2.3595,-2.3595,-2.3595,-2.3275,-2.2875,-2.3334,-2.3143,0.0,0.0,0.0,-2.2694,-2.2603,-2.2649,0.0,0.0,0.0,0.0,0.0,0.0,0.0,0.0,0.0,0.0,0.0,0.0,0.0,0.0,0.0,0.0,0.0,0.0,0.0,0.0,0.0,0.0,0.0,0.0,0.0,0.0,0.0,0.0,0.0,-2.6345,-2.6543,-2.5582,-2.6053,-2.6168,-2.5615,-2.5689,-2.5734,-2.5734,-2.5729,-2.6009,-2.6574,-2.6445,-2.6283,-2.6176,-2.4781,-2.3708,-2.2884,-2.2063,-2.169,-2.1428,-1.9672,-1.8459,-1.7591,-1.6453,-1.4458,-1.2158,-1.1749,-1.0106,-0.797,0.0,0.0,0.0,0.0,0.0,0.0,0.0,0.0,0.0,0.0,0.0,0.0,0.0,0.0,0.0,0.0,0.0,0.0,0.0,0.0,0.0,-2.3996,-2.3976,-2.3917,0.0,0.0,0.0,0.0,0.0,0.0,0.0,-2.5941,-2.6199,0.0,0.0,0.0,0.0,0.0,-2.5335,-2.4816,-2.4511,-2.4389,-2.4348,-2.3794,-2.3794,-2.3991,-2.3724,-2.3421,-2.3231,-2.3508,-2.3421,-2.3246,-2.3508,0.0,0.0,0.0,0.0,0.0,0.0,0.0,0.0,0.0,0.0,0.0,0.0,0.0,0.0,0.0,0.0,0.0,0.0,0.0,0.0,0.0,0.0,0.0,0.0,0.0,0.0,0.0,0.0,0.0,0.0,0.0,0.0,0.0,-2.6366,-2.6495,-2.5779,-2.5751,-2.5472,-2.4933,-2.4987,-2.5061,-2.5061,-2.542,-2.5749,-2.6048,-2.6396,-2.6338,-2.5911,-2.5246,-2.4509,-2.3708,-2.2433,-2.1877,-2.1815,-2.0526,-1.9465,-1.8583,-1.7687,-1.6227,-1.4458,-1.2802,-1.1409,-1.0084,0.0,0.0,0.0,0.0,0.0,0.0,0.0,0.0,0.0,0.0,0.0,0.0,0.0,0.0,0.0,0.0,0.0,0.0,0.0,0.0,0.0,-2.419,-2.419,-2.419,-2.419,0.0,0.0,0.0,0.0,0.0,-2.6465,-2.6826,-2.6946,0.0,-2.6758,0.0,0.0,0.0,0.0,-2.5182,-2.4894,-2.4736,-2.4552,0.0,-2.4282,-2.4552,-2.4158,-2.3921,-2.3837,-2.3948,-2.3921,-2.3794,-2.3794,-2.3794,0.0,0.0,0.0,0.0,0.0,0.0,0.0,0.0,0.0,0.0,0.0,0.0,0.0,0.0,0.0,0.0,0.0,0.0,0.0,0.0,0.0,0.0,0.0,0.0,0.0,0.0,0.0,0.0,0.0,0.0,0.0,0.0,-2.6505,-2.6521,-2.6049,-2.5615,-2.5144,-2.4632,-2.4706,-2.4696,-2.4564,-2.5077,-2.536,-2.536,-2.6033,-2.6075,-2.5517,-2.5477,-2.5108,-2.4509,-2.2892,-2.2187,-2.2125,-2.129,-2.0526,-1.9879,-1.8696,-1.7687,-1.6669,-1.4237,-1.2875,-1.1857,0.0,0.0,0.0,0.0,0.0,0.0,0.0,0.0,0.0,0.0,0.0,0.0,0.0,0.0,0.0,-2.4151,-2.419,-2.419,-2.419,-2.419,-2.419,-2.419,-2.419,0.0,-2.419,0.0,0.0,0.0,0.0,0.0,-2.6069,-2.7282,-2.7613,-2.7241,-2.6873,-2.6436,-2.6068,0.0,0.0,0.0,-2.5726,-2.5615,0.0,0.0,0.0,0.0,0.0,0.0,-2.443,-2.495,-2.4792,-2.4348,-2.4348,-2.4348,-2.4348,0.0,0.0,0.0,0.0,0.0,0.0,0.0,0.0,0.0,0.0,0.0,0.0,0.0,0.0,0.0,0.0,0.0,0.0,0.0,0.0,0.0,0.0,0.0,0.0,0.0,0.0,0.0,0.0,0.0,0.0,0.0,-2.6691,-2.6521,-2.6049,-2.5961,-2.5689,-2.5182,-2.5176,-2.4918,-2.441,-2.4578,-2.4627,-2.4642,-2.5345,-2.5612,-2.558,-2.5552,-2.5457,-2.5331,-2.3728,-2.3017,-2.2944,-2.2199,-2.1815,-2.1628,-1.9879,-1.8649,-1.7726,-1.6738,-1.4609,-1.2151,0.0,0.0,0.0,0.0,0.0,0.0,0.0,0.0,0.0,0.0,0.0,0.0,0.0,0.0,-2.421,-2.419,-2.419,-2.419,-2.419,-2.419,-2.419,-2.419,-2.419,-2.419,-2.419,0.0,0.0,0.0,0.0,-2.6786,-2.7169,-2.7908,-2.8139,-2.7974,-2.7098,-2.6624,-2.647,-2.6624,0.0,0.0,-2.5924,-2.5888,0.0,0.0,0.0,0.0,0.0,0.0,0.0,-2.5144,-2.5067,-2.4894,-2.4894,-2.4894,-2.4894,0.0,0.0,0.0,0.0,0.0,0.0,0.0,0.0,0.0,0.0,0.0,0.0,0.0,0.0,0.0,0.0,0.0,0.0,0.0,0.0,0.0,0.0,0.0,0.0,0.0,0.0,0.0,0.0,0.0,0.0,0.0,0.0,-2.6624,-2.647,-2.6139,-2.5924,-2.5726,-2.5373,-2.4934,-2.4389,-2.4445,-2.4286,-2.3969,-2.4984,-2.5273,-2.4955,-2.5239,-2.5165,-2.4841,-2.4191,-2.391,-2.3826,-2.2992,-2.2384,-2.1815,-2.1239,-2.0052,-1.8726,-1.7755,-1.6426,-1.4751,0.0,0.0,0.0,0.0,0.0,0.0,0.0,0.0,0.0,0.0,0.0,0.0,0.0,0.0,-2.4561,-2.4428,-2.4266,-2.4228,-2.4303,-2.4303,-2.4303,-2.4303,-2.4357,-2.441,-2.441,0.0,0.0,0.0,0.0,0.0,0.0,-2.8209,-2.8394,-2.835,-2.7361,-2.6906,0.0,0.0,0.0,-2.6013,0.0,-2.6156,-2.5977,0.0,0.0,0.0,0.0,0.0,0.0,0.0,-2.5598,-2.5449,0.0,0.0,0.0,0.0,0.0,0.0,0.0,0.0,0.0,0.0,0.0,0.0,0.0,0.0,0.0,0.0,0.0,0.0,0.0,0.0,0.0,0.0,0.0,0.0,0.0,0.0,0.0,0.0,0.0,0.0,0.0,0.0,0.0,0.0,0.0,0.0,-2.6691,-2.6401,-2.6227,-2.6227,-2.5726,-2.5221,-2.4657,-2.4511,-2.4241,-2.3879,-2.466,-2.4976,-2.4836,-2.5182,-2.5151,-2.4805,-2.4546,-2.4393,-2.4273,-2.3735,-2.3173,-2.2665,-2.2125,-2.1175,-2.0009,-1.8839,-1.7823,-1.6729,0.0,0.0,0.0,0.0,0.0,0.0,0.0,0.0,0.0,0.0,0.0,0.0,0.0,0.0,0.0,-2.4804,-2.4444,-2.4303,-2.4495,-2.4512,-2.4512,-2.4512,-2.47,-2.4804,-2.4804,0.0,0.0,0.0,0.0,0.0,0.0,0.0,-2.8446,0.0,-2.766,-2.7317,-2.7286,0.0,-2.6436,-2.6049,0.0,-2.6436,-2.6085,0.0,0.0,0.0,-2.6691,-2.6401,0.0,-2.6556,0.0,0.0,0.0,0.0,0.0,0.0,0.0,0.0,0.0,0.0,0.0,0.0,0.0,0.0,0.0,0.0,0.0,0.0,0.0,0.0,0.0,0.0,0.0,0.0,0.0,0.0,0.0,0.0,0.0,0.0,0.0,0.0,0.0,0.0,0.0,0.0,-2.6691,-2.6691,-2.6691,-2.6691,-2.6691,-2.6691,-2.6262,-2.5762,-2.5221,-2.4712,-2.443,-2.443,-2.443,-2.4697,-2.5198,-2.5352,-2.5385,-2.533,-2.4743,-2.4481,-2.4391,-2.4329,-2.4266,-2.4137,-2.2604,-2.1939,-2.169,-2.0009,-1.8783,-1.7794,0.0,0.0,0.0,0.0,0.0,0.0,0.0,0.0,0.0,0.0,0.0,0.0,0.0,0.0,0.0,-2.4804,-2.47,-2.4654,-2.4716,-2.4716,-2.4716,-2.4716,-2.4775,-2.4804,-2.4804,-2.531,0.0,0.0,0.0,0.0,0.0,0.0,0.0,0.0,-2.841,-2.8112,-2.8012,-2.7098,0.0,0.0,-2.6657,-2.6624,0.0,0.0,0.0,0.0,0.0,-2.6624,-2.6521,0.0,-2.6624,-2.6505,0.0,0.0,0.0,0.0,0.0,0.0,-2.6691,0.0,0.0,0.0,0.0,0.0,0.0,0.0,0.0,0.0,0.0,0.0,0.0,0.0,0.0,0.0,0.0,0.0,0.0,0.0,0.0,0.0,0.0,0.0,0.0,0.0,0.0,0.0,-2.6691,-2.6691,-2.6691,-2.6691,-2.6691,-2.6691,-2.659,-2.6245,-2.5762,-2.5615,-2.5373,-2.4973,-2.5373,-2.5411,-2.5182,-2.5234,-2.5035,-2.4673,-2.4597,-2.4555,-2.4553,-2.4438,-2.4065,-2.3559,-2.3645,-2.2907,-2.1815,-2.1365,-2.0246,-1.8803,0.0,0.0,0.0,0.0,0.0,0.0,0.0,0.0,0.0,0.0,0.0,0.0,0.0,0.0,0.0,0.0,-2.4888,-2.4814,-2.4877,-2.4877,-2.4877,-2.4877,-2.4962,-2.5171,-2.5546,-2.5923,0.0,0.0,0.0,0.0,0.0,0.0,0.0,0.0,0.0,0.0,0.0,0.0,0.0,0.0,-2.6791,0.0,0.0,-2.6691,-2.6691,0.0,0.0,0.0,-2.6758,-2.7083,-2.7083,0.0,0.0,0.0,0.0,0.0,0.0,0.0,0.0,0.0,0.0,0.0,0.0,0.0,-2.753,-2.7725,-2.784,0.0,0.0,0.0,0.0,0.0,0.0,0.0,0.0,0.0,0.0,0.0,0.0,0.0,0.0,0.0,0.0,-2.6691,-2.6691,-2.6691,-2.6691,-2.6691,-2.6691,-2.6691,-2.6691,-2.6691,-2.6691,-2.647,-2.5997,-2.6013,-2.5852,-2.554,-2.5852,-2.5961,-2.5819,-2.5598,-2.5373,-2.5044,-2.4906,-2.4729,-2.4502,-2.471,-2.4287,-2.3474,-2.3742,-2.316,-2.208,-2.1918,-2.1239,-2.0257,0.0,0.0,0.0,0.0,0.0,0.0,0.0,0.0,0.0,0.0,0.0,0.0,0.0,0.0,0.0,0.0,-2.5031,-2.491,-2.5022,-2.5046,-2.5038,-2.5038,-2.5321,-2.5832,-2.6612,-2.663,0.0,0.0,0.0,0.0,0.0,0.0,0.0,0.0,0.0,0.0,0.0,0.0,0.0,-2.7378,-2.6922,-2.6758,0.0,0.0,-2.6841,0.0,-2.7241,-2.7147,-2.6922,-2.7648,-2.7648,0.0,0.0,0.0,0.0,0.0,-2.6841,0.0,0.0,0.0,0.0,0.0,0.0,0.0,-2.7954,-2.7982,-2.801,-2.7964,0.0,0.0,0.0,0.0,0.0,0.0,0.0,0.0,0.0,0.0,0.0,0.0,0.0,0.0,-2.6691,-2.6691,-2.6691,-2.6691,-2.6691,-2.6691,-2.6691,-2.6691,-2.6691,-2.6691,-2.6691,-2.6505,-2.6085,-2.6085,-2.6085,-2.6085,-2.6085,-2.6297,-2.6691,-2.6227,-2.6013,-2.5961,-2.5411,-2.4934,-2.4517,-2.5071,-2.4624,-2.3547,-2.3393,-2.295,-2.2359,-2.2056,-2.1954,-2.1815,0.0,0.0,0.0,0.0,0.0,0.0,0.0,0.0,0.0,0.0,0.0,0.0,0.0,0.0,0.0,0.0,0.0,-2.5203,-2.5253,-2.5301,-2.5332,-2.5324,-2.6068,-2.6584,-2.6759,-2.7981,0.0,0.0,0.0,0.0,0.0,0.0,0.0,0.0,0.0,0.0,0.0,0.0,0.0,-2.8139,-2.7452,0.0,-2.721,-2.753,-2.7666,-2.7695,-2.7736,-2.7725,-2.7678,-2.784,-2.784,-2.7765,0.0,0.0,0.0,0.0,0.0,0.0,0.0,0.0,0.0,0.0,0.0,0.0,-2.8298,-2.854,-2.87,0.0,0.0,0.0,0.0,0.0,0.0,0.0,0.0,0.0,0.0,0.0,0.0,0.0,0.0,0.0,-2.6691,-2.6691,-2.6691,-2.6691,-2.6691,-2.6691,-2.6691,-2.6691,-2.6691,-2.6691,-2.6691,-2.6657,-2.6539,-2.6539,-2.6539,-2.6539,-2.6539,-2.6624,-2.6691,-2.6227,-2.6013,-2.5961,-2.5411,-2.5144,-2.5028,-2.4733,-2.4162,-2.3538,-2.352,-2.3366,-2.3015,-2.2468,-2.2079,-2.1877,0.0,0.0,0.0,0.0,0.0,0.0,0.0,0.0,0.0,0.0,0.0,0.0,0.0,0.0,0.0,0.0,0.0,0.0,0.0,0.0,-2.6713,-2.6747,-2.7195,-2.7644,-2.8087,-2.8884,-2.9427,0.0,0.0,0.0,0.0,0.0,0.0,0.0,0.0,0.0,0.0,0.0,-2.8394,-2.835,-2.7823,0.0,-2.7619,-2.7823,-2.7897,-2.7926,-2.8075,-2.8281,-2.843,-2.8228,-2.8156,0.0,0.0,-2.802,-2.7897,0.0,-2.7897,-2.7954,0.0,0.0,0.0,-2.8404,0.0,0.0,0.0,-2.8863,-2.8952,-2.8749,-2.8682,0.0,0.0,0.0,0.0,0.0,0.0,0.0,0.0,0.0,0.0,0.0,0.0,0.0,-2.7303,-2.7303,-2.7303,-2.7303,-2.7303,-2.7303,-2.7303,-2.7115,-2.6987,-2.6987,-2.6808,-2.6691,-2.6691,-2.6691,-2.6691,-2.6691,-2.6691,-2.6691,-2.6691,-2.647,-2.6367,-2.6332,-2.6052,-2.5835,-2.5577,-2.5028,-2.4477,-2.3911,-2.3655,-2.3299,-2.2924,-2.2483,-2.2439,-2.2543,0.0,0.0,0.0,0.0,0.0,0.0,0.0,0.0,0.0,0.0,0.0,0.0,0.0,0.0,0.0,0.0,0.0,0.0,0.0,0.0,0.0,-2.8111,-2.8299,-2.8727,-2.9425,-2.9586,-2.9938,0.0,0.0,0.0,0.0,0.0,0.0,0.0,0.0,0.0,0.0,0.0,0.0,-2.8489,0.0,-2.8065,-2.7992,-2.8093,-2.812,-2.8147,-2.8438,-2.8707,-2.8952,-2.8633,-2.8515,-2.8515,-2.8515,-2.8316,0.0,0.0,0.0,0.0,0.0,0.0,0.0,0.0,0.0,-2.8994,0.0,0.0,0.0,-2.8994,0.0,0.0,0.0,0.0,0.0,0.0,0.0,0.0,0.0,0.0,0.0,0.0,0.0,0.0,-2.7897,-2.7897,-2.7897,-2.7897,-2.7897,-2.7897,-2.7897,-2.75,-2.7303,-2.7303,-2.6906,-2.6691,-2.6691,-2.6791,-2.6825,-2.6825,-2.6906,-2.6906,-2.6825,-2.6825,-2.6774,-2.6691,-2.6691,-2.647,-2.6068,-2.5561,-2.5105,-2.4639,-2.3671,-2.3087,-2.2754,-2.2535,-2.2722,-2.307,-2.5498,-2.5503,0.0,0.0,0.0,0.0,0.0,0.0,0.0,0.0,0.0,0.0,0.0,0.0,0.0,0.0,0.0,0.0,-2.8097,0.0,0.0,0.0,-2.8998,-2.9471,-2.9589,-3.0216,-3.059,-3.068,0.0,0.0,0.0,0.0,0.0,0.0,-2.9954,0.0,0.0,0.0,-2.9141,0.0,-2.8881,-2.8658,0.0,-2.8749,-2.8881,-2.8881,-2.8929,-2.8952,-2.8994,0.0,-2.8929,-2.8929,0.0,-2.8905,-2.8881,0.0,0.0,0.0,0.0,0.0,0.0,0.0,-2.8994,0.0,0.0,0.0,-2.8994,-2.8994,0.0,0.0,0.0,0.0,0.0,0.0,0.0,0.0,0.0,0.0,0.0,0.0,0.0,0.0,0.0,-2.7897,-2.7897,-2.7897,-2.7897,-2.7897,-2.7897,-2.75,-2.7303,-2.7303,-2.6906,-2.6691,-2.6691,-2.7051,-2.7241,-2.7241,-2.7589,-2.7577,-2.7241,-2.7241,-2.7036,-2.6691,-2.6691,-2.6657,-2.6573,-2.6104,-2.5888,-2.5615,-2.3595,-2.3048,-2.3345,-2.2768,-2.2533,-2.2587,0.0,0.0,0.0,0.0,0.0,0.0,0.0,0.0,0.0,0.0,0.0,0.0,0.0,0.0,0.0,0.0,0.0,-2.9093,0.0,0.0,0.0,0.0,0.0,0.0,-3.0351,-3.0662,-3.0771,-3.0696,-3.0592,0.0,0.0,0.0,0.0,0.0,-3.0075,0.0,-2.9729,0.0,0.0,0.0,0.0,0.0,0.0,-2.898,-2.9089,-2.9225,-2.9225,-2.9312,-2.9416,0.0,-2.9314,0.0,0.0,0.0,0.0,0.0,0.0,0.0,0.0,0.0,0.0,0.0,0.0,0.0,-2.904,0.0,-2.8994,0.0,0.0,0.0,0.0,0.0,0.0,0.0,-2.8796,0.0,0.0,0.0,0.0,0.0,0.0,0.0,0.0,0.0,0.0,0.0,-2.8551,-2.8551,-2.8551,-2.8156,-2.7946,-2.7946,-2.7589,-2.7396,-2.7396,-2.756,-2.7648,-2.7648,-2.7811,-2.7678,-2.7303,-2.7303,-2.7083,-2.6691,-2.6691,-2.6691,-2.6657,-2.6191,-2.6013,-2.5888,-2.4625,-2.4112,-2.3939,-2.333,-2.3098,-2.2963,0.0,0.0,0.0,0.0,0.0,0.0,0.0,0.0,0.0,0.0,0.0,0.0,-2.8154,-2.8446,0.0,0.0,-2.9692,-3.0127,0.0,0.0,-3.0793,0.0,0.0,0.0,0.0,-3.0898,-3.0857,-3.0747,-3.0665,0.0,0.0,0.0,0.0,0.0,0.0,-3.0075,-2.9984,0.0,0.0,-2.9474,-2.9474,-2.9474,-2.9455,-2.927,-2.9293,-2.9474,-2.9474,-2.957,-2.9696,-2.9696,-2.9607,0.0,-2.9643,0.0,0.0,0.0,0.0,0.0,-2.9115,0.0,0.0,0.0,0.0,0.0,0.0,0.0,0.0,0.0,0.0,0.0,0.0,0.0,0.0,0.0,0.0,0.0,0.0,0.0,0.0,0.0,0.0,0.0,0.0,0.0,0.0,-2.8994,-2.8994,-2.8994,-2.8994,-2.8633,-2.8394,-2.8394,-2.8075,-2.7897,-2.7897,-2.7992,-2.802,-2.802,-2.8147,-2.7992,-2.7601,-2.7601,-2.7391,-2.7019,-2.7019,-2.7019,-2.6987,-2.6657,-2.6522,-2.6488,-2.5966,-2.5459,-2.487,-2.4039,-2.3644,-2.3371,-2.5293,-2.5354,0.0,0.0,0.0,0.0,0.0,0.0,0.0,0.0,0.0,0.0,0.0,0.0,0.0,0.0,0.0,-3.0879,-3.0898,0.0,-3.0898,0.0,0.0,-3.0898,0.0,0.0,-3.0898,-3.0898,-3.0767,-3.0693,0.0,0.0,0.0,0.0,0.0,-3.0254,-2.9999,-2.9984,-2.9877,-2.9696,-2.9696,-2.9696,-2.9696,0.0,-2.9678,-2.9696,-2.9696,0.0,0.0,-2.9696,-2.9696,0.0,0.0,0.0,0.0,0.0,0.0,0.0,0.0,0.0,0.0,-2.9115,0.0,0.0,0.0,0.0,-2.9678,0.0,0.0,0.0,0.0,0.0,0.0,0.0,0.0,0.0,0.0,0.0,0.0,0.0,0.0,0.0,0.0,0.0,-2.8994,-2.8994,-2.8994,-2.8994,-2.8994,-2.8633,-2.8394,-2.8394,-2.8075,-2.7897,-2.7897,-2.8237,-2.8376,-2.8394,-2.8773,-2.8749,-2.835,-2.835,-2.8183,-2.7869,-2.7869,-2.7869,-2.7869,-2.784,-2.784,-2.7794,-2.7378,-2.6901,-2.6252,-2.4886,-2.4002,-2.3494,0.0,0.0,0.0,0.0,0.0,0.0,0.0,-2.7233,0.0,0.0,0.0,0.0,0.0,-3.0273,-3.0469,0.0,0.0,-3.0898,-3.0898,-3.0898,0.0,0.0,0.0,-3.0898,0.0,0.0,-3.0898,-3.0898,-3.0769,-3.0696,0.0,0.0,0.0,0.0,0.0,-3.0355,0.0,0.0,0.0,0.0,0.0,-3.0003,-3.0128,0.0,0.0,-2.9908,-2.9908,-3.0003,0.0,-3.0155,-3.0052,-2.9924,-3.0114,-2.9962,-2.9731,-2.9861,-2.9796,0.0,0.0,0.0,-2.9829,-2.9533,0.0,0.0,0.0,0.0,0.0,0.0,0.0,0.0,0.0,0.0,0.0,0.0,0.0,0.0,0.0,0.0,0.0,0.0,0.0,0.0,0.0,0.0,0.0,-2.8994,-2.8994,-2.8994,-2.8994,-2.8863,-2.8815,-2.8815,-2.8676,-2.8626,-2.8626,-2.8749,-2.8815,-2.8797,-2.8929,-2.8773,-2.8394,-2.8394,-2.821,-2.7897,-2.7897,-2.7897,-2.7897,-2.7897,-2.7897,-2.7869,-2.7457,-2.7175,-2.6869,-2.5438,-2.4576,-2.4036,-2.6041,0.0,0.0,0.0,0.0,0.0,0.0,0.0,0.0,0.0,-2.9801,0.0,-3.082,0.0,-3.0898,0.0,-3.0898,-3.0898,-3.0898,-3.0898,0.0,-3.0898,-3.0898,0.0,0.0,0.0,0.0,-3.0898,-3.0816,-3.0771,0.0,0.0,0.0,0.0,0.0,0.0,-3.0398,0.0,-3.0136,0.0,0.0,-3.0254,0.0,0.0,-3.0037,-3.0136,0.0,-3.0254,-3.0398,-3.0398,-3.0299,-3.0163,-3.0355,-3.0202,-2.9958,-3.0109,-3.0052,-2.9927,-2.9829,-2.9973,0.0,-2.9763,-2.9927,0.0,-2.9861,0.0,0.0,0.0,0.0,0.0,0.0,0.0,0.0,0.0,0.0,0.0,0.0,-2.9962,0.0,0.0,0.0,0.0,0.0,0.0,-2.916,-2.923,-2.9093,-2.9067,0.0,0.0,-2.9089,-2.923,-2.9089,-2.9062,-2.9156,-2.9062,-2.8994,-2.8994,-2.8994,-2.8863,-2.8615,-2.8615,-2.8507,-2.8281,-2.8281,-2.8281,-2.8281,-2.8281,-2.8281,-2.8228,-2.7707,-2.75,-2.733,-2.5966,-2.5012,-2.4287,0.0,0.0,0.0,0.0,-2.7569,0.0,0.0,0.0,-2.941,0.0,-3.0222,-3.0743,-3.0878,-3.0898,-3.0898,-3.0898,-3.0898,-3.0898,-3.0898,-3.0898,0.0,0.0,-3.0898,-3.0898,-3.0898,0.0,0.0,-3.0898,-3.0898,-3.0898,-3.0898,0.0,0.0,0.0,-3.0529,0.0,-3.0402,-3.041,-3.0398,-3.0398,-3.0398,-3.0398,-3.0398,-3.0398,-3.0398,-3.0398,-3.0398,-3.0398,-3.0398,-3.0398,-3.0398,-3.0398,-3.0398,-3.0398,-3.0398,-3.0398,-3.0398,-3.0336,-3.0089,-3.0209,-3.0286,-2.9864,0.0,0.0,0.0,0.0,-3.0402,0.0,0.0,0.0,0.0,0.0,0.0,0.0,0.0,0.0,0.0,0.0,0.0,0.0,0.0,0.0,0.0,-2.9532,-2.9494,-2.9678,-2.9293,-2.9228,0.0,0.0,-2.9249,-2.9696,-2.9272,-2.9138,-2.9392,-2.9156,-2.9021,-2.9017,-2.9021,-2.9021,-2.9021,-2.9021,-2.9021,-2.9021,-2.9021,-2.9017,-2.9017,-2.9017,-2.8994,-2.8929,-2.8201,-2.7897,-2.7707,-2.6454,-2.5335,-2.4266,-2.7274,-2.7918,-2.8479,0.0,-2.8675,-2.8868,0.0,0.0,0.0,0.0,-3.0497,-3.0638,-3.0676,-3.0676,-3.0676,-3.0676,-3.0676,0.0,0.0,0.0,0.0,-3.0676,-3.0676,-3.0676,-3.0676,-3.0732,0.0,-3.0747,-3.0857,-3.0898,-3.0898,0.0,0.0,0.0,0.0,0.0,-3.0545,-3.0441,-3.0398,-3.0398,-3.0398,-3.0398,0.0,0.0,-3.0398,-3.0398,-3.0398,-3.0398,-3.0398,-3.0398,-3.0398,-3.0398,-3.0398,-3.0398,-3.0398,-3.0398,-3.0398,-3.0379,-3.0311,-3.0355,-3.0371,-3.0321,-3.0384,-3.0472,0.0,0.0,0.0,0.0,0.0,0.0,0.0,0.0,0.0,0.0,0.0,0.0,0.0,0.0,0.0,-3.0311,0.0,0.0,-2.9731,-2.9643,-2.9643,-2.9696,-2.9588,-2.957,-2.9696,0.0,0.0,-2.9696,-2.9588,-2.9475,-2.9412,-2.9475,-2.9455,-2.931,-2.9436,-2.9514,-2.9514,-2.9514,-2.9514,-2.9514,-2.9373,-2.9289,-2.9289,-2.9089,-2.8994,-2.8952,-2.8464,-2.7946,-2.7348,-2.6368,-2.5335,-2.4348,-2.825,0.0,0.0,-2.9648,0.0,0.0,-2.9728,0.0,0.0,-3.0552,-3.0567,0.0,-3.06,-3.0606,-3.0606,-3.0606,-3.0606,0.0,-3.0606,0.0,0.0,-3.0606,-3.0606,-3.0606,-3.0606,-3.0643,0.0,-3.0696,0.0,0.0,-3.0898,0.0,0.0,0.0,0.0,-3.0575,0.0,-3.0472,-3.0441,-3.0451,-3.0492,0.0,0.0,-3.0491,-3.0491,-3.0482,-3.0452,-3.0428,-3.0398,-3.0398,-3.0398,-3.0398,-3.0398,-3.0398,-3.0421,-3.0449,-3.0417,-3.0414,-3.0482,-3.0472,-3.0462,-3.0521,-3.0533,-3.0547,-3.0594,-3.0606,-3.0606,0.0,0.0,0.0,0.0,0.0,0.0,0.0,0.0,0.0,0.0,0.0,0.0,0.0,-3.0398,0.0,-3.0022,-2.9912,-2.9896,-2.9992,-2.9815,-2.9799,0.0,0.0,0.0,-3.0007,-2.9815,-2.9696,-2.9661,-2.9696,-2.9643,-2.9532,-2.9662,-2.9696,-2.9696,-2.9696,-2.9696,-2.9696,-2.957,-2.9532,-2.9532,-2.9375,-2.9314,-2.9254,-2.8777,-2.8157,-2.75,-2.7,-2.6092,-2.5067,0.0,0.0,0.0,0.0,0.0,0.0,0.0,-3.0398,0.0,-3.0482,0.0,-3.0554,-3.0736,-3.0646,-3.0626,-3.0723,0.0,-3.0568,-3.0568,-3.0568,-3.0568,-3.0568,-3.0568,-3.0568,-3.0568,-3.0581,-3.0628,0.0,0.0,0.0,0.0,0.0,0.0,0.0,0.0,0.0,0.0,-3.0521,-3.0513,-3.0513,-3.0575,-3.0606,-3.0606,-3.0606,-3.0606,-3.0594,-3.0537,-3.0472,-3.0417,-3.0425,-3.0425,-3.0428,-3.0428,-3.0428,-3.043,-3.049,-3.0463,-3.0462,-3.0561,-3.0567,-3.0529,-3.06,-3.0617,-3.0623,-3.0633,-3.0633,-3.0633,-3.0633,-3.0633,-3.0628,0.0,0.0,0.0,0.0,0.0,0.0,0.0,0.0,0.0,0.0,0.0,0.0,-3.0414,-3.019,-3.015,-3.0379,-3.0022,-2.9977,0.0,0.0,0.0,-3.0398,-3.0018,-2.9858,-2.9999,0.0,-2.9794,-2.9748,-2.9777,-2.9796,-2.9799,-2.9799,-2.9799,-2.9799,-2.9746,-2.9748,-2.9748,-2.9713,-2.9696,-2.9642,-2.9122,-2.8579,-2.8066,-2.8029,-2.7278,-2.6214,0.0,0.0,0.0,0.0,0.0,-3.0398,-3.0398,-3.0398,-3.039,-3.0425,-3.0425,-3.0706,-3.1422,-3.0863,-3.0709,-3.1452,-3.0844,0.0,0.0,0.0,0.0,-3.0439,-3.0439,-3.0439,-3.0439,-3.05,-3.054,0.0,0.0,0.0,0.0,0.0,0.0,0.0,0.0,0.0,-3.0587,-3.0633,0.0,-3.0581,-3.06,-3.0606,-3.0606,-3.0606,-3.0606,-3.06,-3.0587,-3.0575,-3.0567,-3.0498,-3.0513,-3.0561,-3.0561,-3.0561,-3.0561,-3.0581,-3.0575,-3.0568,-3.0594,-3.0594,-3.0606,-3.0669,-3.0684,-3.0713,-3.0814,-3.0856,-3.0856,-3.0856,-3.0856,-3.0813,-3.071,0.0,0.0,0.0,0.0,0.0,0.0,0.0,0.0,0.0,0.0,-3.0491,0.0,-3.0398,-3.0355,-3.0398,-3.0311,-3.0299,0.0,0.0,0.0,0.0,-3.0362,0.0,0.0,0.0,-3.0278,-2.9954,-3.0225,-3.034,-3.0273,-3.0273,-3.0273,-3.0273,-3.0047,-2.9954,-2.9939,-2.9763,-2.9696,-2.9696,-2.9569,-2.9286,-2.8883,-2.8709,-2.8283,-2.7677,0.0,0.0,0.0,0.0,0.0,0.0,0.0,-3.1083,-3.1083,-3.1083,-3.1083,-3.1391,-3.2237,-3.1948,-3.1872,-3.2295,-3.1948,-3.1525,-3.1102,-3.1083,-3.0871,-3.0417,-3.0398,0.0,-3.0398,-3.0439,-3.0482,-3.0559,0.0,0.0,0.0,0.0,0.0,0.0,0.0,-3.0684,0.0,0.0,0.0,-3.0661,-3.0726,-3.0755,-3.0755,-3.0755,-3.0755,-3.0752,-3.0689,-3.0696,-3.0726,-3.0607,-3.0568,-3.0606,-3.0606,-3.0606,-3.0611,-3.0648,-3.0633,-3.0623,-3.0723,-3.07,-3.0673,-3.0788,-3.0795,-3.0816,-3.0898,-3.0898,-3.0898,-3.0898,-3.0898,-3.0858,-3.0721,-3.0677,0.0,0.0,0.0,0.0,0.0,0.0,0.0,0.0,0.0,0.0,0.0,0.0,0.0,0.0,0.0,0.0,0.0,0.0,0.0,0.0,0.0,0.0,0.0,0.0,0.0,-3.0267,-3.0468,-3.0524,-3.0442,-3.0442,-3.0442,-3.0432,-3.0285,-3.0209,-3.0196,-3.0095,-2.9973,-2.9861,-2.9861,-2.9672,-2.9383,-2.9198,-2.886,-2.8384,0.0,-2.9607,0.0,0.0,-3.0423,0.0,-3.1821,-3.1968,-3.1968,-3.1968,-3.1968,-3.2275,-3.3083,-3.3006,-3.2968,-3.316,-3.3006,-3.2622,-3.2006,-3.1968,-3.1564,-3.0717,-3.0679,-3.059,-3.0398,-3.0398,-3.0419,0.0,0.0,0.0,0.0,0.0,0.0,0.0,0.0,0.0,0.0,0.0,-3.0745,-3.0747,-3.0858,-3.0898,-3.0898,-3.0898,-3.0898,-3.0898,-3.0771,-3.0814,-3.0878,-3.0716,-3.0667,-3.0667,-3.0667,-3.0667,-3.0676,-3.0735,-3.0703,-3.0708,-3.0857,-3.0817,-3.0769,-3.0878,-3.0898,-3.0898,-3.0898,-3.0898,-3.0898,-3.0898,-3.0898,-3.0878,-3.0769,-3.0745,0.0,0.0,0.0,0.0,0.0,0.0,0.0,0.0,0.0,0.0,-3.0628,0.0,0.0,0.0,0.0,0.0,-3.0594,0.0,0.0,0.0,0.0,-3.0611,-3.0581,0.0,-3.0625,-3.0521,-3.0594,-3.0587,-3.0513,-3.0513,-3.0513,-3.0513,-3.0472,-3.0441,-3.0441,-3.0428,-3.0309,-3.0106,-3.0084,-2.9988,-2.9815,-2.957,-2.9258,-2.8905,0.0,0.0,0.0,0.0,0.0,0.0,-3.2635,-3.2795,-3.2795,-3.2795,-3.2795,-3.3122,-3.3968,-3.3372,-3.3218,-3.4007,-3.3353,-3.2872,-3.2795,-3.2795,-3.2429,-3.1621,-3.1583,-3.1218,-3.0417,-3.0398,-3.0419,0.0,0.0,-3.0545,0.0,0.0,0.0,0.0,0.0,0.0,0.0,-3.0879,-3.0879,-3.0879,-3.0898,-3.0898,-3.0898,-3.0898,-3.0898,-3.0898,-3.0898,-3.0898,-3.0898,-3.0878,-3.0878,-3.0878,-3.0878,-3.0878,-3.0878,-3.0879,-3.0878,-3.0878,-3.0898,-3.0898,-3.0879,-3.0898,-3.0898,-3.0898,-3.0898,-3.0898,-3.0898,-3.0898,-3.0898,-3.0898,-3.0879,-3.0879,-3.0879,0.0,0.0,0.0,0.0,0.0,0.0,0.0,0.0,0.0,0.0,-3.0638,0.0,0.0,-3.0561,0.0,0.0,0.0,0.0,-3.0516,0.0,-3.0624,-3.0516,-3.0746,-3.078,-3.0594,-3.0665,-3.0661,-3.0594,-3.0594,-3.0594,-3.0594,-3.0581,-3.0581,-3.0575,-3.0524,-3.0481,-3.0453,-3.0375,-3.0355,-3.0286,-2.9832,-2.9661,-2.9551,0.0,0.0,0.0,0.0,0.0,0.0,0.0,-3.3436,-3.3691,-3.4378,-3.4007,-3.4007,-3.4891,-3.468,-3.4603,-3.4949,-3.4661,-3.4237,-3.3699,-3.368,-3.3295,-3.2468,-3.1968,-3.1545,-3.1198,-3.0679,-3.0414,0.0,0.0,0.0,0.0,0.0,0.0,0.0,0.0,-3.0735,-3.0771,-3.0771,-3.0836,-3.0898,-3.0898,-3.0898,-3.0898,-3.0898,-3.0898,-3.0898,-3.0898,-3.0898,-3.0898,-3.0898,-3.0898,-3.0898,-3.0898,-3.0898,-3.0898,-3.0898,-3.0898,-3.0898,-3.0898,-3.0898,-3.0898,-3.0898,-3.0898,-3.0879,-3.0793,-3.0837,-3.0879,-3.0793,-3.0771,-3.0767,-3.0723,-3.0719,-3.0719,0.0,0.0,0.0,0.0,0.0,0.0,0.0,0.0,0.0,0.0,0.0,0.0,0.0,0.0,0.0,0.0,0.0,0.0,-3.0739,0.0,-3.0788,-3.0739,-3.0855,-3.0814,-3.0665,-3.0681,-3.0663,-3.0606,-3.0562,-3.0535,-3.0548,-3.0584,-3.0606,-3.06,-3.0568,-3.0554,-3.0547,-3.0491,-3.0462,-3.0413,-3.0009,-2.9877,-2.9777,-3.1384,0.0,-3.1778,0.0,-3.2262,-3.2749,-3.39,-3.4068,-3.4382,-3.5277,-3.4846,-3.474,-3.5416,-3.5493,-3.5493,-3.5493,-3.5493,-3.5238,-3.4622,-3.4584,-3.418,-3.3314,-3.2487,0.0,-3.1718,-3.0852,-3.0398,-3.0398,-3.0398,0.0,0.0,0.0,0.0,0.0,-3.0606,-3.0633,-3.0673,-3.0673,-3.0732,-3.081,-3.081,-3.081,-3.0811,-3.0836,-3.0835,-3.0811,-3.0836,-3.0835,-3.0811,-3.0836,-3.0837,-3.0857,-3.0898,-3.0898,-3.0898,-3.0898,-3.0898,-3.0898,-3.0898,-3.0898,-3.0898,-3.0857,-3.0837,-3.0814,-3.0707,-3.0738,-3.0786,-3.068,-3.0673,-3.0661,-3.0611,-3.0606,-3.0606,-3.0606,0.0,0.0,0.0,0.0,0.0,0.0,-3.0638,-3.0638,-3.0638,-3.0623,0.0,0.0,0.0,0.0,0.0,0.0,0.0,0.0,0.0,0.0,-3.0837,-3.0879,-3.0857,-3.0769,-3.076,-3.0714,-3.0622,-3.0557,-3.0528,-3.0527,-3.0575,-3.0604,-3.0604,-3.0599,-3.0603,-3.0598,-3.0561,-3.0529,-3.0485,-3.0177,-3.0046,-2.9956,-3.1384,-3.1384,-3.1746,-3.2794,-3.2989,-3.3381,-3.4521,-3.4694,-3.4793,-3.507,-3.5105,-3.5187,-3.546,-3.5493,-3.5493,-3.5493,-3.5493,-3.5507,-3.5474,-3.5488,-3.5103,0.0,0.0,-3.2506,-3.1718,-3.0852,-3.0398,-3.0398,0.0,0.0,-3.041,0.0,-3.0537,-3.0606,-3.0606,-3.0606,-3.0606,-3.0606,-3.0606,-3.0606,-3.0606,-3.0606,-3.0617,-3.068,-3.0665,-3.0617,-3.068,-3.0665,-3.0617,-3.068,-3.0696,-3.0721,-3.0858,-3.0898,-3.0898,-3.0898,-3.0898,-3.0898,-3.0898,-3.0898,-3.0878,-3.0743,-3.0696,-3.0684,-3.0623,-3.0606,-3.0606,-3.0606,-3.0606,-3.0606,-3.0606,-3.0606,-3.0606,-3.0606,0.0,0.0,0.0,0.0,0.0,0.0,-3.0693,-3.0693,-3.0693,-3.0696,0.0,0.0,0.0,0.0,0.0,0.0,0.0,-3.0605,-3.0801,0.0,-3.0696,-3.0837,-3.0898,-3.0898,-3.0898,-3.0836,-3.0693,-3.0638,-3.0606,-3.0606,-3.0611,-3.0611,-3.0603,-3.0597,-3.0605,-3.0605,-3.0598,-3.06,-3.0562,-3.0307,-3.0198,-3.0151,-3.3036,-3.3036,-3.3136,-3.3504,-3.3541,-3.3741,-3.4274,-3.4357,-3.4467,-3.4793,-3.4832,-3.487,-3.4944,-3.5289,-3.5493,0.0,-3.5493,-3.5493,0.0,-3.5493,-3.5391,-3.5103,-3.4257,-3.3391,-3.2545,-3.1718,-3.1006,-3.0398,0.0,0.0,0.0,-3.0417,-3.0441,-3.0462,-3.0462,-3.0491,-3.0568,-3.1169,-3.1441,-3.1534,-3.213,-3.2364,-3.2312,-3.1732,-3.1499,-3.1417,-3.0842,-3.0623,-3.0606,-3.0614,-3.0619,-3.0643,-3.0681,-3.0784,-3.0898,-3.0898,-3.0898,-3.0898,-3.0898,-3.0898,-3.0878,-3.0723,-3.0696,-3.0677,-3.0554,-3.0529,-3.0529,-3.0529,-3.0529,-3.0524,-3.0463,-3.0462,-3.0462,-3.0462,-3.0451,0.0,0.0,0.0,0.0,0.0,-3.0509,-3.0509,-3.0509,-3.0537,0.0,0.0,0.0,0.0,0.0,0.0,0.0,0.0,-3.0669,0.0,-3.0632,-3.0677,-3.0708,-3.0685,-3.0647,-3.0574,-3.0509,-3.0513,-3.0529,-3.0537,-3.0581,-3.0606,-3.0606,-3.0594,-3.0607,-3.0595,-3.0542,-3.0565,-3.0589,-3.0453,-3.0419,-3.0427,-3.3807,-3.3807,-3.3807,-3.3807,-3.3807,-3.3868,-3.4018,-3.4043,-3.4147,-3.4486,-3.4508,-3.4551,-3.4674,-3.4999,0.0,-3.5354,-3.5354,-3.5383,-3.5493,-3.5493,-3.5493,-3.5493,-3.4661,-3.3949,-3.3391,-3.2583,0.0,-3.0891,-3.0891,-3.0891,-3.0891,-3.1198,-3.1352,-3.1352,-3.1352,-3.1361,-3.1428,-3.1969,-3.2251,-3.2316,-3.2869,-3.3082,-3.3033,-3.2512,-3.231,-3.2161,-3.1355,-3.1037,-3.0967,-3.0656,-3.0554,-3.0561,-3.0594,-3.0681,-3.0784,-3.0784,-3.0784,-3.0784,-3.0784,-3.0784,-3.0757,-3.0652,-3.0614,-3.0606,-3.0491,-3.0462,-3.0462,-3.0462,-3.0462,-3.0462,-3.0402,-3.0398,-3.0398,-3.0398,-3.0398,-3.0398,-3.0398,0.0,0.0,0.0,0.0,0.0,0.0,-3.0472,-3.0507,0.0,0.0,0.0,0.0,0.0,0.0,-3.0561,-3.0587,-3.0606,-3.0606,-3.0606,-3.0606,-3.0606,-3.0529,-3.0482,-3.043,-3.0452,-3.0462,-3.0453,-3.0507,-3.0513,-3.0521,-3.054,-3.0554,-3.0568,-3.0546,-3.057,-3.0591,-3.0527,-3.0533,-3.0568,-3.3972,-3.3972,-3.3972,0.0,-3.3972,-3.3954,-3.3899,-3.388,-3.3931,-3.4147,-3.4152,-3.4288,-3.4612,-3.4632,-3.4754,-3.5016,0.0,0.0,0.0,-3.5446,-3.5446,-3.5446,-3.4691,-3.4224,-3.4166,-3.341,-3.2583,-3.1775,-3.1775,-3.1775,-3.1795,-3.2545,-3.2891,-3.2891,-3.2891,-3.2891,-3.2891,-3.2968,-3.2987,-3.3006,-3.3064,-3.3083,-3.3077,-3.307,-3.3048,-3.2897,-3.2144,-3.1832,-3.1665,-3.0849,-3.0586,-3.0585,-3.0581,-3.0587,-3.0587,-3.06,-3.0606,-3.0606,-3.0606,-3.0606,-3.0587,-3.0524,-3.0498,-3.0472,-3.0414,-3.0398,-3.0398,-3.0398,-3.0398,-3.0398,-3.0398,-3.0398,-3.0398,-3.0398,-3.0398,-3.0398,-3.0398,0.0,0.0,0.0,0.0,0.0,-3.049,-3.049,-3.0463,0.0,0.0,0.0,0.0,0.0,-3.0638,-3.0498,-3.0547,-3.0587,-3.0587,-3.0587,-3.0587,-3.0587,-3.0521,-3.049,-3.0481,-3.0398,-3.0367,-3.0367,-3.0355,-3.0355,-3.0379,-3.0443,-3.0481,-3.0498,-3.0554,-3.0587,-3.0586,-3.0513,-3.0533,-3.0586,0.0,0.0,-3.5716,-3.5716,-3.5716,-3.5477,-3.4835,-3.4715,-3.4532,-3.3968,-3.3902,-3.3928,-3.4005,-3.4005,-3.4117,-3.4383,-3.4655,-3.4813,-3.4889,-3.4889,-3.4889,-3.4889,-3.4897,-3.4595,-3.3907,-3.3882,-3.3468,-3.2622,-3.2622,-3.2622,-3.2622,-3.2814,-3.2891,-3.2891,-3.2891,-3.2891,-3.2949,-3.3603,-3.3891,-3.3949,-3.4622,-3.4891,-3.4814,-3.4161,-3.391,-3.3789,-3.294,-3.2639,-3.2487,-3.1677,-3.143,-3.1295,-3.0653,-3.0451,-3.0472,-3.0568,-3.0606,-3.0606,-3.0606,-3.0606,-3.0587,-3.0524,-3.0462,-3.0406,-3.039,-3.0398,-3.0398,-3.0398,-3.0398,-3.0398,-3.0398,-3.0398,-3.0398,-3.0398,-3.0398,-3.0398,-3.0398,-3.0398,0.0,0.0,-3.0417,-3.0417,-3.0417,-3.0417,-3.043,0.0,0.0,0.0,0.0,-3.0513,-3.0516,-3.0428,-3.043,-3.0451,-3.0451,-3.0451,-3.0451,-3.0451,-3.0439,-3.0417,-3.0417,-3.019,-3.0089,-3.0089,-2.9927,-2.9958,-3.0089,-3.0106,-3.0234,-3.0428,-3.0441,-3.0472,-3.0521,-3.0506,-3.0535,-3.0611,-3.6303,-3.6303,-3.6303,-3.6303,-3.6303,-3.6138,-3.5679,-3.5605,-3.544,-3.5,-3.4945,-3.4798,-3.4394,-3.4357,-3.4273,-3.403,-3.4307,-3.4529,-3.4694,-3.4694,-3.4694,-3.4694,-3.4851,-3.4698,-3.4224,-3.4346,-3.3996,-3.3122,-3.3122,-3.3184,-3.3327,-3.3714,-3.3983,-3.4083,-3.4083,-3.4083,-3.4122,-3.4584,-3.4795,-3.4834,-3.5315,-3.5493,-3.5449,-3.4968,-3.4795,-3.468,-3.3814,-3.3487,-3.3314,-3.2102,-3.1698,-3.1545,-3.0679,-3.0398,-3.0414,-3.0491,-3.0507,-3.0507,-3.0507,-3.0507,-3.0498,-3.0462,-3.0428,-3.0398,-3.0398,-3.0398,-3.0398,-3.0398,-3.0398,-3.0398,-3.0398,-3.0398,-3.0398,-3.0398,-3.0398,-3.0398,-3.0398,-3.0398,-3.0398,-3.0398,-3.0398,-3.0398,-3.0398,-3.0398,-3.0425,-3.0442,-3.0452,0.0,-3.0452,-3.0452,-3.0378,-3.0222,-3.0209,-3.0169,-3.0085,-3.0085,-3.0085,-3.0085,-3.0085,-3.0085,-3.0085,-2.9943,-2.9861,-2.9861,-2.9765,-2.9746,-2.9861,-2.9861,-2.9958,-3.0099,-3.0182,-3.0234,-3.0279,-3.0402,-3.049,-3.0542,-3.6652,-3.6652,-3.6652,-3.6652,-3.6652,-3.6615,-3.6486,-3.6468,-3.6431,-3.6321,-3.6303,-3.6028,-3.5265,-3.5192,-3.4926,-3.4247,-3.4271,-3.4372,-3.4548,-3.4569,-3.4569,-3.4569,-3.4612,-3.4614,-3.4614,-3.4674,-3.4334,-3.3598,-3.3598,-3.3715,-3.3949,-3.4691,-3.5155,-3.5383,-3.5383,-3.5383,-3.5383,-3.5432,-3.5446,-3.5446,-3.5446,-3.546,-3.5493,-3.5465,-3.546,-3.5411,-3.4661,-3.4391,-3.416,-3.2602,-3.1987,-3.1737,-3.0871,-3.0513,-3.0398,-3.0398,-3.0398,-3.0398,-3.0398,-3.0398,-3.0398,-3.0398,-3.0398,-3.0398,-3.0398,-3.0398,-3.0398,-3.0398,-3.0398,-3.0398,-3.0398,-3.0398,-3.0398,-3.0398,-3.0398,-3.0398,-3.0398,0.0,-3.0343,-3.0343,-3.0311,-3.0286,-3.0286,-3.0286,-3.0286,-3.0286,-3.0286,-3.0286,-3.0286,-3.0286,-3.0169,-2.9924,-2.9969,-2.9908,-2.9713,-2.9696,-2.9696,-2.9696,-2.9696,-2.9696,-2.9696,-2.9661,-2.9643,-2.9643,-2.9607,-2.9625,-2.9643,-2.9643,-2.9678,-2.9731,-2.9893,-2.9969,-3.0028,-3.0254,-3.0378,-3.0424,-3.834,-3.834,-3.834,-3.834,-3.834,-3.8102,-3.7404,-3.7294,-3.7055,-3.6376,-3.6303,-3.6248,-3.6101,-3.6101,-3.6046,-3.5917,-3.5294,-3.4604,-3.3983,-3.3928,-3.3928,-3.3928,-3.4165,-3.4288,-3.4288,-3.4551,-3.4637,-3.4505,-3.4505,-3.4525,-3.4565,-3.4697,-3.4774,-3.4813,-3.4813,-3.4813,-3.4851,-3.507,-3.5155,-3.5155,-3.5155,-3.5304,-3.5479,-3.5258,-3.5304,-3.5488,-3.5353,-3.5295,-3.5161,-3.4141,-3.3314,-3.2564,-3.1756,-3.0987,-3.0398,-3.0398,-3.0398,-3.0398,-3.0398,-3.0398,-3.0398,-3.0398,-3.0398,-3.0398,-3.0398,-3.0398,-3.0398,-3.0398,-3.0398,-3.0398,-3.0398,-3.0398,-3.0398,-3.0398,-3.0398,-3.0398,-3.0398,0.0,-3.0061,-3.0061,-2.9912,-2.9815,-2.9815,-2.9815,-2.9815,-2.9815,-2.9815,-2.9815,-2.9815,-2.9815,-2.9696,-2.9494,-2.9829,-2.9908,-2.9713,-2.9696,-2.9696,-2.9696,-2.9696,-2.9696,-2.9696,-2.9532,-2.9454,-2.9434,-2.9225,-2.9246,-2.9454,-2.9454,-2.9551,-2.9713,-2.9729,-2.9845,-3.0013,-3.0061,-3.007,-3.0092,-3.8707,-3.8707,-3.8707,-3.8707,-3.8707,-3.8579,-3.8193,-3.8138,-3.801,-3.7643,-3.7588,-3.7422,-3.6982,-3.6945,-3.6762,-3.634,-3.5936,-3.555,-3.5165,-3.4302,-3.3807,-3.3807,-3.3928,-3.3986,-3.3986,-3.4136,-3.4208,-3.4208,-3.4208,-3.4284,-3.4423,-3.4423,-3.4529,-3.4694,-3.4694,-3.4694,-3.4694,-3.4832,-3.487,-3.487,-3.487,-3.4963,-3.507,-3.4926,-3.4963,-3.507,-3.507,-3.507,-3.4937,-3.4061,-3.3608,-3.3206,-3.2229,-3.1833,-3.1712,-3.1569,-3.0996,-3.0398,-3.0398,-3.0398,-3.0398,-3.0398,-3.0398,-3.0398,-3.0398,-3.0398,-3.0398,-3.0398,-3.0398,-3.0398,-3.0398,-3.0398,-3.0398,-3.0398,-3.0398,0.0,-3.0398,-3.0299,-3.015,-3.0013,-2.9924,-2.9813,-2.9713,-2.9696,-2.9696,-2.9696,-2.9696,-2.9696,-2.9696,-2.9696,-2.9607,-2.9412,-2.9436,-2.9418,-2.9316,-2.9316,-2.9316,-2.9316,-2.9316,-2.9316,-2.9334,-2.9225,-2.9181,-2.9178,-2.9044,-2.9067,-2.9181,-2.9181,-2.9228,-2.9355,-2.9475,-2.9589,-2.9696,-2.9796,-2.9845,-2.9861,-3.8496,-3.8496,-3.8546,-3.8676,-3.8707,-3.8707,-3.8707,-3.8707,-3.8707,-3.8707,-3.8707,-3.8469,-3.7845,-3.7771,-3.7514,-3.6909,-3.6688,-3.6578,-3.6578,-3.5202,-3.4284,-3.41,-3.3899,-3.3807,-3.3807,-3.3807,-3.3807,-3.3807,-3.3807,-3.3902,-3.4099,-3.4099,-3.4242,-3.4505,-3.4505,-3.4505,-3.4486,-3.4569,-3.4572,-3.4572,-3.4572,-3.4632,-3.4694,-3.4593,-3.4632,-3.4694,-3.4694,-3.4694,-3.46,-3.3938,-3.3696,-3.3557,-3.2676,-3.2533,-3.267,-3.2463,-3.1649,-3.0739,-3.0482,-3.0398,-3.0398,-3.0398,-3.0398,-3.0379,-3.0311,-3.0311,-3.0299,-3.026,-3.0247,-3.0241,-3.0299,-3.0273,-3.0241,-3.0299,0.0,-3.0247,0.0,-3.0188,-3.0099,-2.9877,-2.9813,-2.9712,-2.9551,-2.9533,-2.9533,-2.9533,-2.9533,-2.9533,-2.9533,-2.9533,-2.9456,-2.931,-2.9112,-2.8994,-2.8994,-2.8994,-2.8994,-2.8994,-2.8994,-2.8994,-2.8994,-2.8994,-2.8994,-2.8994,-2.8905,-2.8863,-2.8863,-2.8863,-2.8863,-2.8887,-2.9203,-2.9351,-2.9433,-2.957,-2.9625,-2.9625,-3.7877,-3.7946,-3.8117,-3.8627,-3.8707,-3.8707,-3.8707,-3.8707,-3.8707,-3.8707,-3.8707,-3.8689,-3.8615,-3.8615,-3.8597,-3.8542,-3.7826,-3.7404,-3.7404,-3.6597,-3.5752,-3.4935,-3.4211,-3.3807,-3.3807,-3.3807,-3.3807,-3.3807,-3.3807,-3.3815,-3.3815,-3.3815,-3.3842,-3.3868,-3.3868,-3.3868,-3.3895,-3.4123,-3.4242,-3.4242,-3.4242,-3.4423,-3.4674,-3.4357,-3.4423,-3.4694,-3.4694,-3.4694,-3.4694,-3.4637,-3.409,-3.3392,-3.3315,-3.2769,-3.2147,-3.2128,-3.2072,-3.1746,-3.0695,-3.0398,-3.0398,-3.0398,-3.0398,-3.0323,-3.0089,-3.0028,-2.9969,-2.9799,-2.9748,-2.9815,-2.9999,-2.9877,-2.9796,-2.9999,0.0,0.0,-2.9748,-2.9589,-2.9474,-2.9454,-2.9206,-2.9067,-2.9044,-2.9044,-2.9044,-2.9044,-2.9044,-2.9044,-2.9044,-2.9044,-2.9044,-2.904,-2.9017,-2.8994,-2.8994,-2.8994,-2.8994,-2.8994,-2.8994,-2.8994,-2.8994,-2.8994,-2.8994,-2.8994,-2.8608,-2.8446,-2.8446,-2.8446,-2.8446,-2.8471,-2.8887,-2.9181,-2.9412,-2.9433,-2.9414,-2.9414,-3.7433,-3.747,-3.7614,-3.8117,-3.8216,-3.8318,-3.8658,-3.8707,-3.8707,-3.8707,-3.8707,-3.8707,-3.8707,-3.8707,-3.8707,-3.8707,-3.8414,-3.823,-3.823,-3.7477,-3.6431,-3.5045,-3.4697,-3.4321,-3.3807,-3.3807,-3.3807,-3.3807,-3.3807,-3.3807,-3.3807,-3.3807,-3.3807,-3.3807,-3.3807,-3.3807,-3.3807,-3.3902,-3.3961,-3.3961,-3.3961,-3.4037,-3.4136,-3.4012,-3.4037,-3.4136,-3.4136,-3.4136,-3.4136,-3.4136,-3.4032,-3.3867,-3.3701,-3.3661,-3.3618,-3.3051,-3.292,-3.2694,-3.172,-3.1086,-3.0722,-3.0722,-3.0433,-3.0075,-2.9861,-2.9908,-2.9939,-2.9729,-2.9696,-2.9712,-2.9796,-2.9746,-2.9731,-2.9796,0.0,-2.9696,-2.9696,-2.9625,-2.9551,-2.9414,-2.931,-2.9181,-2.9017,-2.8994,-2.8994,-2.8994,-2.8994,-2.8994,-2.8994,-2.8994,-2.8994,-2.8994,-2.8749,-2.8749,-2.8994,-2.8994,-2.8994,-2.8994,-2.8749,-2.8633,-2.8633,-2.8412,-2.8326,-2.8308,-2.8368,-2.829,-2.8102,-2.8316,-2.829,-2.8129,-2.8489,-2.8547,-2.8504,-2.87,-2.879,-2.879,-3.6921,-3.696,-3.7097,-3.7614,-3.7685,-3.7808,-3.8168,-3.835,-3.8465,-3.8465,-3.8596,-3.8707,-3.8707,-3.8707,-3.8707,-3.8707,-3.8707,-3.8707,-3.8707,-3.8175,-3.7129,-3.5495,-3.5422,-3.5037,-3.4192,-3.4192,-3.4064,-3.3807,-3.3807,-3.3807,-3.3807,-3.3807,-3.3807,-3.3807,-3.3807,-3.3807,-3.3807,-3.3807,-3.3807,-3.3807,-3.3807,-3.3807,-3.3807,-3.3807,-3.3807,-3.3807,-3.3807,-3.3807,-3.3807,-3.3807,-3.391,-3.4043,-3.3868,-3.4087,-3.4285,-3.3702,-3.3534,-3.3403,-3.2801,-3.2054,-3.1403,-3.1299,-3.0782,-3.0224,-3.0038,-2.9883,-2.9746,-2.9533,-2.9476,-2.9514,-2.9589,-2.9551,-2.9514,-2.9589,-2.9551,-2.9476,-2.9476,-2.9476,-2.9416,-2.9289,-2.9267,-2.9203,-2.9017,-2.8994,-2.8994,-2.8994,-2.8994,-2.8952,-2.8815,-2.8815,-2.8749,-2.8651,-2.8386,-2.8386,-2.8651,-2.8651,-2.87,-2.8815,-2.8438,-2.8316,-2.8394,-2.8047,-2.7897,-2.7897,-2.8002,-2.7918,-2.7736,-2.7946,-2.7918,-2.7754,-2.8084,-2.8102,-2.7926,-2.8156,-2.8237,-2.8237,-3.6308,-3.6374,-3.6563,-3.7097,-3.7173,-3.719,-3.719,-3.7578,-3.7893,-3.7893,-3.835,-3.8676,-3.8676,-3.8707,-3.8707,-3.8707,-3.8707,-3.8707,-3.8707,-3.8707,-3.7991,-3.6376,-3.6303,-3.5899,-3.5027,-3.5009,-3.4633,-3.3825,-3.3825,-3.3825,-3.3807,-3.3807,-3.3807,-3.3807,-3.3807,-3.3807,-3.3807,-3.3807,-3.3807,-3.3807,-3.3807,-3.3807,-3.3807,-3.3807,-3.3807,-3.3807,-3.3807,-3.3807,-3.3807,-3.3807,-3.3807,-3.3807,-3.3807,-3.3807,-3.3807,-3.3807,-3.3807,-3.3807,-3.3807,-3.322,-3.252,-3.2197,-3.1506,-3.0847,-3.0646,-2.9988,-2.933,-2.9062,-2.8994,-2.9067,-2.9351,-2.9178,-2.9089,-2.9351,-2.916,-2.8994,-2.8994,-2.8994,-2.8994,-2.8994,-2.8994,-2.8994,-2.8994,-2.8994,-2.8994,-2.8994,-2.8994,-2.8815,-2.842,-2.8394,-2.8237,-2.7926,-2.7897,-2.7897,-2.7897,-2.7897,-2.8075,-2.8394,-2.8047,-2.8075,-2.8394,-2.8047,-2.7897,-2.7869,-2.747,-2.7303,-2.7303,-2.7303,-2.7303,-2.7334,-2.7754,-2.7897,-2.7897,-2.7897,-2.7897,-2.7897,-3.5827,-3.5854,-3.6028,-3.6539,-3.6643,-3.6764,-3.7135,-3.7323,-3.7396,-3.7396,-3.756,-3.765,-3.765,-3.7929,-3.815,-3.815,-3.8496,-3.8707,-3.8707,-3.8707,-3.8487,-3.801,-3.7441,-3.6762,-3.5936,-3.5917,-3.5789,-3.555,-3.555,-3.5238,-3.4651,-3.4651,-3.4357,-3.3807,-3.3807,-3.3807,-3.3807,-3.3807,-3.3807,-3.3807,-3.3807,-3.3807,-3.3807,-3.3807,-3.3807,-3.3807,-3.3807,-3.3807,-3.3807,-3.3807,-3.3807,-3.3807,-3.3807,-3.3807,-3.3807,-3.3807,-3.3807,-3.3807,-3.3807,-3.3623,-3.3264,-3.2637,-3.1972,-3.1464,-3.1233,-3.0695,-3.0185,-2.989,-2.9402,-2.9021,-2.9112,-2.9044,-2.904,-2.9112,-2.9044,-2.8994,-2.8994,-2.8994,-2.8994,-2.8994,-2.8994,-2.8905,-2.8608,-2.8565,-2.8489,-2.8255,-2.8228,-2.8174,-2.8047,-2.8047,-2.7992,-2.7897,-2.7636,-2.747,-2.747,-2.7754,-2.7954,-2.8047,-2.7648,-2.753,-2.7601,-2.7224,-2.7051,-2.7051,-2.7241,-2.7147,-2.6906,-2.7178,-2.7147,-2.6939,-2.7334,-2.7303,-2.7083,-2.7378,-2.747,-2.747,-3.5622,-3.5622,-3.5694,-3.6028,-3.6097,-3.6165,-3.6522,-3.6764,-3.6865,-3.6865,-3.7248,-3.747,-3.747,-3.7929,-3.8216,-3.8216,-3.8496,-3.8707,-3.8707,-3.8707,-3.8707,-3.8707,-3.823,-3.7588,-3.678,-3.6762,-3.6615,-3.6303,-3.6303,-3.6028,-3.5514,-3.5514,-3.5257,-3.4798,-3.4798,-3.4798,-3.4761,-3.4431,-3.4284,-3.4266,-3.3935,-3.3807,-3.3807,-3.3807,-3.3807,-3.3807,-3.3807,-3.3807,-3.3807,-3.3807,-3.3807,-3.3807,-3.3807,-3.3807,-3.3807,-3.3807,-3.3807,-3.3807,-3.3807,-3.3807,-3.3678,-3.3201,-3.2576,-3.2064,-3.1912,-3.1384,-3.0863,-3.0717,-3.0283,-2.9953,-2.9953,-2.9696,-2.9475,-2.9475,-2.9195,-2.8994,-2.8994,-2.8994,-2.8994,-2.8994,-2.8994,-2.8839,-2.8446,-2.8394,-2.8264,-2.7926,-2.7897,-2.784,-2.7648,-2.7648,-2.7589,-2.7409,-2.7178,-2.7051,-2.7051,-2.7286,-2.7517,-2.7648,-2.7255,-2.7147,-2.7303,-2.6873,-2.6691,-2.6725,-2.6971,-2.6939,-2.6725,-2.6971,-2.6939,-2.6725,-2.6971,-2.6791,-2.647,-2.6889,-2.6822,-2.6489,-3.5622,-3.5622,-3.5622,-3.5622,-3.5622,-3.5622,-3.5622,-3.6011,-3.6333,-3.6333,-3.7117,-3.7702,-3.7702,-3.8183,-3.8483,-3.8483,-3.8596,-3.8658,-3.8707,-3.8707,-3.8676,-3.8627,-3.8658,-3.831,-3.7558,-3.7588,-3.7239,-3.6505,-3.6505,-3.6486,-3.6413,-3.6413,-3.6358,-3.6303,-3.6303,-3.6303,-3.6248,-3.5459,-3.5119,-3.5045,-3.4321,-3.4027,-3.4027,-3.4027,-3.4027,-3.4027,-3.4027,-3.4027,-3.4009,-3.3935,-3.3917,-3.3899,-3.3825,-3.3807,-3.3807,-3.3807,-3.3807,-3.3807,-3.3807,-3.3807,-3.3807,-3.3807,-3.3256,-3.2724,-3.2724,-3.2082,-3.1494,-3.1494,-3.1439,-3.1384,-3.1384,-3.0797,-3.032,-3.032,-2.9696,-2.9195,-2.9195,-2.9195,-2.9195,-2.9172,-2.9148,-2.8974,-2.845,-2.8308,-2.8112,-2.7811,-2.7794,-2.7619,-2.7272,-2.7241,-2.7083,-2.6725,-2.6691,-2.6691,-2.6691,-2.6691,-2.6873,-2.7241,-2.6873,-2.6906,-2.7224,-2.6841,-2.6624,-2.6624,-2.659,-2.6573,-2.6624,-2.6624,-2.6624,-2.6657,-2.6691,-2.6367,-2.5997,-2.647,-2.6016,-2.5259,-3.5622,-3.5622,-3.5622,-3.5622,-3.5622,-3.5622,-3.5622,-3.5694,-3.5783,-3.5783,-3.5968,-3.6122,-3.6122,-3.6603,-3.6921,-3.6921,-3.7614,-3.8267,-3.8658,-3.8707,-3.8496,-3.8099,-3.8465,-3.8423,-3.7845,-3.824,-3.8358,-3.8175,-3.8175,-3.7863,-3.7221,-3.7221,-3.689,-3.6303,-3.6303,-3.6303,-3.6285,-3.6101,-3.6028,-3.6009,-3.5826,-3.5752,-3.5752,-3.5752,-3.5752,-3.5752,-3.5752,-3.5752,-3.5642,-3.4981,-3.4734,-3.4623,-3.4009,-3.3807,-3.3807,-3.3807,-3.3807,-3.3807,-3.3807,-3.3807,-3.3807,-3.3807,-3.3678,-3.3532,-3.3532,-3.2926,-3.2339,-3.2339,-3.1843,-3.1384,-3.1384,-3.1256,-3.1127,-3.1127,-3.098,-3.087,-3.087,-3.087,-3.0771,-3.0459,-3.0414,-2.9868,-2.8522,-2.7601,-2.7051,-2.6971,-2.6971,-2.6939,-2.6841,-2.6841,-2.6791,-2.6691,-2.6691,-2.6691,-2.6691,-2.6691,-2.6758,-2.6841,-2.6758,-2.6758,-2.6808,-2.6367,-2.6156,-2.612,-2.5709,-2.5762,-2.6156,-2.6156,-2.6156,-2.6191,-2.6556,-2.6158,-2.5449,-2.5961,-2.5762,-2.5221,-3.5622,-3.5622,-3.5622,-3.5622,-3.5622,-3.5622,-3.5622,-3.5622,-3.5622,-3.5622,-3.581,-3.5985,-3.5985,-3.644,-3.6764,-3.6764,-3.7248,-3.7703,-3.7982,-3.7982,-3.7861,-3.7578,-3.8032,-3.8183,-3.7911,-3.8183,-3.83,-3.83,-3.8083,-3.7765,-3.735,-3.7598,-3.7462,-3.7062,-3.7332,-3.7441,-3.7422,-3.7037,-3.6853,-3.6835,-3.645,-3.6303,-3.6303,-3.6303,-3.6303,-3.6303,-3.6303,-3.615,-3.5842,-3.5405,-3.523,-3.5187,-3.475,-3.4775,-3.4908,-3.4504,-3.4376,-3.4302,-3.3899,-3.3807,-3.3807,-3.3807,-3.3807,-3.3807,-3.3807,-3.3476,-3.3183,-3.3183,-3.2834,-3.254,-3.254,-3.2228,-3.1971,-3.1971,-3.1488,-3.1109,-3.1109,-3.093,-3.0718,-3.0487,-3.0475,-3.0057,-2.9018,-2.8254,-2.7791,-2.7791,-2.7791,-2.7791,-2.7791,-2.7791,-2.7791,-2.7791,-2.7791,-2.7604,-2.7232,-2.7232,-2.7046,-2.6691,-2.647,-2.647,-2.6691,-2.5944,-2.5762,-2.5961,-2.5411,-2.5373,-2.5615,-2.5615,-2.5615,-2.5652,-2.5908,-2.5524,-2.4855,-2.5411,-2.5297,-2.4792,-3.5622,-3.5622,-3.5622,-3.5622,-3.5622,-3.5622,-3.5622,-3.5622,-3.5622,-3.5622,-3.5985,-3.6249,-3.6249,-3.6643,-3.6943,-3.7076,-3.7058,-3.7097,-3.7173,-3.719,-3.7152,-3.7076,-3.7542,-3.7755,-3.7649,-3.7631,-3.772,-3.7893,-3.7433,-3.719,-3.7228,-3.7614,-3.779,-3.779,-3.8234,-3.8433,-3.8396,-3.7721,-3.746,-3.7405,-3.6717,-3.6444,-3.6444,-3.6444,-3.6492,-3.6552,-3.6552,-3.6285,-3.5894,-3.575,-3.563,-3.5529,-3.5403,-3.5661,-3.5896,-3.5261,-3.5089,-3.4924,-3.4202,-3.3936,-3.3872,-3.3744,-3.3634,-3.3606,-3.368,-3.3734,-3.3807,-3.3807,-3.3734,-3.3707,-3.3707,-3.3131,-3.2692,-3.2692,-3.1865,-3.1225,-3.1225,-3.0808,-3.0462,-3.0398,-3.0229,-2.9964,-2.9627,-2.9225,-2.9011,-2.9011,-2.9011,-2.9011,-2.9011,-2.9011,-2.8938,-2.8848,-2.8848,-2.8471,-2.7707,-2.7707,-2.7322,-2.662,-2.6142,-2.6148,-2.6556,-2.5524,-2.5297,-2.5689,-2.5144,-2.4973,-2.5067,-2.5067,-2.5067,-2.5067,-2.5182,-2.4831,-2.4307,-2.4736,-2.4672,-2.4199,-3.5622,-3.5622,-3.5622,-3.5622,-3.5622,-3.5622,-3.5622,-3.5622,-3.5622,-3.5622,-3.565,-3.5694,-3.5694,-3.5783,-3.6011,-3.6457,-3.6498,-3.6724,-3.7173,-3.719,-3.6981,-3.6539,-3.702,-3.7058,-3.6603,-3.6603,-3.702,-3.7893,-3.7433,-3.719,-3.719,-3.7248,-3.7285,-3.7285,-3.7377,-3.7414,-3.7396,-3.729,-3.7254,-3.7236,-3.7129,-3.7094,-3.7094,-3.7094,-3.7345,-3.7688,-3.7688,-3.7621,-3.7478,-3.6759,-3.6236,-3.5722,-3.5049,-3.4871,-3.4992,-3.5321,-3.5449,-3.5349,-3.4942,-3.4561,-3.4142,-3.3436,-3.2983,-3.2777,-3.3184,-3.355,-3.3807,-3.3807,-3.3522,-3.3273,-3.3273,-3.3183,-3.311,-3.311,-3.299,-3.2877,-3.2877,-3.2474,-3.2033,-3.162,-3.0707,-3.0088,-3.0014,-2.9384,-2.9011,-2.9011,-2.9011,-2.9011,-2.9011,-2.9011,-2.8774,-2.8229,-2.8229,-2.7928,-2.729,-2.729,-2.6937,-2.6285,-2.5705,-2.5711,-2.6068,-2.4973,-2.4552,-2.4592,-2.4032,-2.4074,-2.4511,-2.4511,-2.4511,-2.4552,-2.5028,-2.4592,-2.3724,-2.3794,-2.3752,-2.3681,-3.5622,-3.5622,-3.5622,-3.5622,-3.5622,-3.5622,-3.5622,-3.5622,-3.5622,-3.5622,-3.5622,-3.5622,-3.5622,-3.5622,-3.5694,-3.5941,-3.5941,-3.6054,-3.6291,-3.6333,-3.6207,-3.5985,-3.6457,-3.6643,-3.6433,-3.6374,-3.6603,-3.7041,-3.6545,-3.6333,-3.6316,-3.6603,-3.6764,-3.6764,-3.7076,-3.719,-3.719,-3.719,-3.719,-3.719,-3.719,-3.719,-3.719,-3.719,-3.7323,-3.7506,-3.7506,-3.7323,-3.7006,-3.6653,-3.6394,-3.6129,-3.5741,-3.5867,-3.604,-3.5812,-3.5704,-3.5578,-3.4993,-3.4712,-3.449,-3.4118,-3.3557,-3.3188,-3.3387,-3.3239,-3.3225,-3.3707,-3.3494,-3.3214,-3.3214,-3.2983,-3.2809,-3.2809,-3.2598,-3.2433,-3.2433,-3.2056,-3.1694,-3.147,-3.104,-3.0717,-3.0717,-3.0412,-3.0226,-3.0226,-3.0226,-3.0078,-2.9732,-2.9732,-2.9435,-2.8838,-2.8838,-2.8501,-2.7801,-2.7801,-2.7259,-2.619,-2.5654,-2.5444,-2.554,-2.443,-2.4116,-2.4389,-2.3837,-2.3709,-2.3948,-2.3948,-2.3948,-2.3991,-2.4184,-2.4032,-2.3595,-2.3595,-2.3595,-2.3595]},{"header":{"parameterUnit":"m.s-1","parameterCategory":1,"la1":30.6,"la2":28.766,"lo1":-90.7593,"lo2":-88.6598,"dy":0.0162,"dx":0.0183,"nx":116,"ny":114,"refTime":"2023-04-29T12:00:00:Z","depth":0,"parameterNumber":3,"parameterNumberName":"V-component_of_WINDS"},"data":[0.0,0.0,0.0,0.0,0.0,0.0,0.0,0.0,0.0,0.0,0.0,0.0,0.0,0.0,0.0,0.0,0.0,0.0,0.0,0.0,0.0,0.0,0.0,0.0,0.0,0.0,0.0,0.0,0.0,0.0,0.0,0.0,0.0,0.0,0.0,0.0,0.0,0.0,0.0,0.0,0.0,0.0,0.0,0.0,0.0,0.0,0.0,0.0,0.0,0.0,0.0,0.0,0.0,0.0,0.0,0.0,0.0,0.0,0.0,0.0,0.0,0.0,0.0,0.0,0.0,0.0,0.0,0.0,0.0,0.0,0.0,0.0,0.0,0.0,0.0,0.0,0.0,0.0,0.0,0.0,0.0,0.0,0.0,0.0,0.0,0.0,0.0,0.0,0.0,0.0,0.0,0.0,0.0,0.0,0.0,0.0,0.0,0.0,0.0,0.0,0.0,0.0,0.0,0.0,0.0,0.0,0.0,0.0,0.0,0.0,0.0,0.0,0.0,0.0,0.0,0.0,0.0,0.0,0.0,0.0,0.0,0.0,0.0,0.0,0.0,0.0,0.0,0.0,0.0,0.0,0.0,0.0,0.0,0.0,0.0,0.0,0.0,0.0,0.0,0.0,0.0,0.0,0.0,0.0,0.0,0.0,0.0,0.0,0.0,0.0,0.0,0.0,0.0,0.0,0.0,0.0,0.0,0.0,0.0,0.0,0.0,0.0,0.0,0.0,0.0,0.0,0.0,0.0,0.0,0.0,0.0,0.0,0.0,0.0,0.0,0.0,0.0,0.0,0.0,0.0,0.0,0.0,0.0,0.0,0.0,0.0,0.0,0.0,0.0,0.0,0.0,0.0,0.0,0.0,0.0,0.0,0.0,0.0,0.0,0.0,0.0,0.0,0.0,0.0,0.0,0.0,0.0,0.0,0.0,0.0,0.0,0.0,0.0,0.0,0.0,0.0,0.0,0.0,0.0,0.0,0.0,0.0,0.0,0.0,0.0,0.0,0.0,0.0,0.0,0.0,0.0,0.0,0.0,0.0,0.0,0.0,0.0,0.0,0.0,0.0,0.0,0.0,0.0,0.0,0.0,0.0,0.0,0.0,0.0,0.0,0.0,0.0,0.0,0.0,0.0,0.0,0.0,0.0,0.0,0.0,0.0,0.0,0.0,0.0,0.0,0.0,0.0,0.0,0.0,0.0,0.0,0.0,0.0,0.0,0.0,0.0,0.0,0.0,0.0,0.0,0.0,0.0,0.0,0.0,0.0,0.0,0.0,0.0,0.0,0.0,0.0,0.0,0.0,0.0,0.0,0.0,0.0,0.0,0.0,0.0,0.0,0.0,0.0,0.0,0.0,0.0,0.0,0.0,0.0,0.0,0.0,0.0,0.0,0.0,0.0,0.0,0.0,0.0,0.0,0.0,0.0,0.0,0.0,0.0,0.0,0.0,0.0,0.0,0.0,0.0,0.0,0.0,0.0,0.0,0.0,0.0,0.0,0.0,0.0,0.0,0.0,0.0,0.0,0.0,0.0,0.0,0.0,0.0,0.0,0.0,0.0,0.0,0.0,0.0,0.0,0.0,0.0,0.0,0.0,0.0,0.0,0.0,0.0,0.0,0.0,0.0,0.0,0.0,0.0,0.0,0.0,0.0,0.0,0.0,0.0,0.0,0.0,0.0,0.0,0.0,0.0,0.0,0.0,0.0,0.0,0.0,0.0,0.0,0.0,0.0,0.0,0.0,0.0,0.0,0.0,0.0,0.0,0.0,0.0,0.0,0.0,0.0,0.0,0.0,0.0,0.0,0.0,0.0,0.0,0.0,0.0,0.0,0.0,0.0,0.0,0.0,0.0,0.0,0.0,0.0,0.0,0.0,0.0,0.0,0.0,0.0,0.0,0.0,0.0,0.0,0.0,0.0,0.0,0.0,0.0,0.0,0.0,0.0,0.0,0.0,0.0,0.0,0.0,0.0,0.0,0.0,0.0,0.0,0.0,0.0,0.0,0.0,0.0,0.0,0.0,0.0,0.0,0.0,0.0,0.0,0.0,0.0,0.0,0.0,0.0,0.0,0.0,0.0,0.0,0.0,0.0,0.0,0.0,0.0,0.0,0.0,0.0,0.0,0.0,0.0,0.0,0.0,0.0,0.0,0.0,0.0,0.0,0.0,0.0,0.0,0.0,0.0,0.0,0.0,0.0,0.0,0.0,0.0,0.0,0.0,0.0,0.0,0.0,0.0,0.0,0.0,0.0,0.0,0.0,0.0,0.0,0.0,0.0,0.0,0.0,0.0,0.0,0.0,0.0,0.0,0.0,0.0,0.0,0.0,0.0,0.0,0.0,0.0,0.0,0.0,0.0,0.0,0.0,0.0,0.0,0.0,0.0,0.0,0.0,0.0,0.0,0.0,0.0,0.0,0.0,0.0,0.0,0.0,0.0,0.0,0.0,0.0,0.0,0.0,0.0,0.0,0.0,0.0,0.0,0.0,0.0,0.0,0.0,0.0,0.0,0.0,0.0,0.0,0.0,0.0,0.0,0.0,0.0,0.0,0.0,0.0,0.0,0.0,0.0,0.0,0.0,0.0,0.0,0.0,0.0,0.0,0.0,0.0,0.0,0.0,0.0,0.0,0.0,0.0,0.0,0.0,0.0,0.0,0.0,0.0,0.0,0.0,0.0,0.0,0.0,0.0,0.0,0.0,0.0,0.0,0.0,0.0,0.0,0.0,0.0,0.0,0.0,0.0,0.0,0.0,0.0,0.0,0.0,0.0,0.0,0.0,0.0,0.0,0.0,0.0,0.0,0.0,0.0,0.0,0.0,0.0,0.0,0.0,0.0,0.0,0.0,0.0,0.0,0.0,0.0,0.0,0.0,0.0,0.0,0.0,0.0,0.0,0.0,0.0,0.0,0.0,0.0,0.0,0.0,0.0,0.0,0.0,0.0,0.0,0.0,0.0,0.0,0.0,0.0,0.0,0.0,0.0,0.0,0.0,0.0,0.0,0.0,0.0,0.0,0.0,0.0,0.0,0.0,0.0,0.0,0.0,0.0,0.0,0.0,0.0,0.0,0.0,0.0,0.0,0.0,0.0,0.0,0.0,0.0,0.0,0.0,0.0,0.0,0.0,0.0,0.0,0.0,0.0,0.0,0.0,0.0,0.0,0.0,0.0,0.0,0.0,0.0,0.0,0.0,0.0,0.0,0.0,0.0,0.0,0.0,0.0,0.0,0.0,0.0,0.0,0.0,0.0,0.0,0.0,0.0,0.0,0.0,0.0,0.0,0.0,0.0,0.0,0.0,0.0,0.0,0.0,0.0,0.0,0.0,0.0,0.0,0.0,0.0,0.0,0.0,0.0,0.0,0.0,0.0,0.0,0.0,0.0,0.0,0.0,0.0,0.0,0.0,0.0,0.0,0.0,0.0,0.0,0.0,0.0,0.0,0.0,0.0,0.0,0.0,0.0,0.0,0.0,0.0,0.0,0.0,0.0,0.0,0.0,0.0,0.0,0.0,0.0,0.0,0.0,0.0,0.0,0.0,0.0,0.0,0.0,0.0,0.0,0.0,0.0,0.0,0.0,0.0,0.0,0.0,0.0,0.0,0.0,0.0,0.0,0.0,0.0,0.0,0.0,0.0,0.0,0.0,0.0,0.0,0.0,0.0,0.0,0.0,0.0,0.0,0.0,0.0,0.0,0.0,0.0,0.0,0.0,0.0,0.0,0.0,0.0,0.0,0.0,0.0,0.0,0.0,0.0,0.0,0.0,0.0,0.0,0.0,0.0,0.0,0.0,0.0,0.0,0.0,0.0,0.0,0.0,0.0,0.0,0.0,0.0,0.0,0.0,0.0,0.0,0.0,0.0,0.0,0.0,0.0,0.0,0.0,0.0,0.0,0.0,0.0,0.0,0.0,0.0,0.0,0.0,0.0,0.0,0.0,0.0,0.0,0.0,0.0,0.0,0.0,0.0,0.0,0.0,0.0,0.0,0.0,0.0,0.0,0.0,0.0,0.0,0.0,0.0,0.0,0.0,0.0,0.0,0.0,0.0,0.0,0.0,0.0,0.0,0.0,0.0,0.0,0.0,0.0,0.0,0.0,0.0,0.0,0.0,0.0,0.0,0.0,0.0,0.0,0.0,0.0,0.0,0.0,0.0,0.0,0.0,0.0,0.0,0.0,0.0,0.0,0.0,0.0,0.0,0.0,0.0,0.0,0.0,0.0,0.0,0.0,0.0,0.0,0.0,0.0,0.0,0.0,0.0,0.0,0.0,0.0,0.0,0.0,0.0,0.0,0.0,0.0,0.0,0.0,0.0,0.0,0.0,0.0,0.0,0.0,0.0,0.0,0.0,0.0,0.0,0.0,0.0,0.0,0.0,0.0,0.0,0.0,0.0,0.0,0.0,0.0,0.0,0.0,0.0,0.0,0.0,0.0,0.0,0.0,0.0,0.0,0.0,0.0,0.0,0.0,0.0,0.0,0.0,0.0,0.0,0.0,0.0,0.0,0.0,0.0,0.0,0.0,0.0,0.0,0.0,0.0,0.0,0.0,0.0,0.0,0.0,0.0,0.0,0.0,0.0,0.0,0.0,0.0,0.0,0.0,0.0,0.0,0.0,0.0,0.0,0.0,0.0,0.0,0.0,0.0,0.0,0.0,0.0,0.0,0.0,0.0,0.0,0.0,0.0,0.0,0.0,0.0,0.0,0.0,0.0,0.0,0.0,0.0,0.0,0.0,0.0,0.0,0.0,0.0,0.0,0.0,0.0,0.0,0.0,0.0,0.0,0.0,0.0,0.0,0.0,0.0,0.0,0.0,0.0,0.0,0.0,0.0,0.0,0.0,0.0,0.0,0.0,0.0,0.0,0.0,0.0,0.0,0.0,0.0,0.0,0.0,0.0,0.0,0.0,0.0,0.0,0.0,0.0,0.0,0.0,0.0,0.0,0.0,0.0,0.0,0.0,0.0,0.0,0.0,0.0,0.0,0.0,0.0,0.0,0.0,0.0,0.0,0.0,0.0,0.0,0.0,0.0,0.0,0.0,0.0,0.0,0.0,0.0,0.0,0.0,0.0,0.0,0.0,0.0,0.0,0.0,0.0,0.0,0.0,0.0,0.0,0.0,0.0,0.0,0.0,0.0,0.0,0.0,0.0,0.0,0.0,0.0,0.0,0.0,0.0,0.0,0.0,0.0,0.0,0.0,0.0,0.0,0.0,0.0,0.0,0.0,0.0,0.0,0.0,0.0,0.0,0.0,0.0,0.0,0.0,0.0,0.0,0.0,0.0,0.0,0.0,0.0,0.0,0.0,0.0,0.0,0.0,0.0,0.0,0.0,0.0,0.0,0.0,0.0,0.0,0.0,0.0,0.0,0.0,0.0,0.0,0.0,0.0,0.0,0.0,0.0,0.0,0.0,0.0,0.0,0.0,0.0,0.0,0.0,0.0,0.0,0.0,0.0,0.0,0.0,0.0,0.0,0.0,0.0,0.0,0.0,0.0,0.0,0.0,0.0,0.0,0.0,0.0,0.0,0.0,0.0,0.0,0.0,0.0,0.0,0.0,0.0,0.0,0.0,0.0,0.0,0.0,0.0,0.0,0.0,0.0,0.0,0.0,0.0,0.0,0.0,0.0,0.0,0.0,0.0,0.0,0.0,0.0,0.0,0.0,0.0,0.0,0.0,0.0,0.0,0.0,0.0,0.0,0.0,0.0,0.0,0.0,0.0,0.0,0.0,0.0,0.0,0.0,0.0,0.0,0.0,0.0,0.0,0.0,0.0,0.0,0.0,0.0,0.0,0.0,0.0,0.0,0.0,0.0,0.0,0.0,0.0,0.0,0.0,0.0,0.0,0.0,0.0,0.0,0.0,0.0,0.0,0.0,0.0,0.0,0.0,0.0,0.0,0.0,0.0,0.0,0.0,0.0,0.0,0.0,0.0,0.0,0.0,0.0,0.0,0.0,0.0,0.0,0.0,0.0,0.0,0.0,0.0,0.0,0.0,0.0,0.0,0.0,0.0,0.0,0.0,0.0,0.0,0.0,0.0,0.0,0.0,0.0,0.0,0.0,0.0,0.0,0.0,0.0,0.0,0.0,0.0,0.0,0.0,0.0,0.0,0.0,0.0,-0.7069,0.0,0.0,0.0,0.0,0.0,0.0,0.0,0.0,0.0,0.0,0.0,0.0,0.0,0.0,0.0,0.0,0.0,0.0,0.0,0.0,0.0,0.0,0.0,0.0,0.0,0.0,0.0,0.0,0.0,0.0,0.0,0.0,0.0,0.0,0.0,0.0,0.0,0.0,0.0,0.0,0.0,0.0,0.0,0.0,0.0,0.0,0.0,0.0,0.0,0.0,0.0,0.0,0.0,0.0,0.0,0.0,0.0,0.0,0.0,0.0,0.0,0.0,0.0,0.0,0.0,0.0,0.0,0.0,0.0,0.0,0.0,0.0,0.0,0.0,0.0,0.0,0.0,0.0,0.0,0.0,0.0,0.0,0.0,0.0,0.0,0.0,0.0,0.0,0.0,0.0,0.0,0.0,0.0,0.0,0.0,0.0,0.0,0.0,0.0,0.0,0.0,0.0,0.0,0.0,0.0,0.0,0.0,0.0,0.0,0.0,0.0,0.0,0.0,0.0,0.0,0.0,-0.7182,0.0,0.0,0.0,0.0,0.0,0.0,0.0,0.0,0.0,0.0,0.0,0.0,0.0,0.0,0.0,0.0,0.0,0.0,0.0,0.0,0.0,0.0,0.0,0.0,0.0,0.0,0.0,0.0,0.0,0.0,0.0,0.0,0.0,0.0,0.0,0.0,0.0,0.0,0.0,0.0,0.0,0.0,0.0,0.0,0.0,0.0,0.0,0.0,0.0,0.0,0.0,0.0,0.0,0.0,0.0,0.0,0.0,0.0,0.0,0.0,0.0,0.0,0.0,0.0,0.0,0.0,0.0,0.0,0.0,0.0,0.0,0.0,0.0,0.0,0.0,0.0,0.0,0.0,0.0,0.0,0.0,0.0,0.0,0.0,0.0,0.0,0.0,0.0,0.0,0.0,0.0,0.0,0.0,0.0,0.0,0.0,0.0,0.0,0.0,0.0,0.0,0.0,0.0,0.0,0.0,0.0,0.0,0.0,-0.8164,-0.7408,-0.794,-0.6464,-0.5816,-0.58,-0.6185,-0.6478,-0.6754,-0.7362,0.0,0.0,0.0,0.0,0.0,0.0,0.0,0.0,0.0,0.0,0.0,0.0,0.0,0.0,0.0,0.0,0.0,0.0,0.0,0.0,0.0,0.0,0.0,0.0,0.0,0.0,0.0,0.0,0.0,0.0,0.0,0.0,0.0,0.0,0.0,0.0,0.0,0.0,0.0,0.0,0.0,0.0,0.0,0.0,0.0,0.0,0.0,0.0,0.0,0.0,0.0,0.0,0.0,0.0,0.0,0.0,0.0,0.0,0.0,0.0,0.0,0.0,0.0,0.0,0.0,0.0,0.0,0.0,0.0,0.0,0.0,0.0,0.0,0.0,0.0,0.0,0.0,0.0,0.0,0.0,0.0,0.0,0.0,0.0,0.0,0.0,-0.831,-0.831,0.0,0.0,0.0,0.0,0.0,0.0,0.0,0.0,0.0,0.0,0.0,0.0,0.0,-1.0351,-0.9962,-0.9143,-0.8786,-0.8838,-0.7176,-0.64,-0.646,-0.5514,-0.5039,-0.5036,-0.5115,0.0,-0.7203,-0.7321,0.0,0.0,0.0,0.0,0.0,0.0,0.0,0.0,0.0,0.0,0.0,0.0,0.0,0.0,0.0,0.0,0.0,0.0,0.0,0.0,0.0,0.0,0.0,0.0,0.0,0.0,0.0,0.0,0.0,0.0,0.0,0.0,0.0,0.0,0.0,0.0,0.0,0.0,0.0,0.0,0.0,0.0,0.0,0.0,0.0,0.0,0.0,0.0,0.0,0.0,0.0,0.0,0.0,0.0,0.0,0.0,0.0,0.0,0.0,0.0,0.0,0.0,0.0,0.0,0.0,0.0,0.0,0.0,0.0,0.0,0.0,0.0,0.0,0.0,0.0,0.0,0.0,0.0,0.0,0.0,0.0,0.0,0.0,0.0,0.0,-1.0167,-1.0188,-0.9695,-1.0732,-1.1398,0.0,0.0,0.0,0.0,0.0,0.0,0.0,0.0,0.0,-1.0086,-1.0457,-1.0532,-1.0241,-0.9862,-0.9816,-0.9907,-0.8753,-0.7921,-0.7518,-0.6664,-0.6152,-0.5998,-0.5487,-0.6459,-0.8337,-0.7636,-0.8463,-1.0243,0.0,0.0,0.0,0.0,-1.0128,-1.0629,0.0,0.0,0.0,0.0,0.0,0.0,0.0,0.0,0.0,0.0,0.0,0.0,0.0,0.0,0.0,0.0,0.0,0.0,0.0,0.0,0.0,0.0,0.0,0.0,0.0,0.0,0.0,0.0,0.0,0.0,0.0,0.0,0.0,0.0,0.0,0.0,0.0,0.0,0.0,0.0,0.0,0.0,0.0,0.0,0.0,0.0,0.0,0.0,0.0,0.0,0.0,0.0,0.0,0.0,0.0,0.0,0.0,0.0,0.0,0.0,0.0,0.0,0.0,0.0,0.0,0.0,0.0,0.0,0.0,0.0,0.0,0.0,0.0,0.0,0.0,0.0,0.0,-1.1927,-1.1633,-1.1183,-1.1509,-1.1896,0.0,0.0,0.0,0.0,0.0,0.0,-1.1509,-1.1461,-1.1136,-1.0405,-1.0604,-1.0708,-1.0782,-1.0782,-1.0889,-1.1102,-1.0227,-0.9502,-0.8974,-0.8056,-0.7552,-0.7349,-0.6672,-0.7613,-0.9426,-0.8021,-0.8723,-1.0646,-1.0137,-1.0248,-1.0587,-1.0137,-1.0255,-1.0587,0.0,0.0,0.0,0.0,0.0,0.0,0.0,0.0,0.0,0.0,0.0,0.0,0.0,0.0,0.0,0.0,0.0,0.0,0.0,0.0,0.0,0.0,0.0,0.0,0.0,0.0,0.0,0.0,0.0,0.0,0.0,0.0,0.0,0.0,0.0,0.0,0.0,0.0,0.0,0.0,0.0,0.0,0.0,0.0,0.0,0.0,0.0,0.0,0.0,0.0,0.0,0.0,0.0,0.0,0.0,0.0,0.0,0.0,0.0,0.0,0.0,0.0,0.0,0.0,0.0,0.0,0.0,0.0,0.0,0.0,0.0,0.0,0.0,0.0,0.0,0.0,0.0,0.0,0.0,-1.2818,-1.2258,0.0,0.0,0.0,0.0,-1.3009,-1.2266,-1.1509,-1.0613,-1.0661,-1.0361,-0.9759,-1.0567,-1.1102,-1.1376,-1.1383,-1.139,-1.1403,-1.0498,-1.0089,-0.9962,-0.9109,-0.8749,-0.8669,-0.8669,-0.9157,-0.9955,-0.8575,-0.9023,-1.0577,-1.0577,-1.0577,-1.0577,-1.0577,-1.0577,-1.0577,0.0,0.0,0.0,0.0,0.0,0.0,0.0,0.0,0.0,0.0,0.0,0.0,0.0,0.0,0.0,0.0,0.0,0.0,0.0,0.0,0.0,0.0,0.0,0.0,0.0,0.0,0.0,0.0,0.0,0.0,0.0,0.0,0.0,0.0,0.0,0.0,0.0,0.0,0.0,0.0,0.0,0.0,0.0,0.0,0.0,0.0,0.0,0.0,0.0,0.0,0.0,0.0,0.0,0.0,0.0,0.0,0.0,0.0,0.0,0.0,0.0,0.0,0.0,0.0,0.0,0.0,0.0,0.0,0.0,0.0,0.0,0.0,0.0,0.0,0.0,0.0,0.0,0.0,0.0,-1.2205,-1.1958,0.0,-1.1476,-1.1903,-1.2111,-1.1767,-1.1468,-1.1228,-1.1082,-1.1109,-1.1028,-1.0789,-1.1134,-1.1587,-1.2369,-1.2369,-1.2735,-1.3537,-1.2582,-1.1911,-1.1429,-1.0501,-0.9986,-0.9762,-0.9267,-0.9755,-1.0854,-0.9764,-0.9928,-1.0835,-1.0835,-1.0728,-1.0624,-1.0624,-1.0624,-1.0624,0.0,0.0,0.0,0.0,0.0,0.0,0.0,0.0,0.0,0.0,0.0,-0.239,0.0,0.0,0.0,0.0,0.0,0.0,0.0,0.0,0.0,0.0,0.0,0.0,0.0,0.0,0.0,0.0,0.0,0.0,0.0,0.0,0.0,0.0,0.0,0.0,0.0,0.0,0.0,0.0,0.0,0.0,3.0008,0.0,0.0,0.0,0.0,0.0,0.0,0.0,0.0,0.0,0.0,0.0,0.0,0.0,0.0,0.0,0.0,0.0,0.0,0.0,0.0,0.0,0.0,0.0,0.0,0.0,0.0,0.0,0.0,0.0,0.0,0.0,0.0,0.0,0.0,0.0,-1.1934,-1.2297,-1.1881,-1.1489,-1.1295,-1.1539,-1.1495,-1.1189,-1.1136,-1.1223,-1.1416,-1.1861,-1.2165,-1.2263,-1.2711,-1.3304,-1.405,-1.4057,-1.4511,-1.5226,-1.425,-1.3558,-1.3063,-1.2037,-1.1501,-1.1329,-1.0638,-1.0943,-1.1793,-1.1114,-1.0988,-1.1276,-1.1176,-1.1022,-1.0855,-1.0855,-1.0855,-1.09,0.0,0.0,0.0,0.0,0.0,0.0,0.0,0.0,0.0,0.0,0.0,-0.8082,-1.9851,0.0,0.0,0.0,0.0,0.0,0.0,0.0,0.0,0.0,0.0,0.0,0.0,0.0,0.0,0.0,0.0,0.0,0.0,0.0,0.0,0.0,0.0,0.0,0.0,0.0,0.0,0.0,0.0,0.0,3.0403,0.0,0.0,0.0,0.0,0.0,0.0,0.0,0.0,0.0,0.0,0.0,0.0,0.0,0.0,0.0,0.0,0.0,0.0,0.0,0.0,0.0,0.0,0.0,0.0,0.0,0.0,0.0,0.0,0.0,0.0,0.0,0.0,0.0,-1.2903,-1.2282,-1.2157,-1.3195,-1.1963,-1.1448,-1.2549,-1.1908,-1.1443,-1.145,-1.1525,-1.1538,-1.1483,-1.2786,-1.3658,-1.3905,-1.5308,-1.6169,-1.6447,-1.6447,-1.6447,-1.6447,-1.5396,-1.4872,-1.4794,-1.3738,-1.3206,-1.3193,-1.2893,-1.2835,-1.2815,-1.2452,-1.2158,-1.1864,-1.1557,-1.143,-1.1423,-1.1423,-1.1423,-1.1655,0.0,0.0,0.0,0.0,0.0,0.0,0.0,0.0,0.0,0.0,-1.4328,-1.8531,-2.1897,0.0,0.0,0.0,0.0,0.0,0.0,0.0,0.0,0.0,0.0,0.0,0.0,0.0,0.0,0.0,0.0,0.0,0.0,0.0,0.0,0.0,0.0,0.0,0.0,0.0,0.0,0.0,0.0,0.0,3.0714,0.0,0.0,0.0,0.0,0.0,0.0,0.0,0.0,0.0,0.0,0.0,0.0,0.0,0.0,0.0,0.0,0.0,0.0,0.0,0.0,0.0,0.0,0.0,0.0,0.0,0.0,0.0,0.0,0.0,0.0,0.0,0.0,-1.3996,-1.26,-1.1754,-1.1428,-1.1861,-1.1573,-1.1404,-1.1758,-1.2441,-1.2663,-1.2116,-1.375,-1.4144,-1.2782,-1.4561,-1.5311,-1.46,-1.5654,-1.6664,-1.7468,-1.7459,-1.7841,-1.8516,-1.7534,-1.6623,-1.5771,-1.4794,-1.3967,-1.3206,-1.312,-1.308,-1.308,-1.2993,-1.2779,-1.2526,-1.1944,-1.1617,-1.1423,-1.1423,-1.1833,-1.2624,0.0,0.0,0.0,0.0,0.0,0.0,0.0,0.0,0.0,0.0,-2.1594,-2.37,-2.307,-2.3229,0.0,0.0,0.0,0.0,0.0,0.0,0.0,0.0,0.0,0.0,0.0,0.0,0.0,0.0,0.0,0.0,0.0,0.0,0.0,0.0,0.0,0.0,0.0,0.0,0.0,0.0,0.0,0.0,3.0623,3.006,2.9837,2.9603,2.8029,2.6117,2.4015,2.2144,0.0,0.0,0.0,0.0,0.0,0.0,0.0,0.0,0.0,0.0,0.0,0.0,0.0,0.0,0.0,0.0,0.0,0.0,0.0,0.0,0.0,0.0,0.0,0.0,-1.4607,-1.4501,-1.3126,-1.2253,-1.1796,-1.1814,-1.1797,-1.2026,-1.2776,-1.3535,-1.4013,-1.4052,-1.5346,-1.5713,-1.4639,-1.63,-1.6996,-1.639,-1.7534,-1.8406,-1.9052,-1.9052,-1.9278,-1.9824,-1.8815,-1.8032,-1.7312,-1.6307,-1.5295,-1.4268,-1.4142,-1.378,-1.3387,-1.326,-1.3106,0.0,0.0,0.0,0.0,0.0,-1.2143,-1.2815,0.0,0.0,0.0,0.0,0.0,0.0,0.0,0.0,0.0,0.0,0.0,-2.4977,-2.3798,-2.3664,-2.303,0.0,0.0,0.0,0.0,0.0,0.0,0.0,0.0,0.0,0.0,0.0,0.0,0.0,0.0,0.0,0.0,0.0,0.0,0.0,0.0,0.0,0.0,0.0,0.0,0.0,0.0,0.0,3.0296,2.9896,2.9828,2.9707,2.8035,2.6224,2.4296,2.1995,0.0,0.0,0.0,0.0,0.0,0.0,0.0,0.0,0.0,0.0,0.0,0.0,0.0,0.0,0.0,0.0,0.0,0.0,0.0,0.0,0.0,0.0,0.0,0.0,-1.4637,-1.463,-1.4212,-1.3754,-1.3277,-1.284,-1.2688,-1.3194,-1.4811,-1.4979,-1.5459,-1.6362,-1.6699,-1.6725,-1.6496,0.0,0.0,0.0,0.0,-2.0934,-2.0934,-2.0934,-2.0857,-2.0789,-1.9825,-1.9195,-1.8957,-1.798,-1.6927,-1.5846,-1.564,-1.4962,-1.3988,-1.3728,-1.3677,-1.3845,-1.4128,-1.365,-1.2707,-1.2566,-1.2546,-1.2837,0.0,0.0,0.0,0.0,0.0,0.0,0.0,0.0,0.0,-2.3598,-2.3864,-2.418,-2.5148,-2.5266,-2.4631,0.0,0.0,0.0,0.0,0.0,0.0,0.0,0.0,0.0,0.0,0.0,0.0,0.0,0.0,0.0,0.0,0.0,0.0,0.0,0.0,0.0,0.0,0.0,0.0,0.0,0.0,0.0,2.9876,2.9586,2.9984,3.0478,2.8845,2.7587,2.6356,2.392,0.7269,-1.2417,-1.2417,0.0,0.0,0.0,0.0,0.0,0.0,0.0,0.0,0.0,0.0,0.0,0.0,0.0,0.0,0.0,0.0,0.0,0.0,0.0,0.0,-1.6255,-1.7038,-1.7235,-1.564,-1.6328,-1.6629,-1.5697,-1.482,-1.4797,-1.5983,-1.6338,-1.6587,-1.6821,-1.8679,-1.9026,-1.7199,-1.9754,-2.0964,-2.0091,-2.1943,-2.2936,-2.2936,-2.2936,-2.2553,-2.1735,0.0,0.0,-1.8957,-1.8798,-1.8069,-1.7009,-1.6936,-1.6831,-1.6587,-1.6516,-1.6795,-1.7115,-1.5366,-1.4865,-1.4998,-1.4283,-1.4263,-1.4657,0.0,0.0,0.0,0.0,0.0,0.0,0.0,0.0,0.0,0.0,-2.4541,-2.4832,-2.5615,-2.5703,-2.5391,0.0,0.0,0.0,0.0,0.0,0.0,0.0,0.0,0.0,0.0,0.0,0.0,0.0,0.0,0.0,0.0,0.0,0.0,0.0,0.0,0.0,0.0,0.0,0.0,0.0,0.0,0.0,2.7998,2.8801,2.9279,2.9409,2.8744,2.5407,2.1574,2.3105,0.7939,-1.1988,-1.4606,-1.4738,-1.3822,0.0,0.0,0.0,0.0,0.0,0.0,0.0,0.0,0.0,0.0,0.0,0.0,0.0,0.0,-1.6917,0.0,0.0,-1.7735,-1.6979,-1.7845,-1.8271,-1.7322,-1.8163,-1.8366,-1.6808,-1.6191,-1.6342,-1.7545,-1.7813,-1.8389,-1.9362,-2.0602,-2.1038,-2.043,-2.191,-2.2531,-2.1975,-2.2977,-2.3514,-2.3514,-2.3514,-2.322,-2.2776,-2.2776,-2.2242,-2.1237,-2.072,-1.9934,-1.8815,-1.8372,-1.7827,-1.7342,-1.7342,-1.7797,-1.8563,-1.7335,-1.692,-1.665,-1.5153,-1.5111,-1.5765,0.0,0.0,0.0,0.0,0.0,0.0,0.0,0.0,0.0,0.0,0.0,-2.541,-2.541,-2.5586,-2.5611,0.0,0.0,0.0,0.0,0.0,0.0,0.0,0.0,0.0,0.0,0.0,0.0,0.0,0.0,0.0,0.0,0.0,0.0,0.0,0.0,0.0,0.0,0.0,0.0,0.0,0.0,0.0,2.506,2.6441,2.7361,2.8029,2.8723,2.4411,1.8458,1.8885,0.6943,-0.897,-1.3873,-1.5041,-1.4451,-1.3631,-1.2792,0.0,0.0,0.0,0.0,0.0,0.0,0.0,0.0,0.0,-1.6549,-1.726,-1.6807,-1.6862,-1.86,-1.83,-1.7777,-1.7604,-1.8318,-1.8894,-1.9023,-1.981,-1.9763,-1.833,-1.7648,-1.7874,-1.9167,-1.9265,-2.0032,-2.1876,-2.2178,-2.2627,-2.3441,-2.3672,-2.3818,-2.3818,-2.3963,-2.4097,-2.4097,-2.4097,-2.3952,-2.3818,-2.3818,-2.3661,-2.3441,-2.2627,-2.1845,-2.0968,-2.0022,-1.8939,-1.79,-1.79,-1.847,-1.9353,-1.9502,-1.9102,-1.8227,-1.6223,-1.5996,-1.6682,0.0,0.0,0.0,0.0,0.0,0.0,0.0,0.0,0.0,0.0,0.0,0.0,0.0,0.0,0.0,0.0,0.0,0.0,0.0,0.0,0.0,0.0,0.0,0.0,0.0,0.0,0.0,0.0,0.0,0.0,0.0,0.0,0.0,0.0,0.0,0.0,0.0,0.0,0.0,0.0,0.0,0.0,2.1061,2.062,2.3297,2.7581,2.9839,3.0018,2.6432,0.8646,-0.2838,-1.0322,-1.4204,-1.5768,-1.6039,-1.4995,0.0,-1.3116,-1.2757,-1.1467,-1.0312,-1.0807,-1.1598,-1.2629,0.0,0.0,-1.5367,-1.55,-1.5438,-1.576,-1.7179,-1.7332,-1.7685,-1.8841,-1.9448,-2.0083,-2.0968,-2.1478,-2.2018,-2.2668,-2.04,-1.9228,-2.0313,-2.0333,-2.0757,-2.1876,-2.285,-2.3368,-2.3514,-2.4337,-2.4862,-2.4862,-2.5734,-2.6164,-2.6164,-2.6164,-2.5721,-2.4862,-2.4862,-2.4337,-2.3514,-2.3368,-2.3294,-2.3136,-2.2092,-2.1125,-2.0235,-2.0235,-2.0323,-2.0479,-2.1354,-2.1074,-2.014,-1.8656,-1.7921,-1.7701,0.0,0.0,0.0,0.0,0.0,0.0,0.0,0.0,0.0,0.0,0.0,0.0,0.0,0.0,0.0,0.0,0.0,0.0,0.0,0.0,0.0,0.0,0.0,0.0,0.0,0.0,0.0,0.0,0.0,0.0,0.0,0.0,0.0,0.0,0.0,0.0,0.0,0.0,0.0,0.0,0.0,0.0,1.529,1.4969,1.3081,1.1589,1.916,2.1884,0.0,0.0,-1.0785,-1.0723,-1.5602,-1.6842,-1.6394,-1.5739,-1.4958,0.0,-1.1888,-1.2255,0.0,0.0,-1.3201,-1.5026,-1.5939,-1.6495,-1.6908,-1.7426,-1.7754,-1.8331,-1.9407,-1.9882,-2.0365,0.0,-2.152,-2.1889,-2.2524,-2.2794,-2.2999,-2.3441,-2.2382,-2.178,-2.2264,-2.1704,-2.1996,-2.3588,-2.412,-2.4624,-2.5205,-2.5652,-2.5873,-2.5873,-2.6756,-2.7229,-2.7229,-2.767,-2.7511,-2.6582,-2.6582,-2.6102,-2.5205,-2.4624,-2.4036,-2.3452,-2.3073,-2.2339,-2.1451,-2.1451,-2.1078,-2.0712,-2.1659,-2.1735,-2.1268,-2.0043,-1.9583,-1.9402,0.0,0.0,0.0,0.0,0.0,0.0,0.0,0.0,0.0,0.0,0.0,0.0,0.0,0.0,0.0,0.0,0.0,0.0,0.0,0.0,0.0,0.0,0.0,0.0,0.0,0.0,0.0,0.0,0.0,0.0,0.0,0.0,0.0,0.0,0.0,0.0,0.0,0.0,0.0,0.0,0.0,0.0,0.968,0.8984,0.4148,-0.0937,0.9316,1.2185,0.0,0.0,-1.6599,-1.4766,-1.8275,-1.8794,-1.7934,-1.7124,-1.6493,-1.557,-1.3195,0.0,0.0,-1.3395,-1.4765,-1.6798,-1.7658,-1.8054,-1.8578,-1.9652,-2.0019,-2.0499,-2.1697,-2.1992,-2.2329,-2.2969,-2.3071,-2.3266,-2.3845,-2.3891,-2.4097,-2.4577,-2.4422,-2.453,-2.5223,-2.38,-2.3441,-2.4862,-2.5229,-2.5734,-2.6452,-2.6714,-2.685,-2.685,-2.7604,-2.8051,-2.8051,-2.8684,-2.8684,-2.8051,-2.7802,-2.7417,-2.6769,-2.5861,-2.485,-2.3891,-2.3891,-2.3368,-2.2403,-2.2403,-2.2038,-2.1527,-2.2478,-2.2627,-2.2317,-2.1814,-2.139,-2.0857,0.0,0.0,0.0,0.0,0.0,0.0,0.0,0.0,0.0,0.0,0.0,0.0,0.0,0.0,0.0,0.0,0.0,0.0,0.0,0.0,0.0,0.0,0.0,0.0,0.0,0.0,0.0,0.0,0.0,0.0,0.0,0.0,0.0,0.0,0.0,0.0,0.0,0.0,0.0,0.0,0.0,0.0,0.4945,0.236,-0.1105,-0.3666,0.4093,0.0,0.0,0.0,-1.9721,-2.4538,-2.2526,-2.1987,0.0,-1.9609,-1.9065,0.0,0.0,0.0,-1.6182,-1.535,-1.573,-1.6656,-1.7639,-1.8522,-1.963,-2.1265,-2.1043,-2.113,-2.2827,-2.2524,-2.236,-2.3335,-2.3492,-2.3806,-2.4791,-2.4933,-2.5627,-2.7391,-2.679,-2.7142,0.0,-2.6822,-2.4933,-2.5004,-2.5873,-2.6452,-2.6533,-2.7229,-2.767,-2.767,-2.8492,-2.8939,-2.8939,-2.9002,-2.9002,-2.8939,-2.8117,-2.767,-2.767,-2.6837,-2.5873,-2.4933,-2.4933,-2.4409,-2.3441,-2.3441,-2.3441,-2.3514,-2.4492,-2.4337,-2.3588,-2.448,-2.3661,-2.1811,0.0,0.0,0.0,0.0,0.0,0.0,0.0,0.0,0.0,0.0,0.0,0.0,0.0,0.0,0.0,0.0,0.0,0.0,0.0,0.0,0.0,0.0,0.0,0.0,0.0,0.0,0.0,0.0,0.0,0.0,0.0,0.0,0.0,0.0,0.0,0.0,0.0,0.0,0.0,0.0,0.0,0.0,-0.2756,-0.3605,-0.6755,-0.9946,0.0,0.0,0.0,0.0,-2.3137,-2.5013,-2.5041,0.0,0.0,-2.3392,-2.1703,-1.9899,0.0,0.0,-1.7997,-1.6799,-1.7678,-1.9479,-2.1843,-2.2315,-2.2726,-2.4436,-2.5231,-2.5793,-2.6176,-2.6805,-2.7481,-2.8088,-2.7977,-2.8057,-2.8884,-2.9016,-2.9214,-2.9817,-2.9594,0.0,0.0,0.0,0.0,-2.8261,-2.9038,-2.9108,-2.8233,-2.8829,-2.9212,-2.9212,-3.005,-3.0764,-3.121,-3.1779,-3.1528,-3.0513,-2.9213,-2.8247,-2.767,-2.7417,-2.6824,-2.6025,-2.6025,-2.5441,-2.4492,-2.4492,-2.4108,-2.3588,-2.4636,-2.4791,-2.4564,-2.4862,-2.4564,-2.3818,0.0,0.0,0.0,0.0,0.0,0.0,0.0,0.0,0.0,0.0,0.0,0.0,0.0,0.0,0.0,0.0,0.0,0.0,0.0,0.0,0.0,0.0,0.0,0.0,0.0,0.0,0.0,0.0,0.0,0.0,0.0,0.0,0.0,0.0,0.0,0.0,0.0,0.0,0.0,0.0,0.0,0.0,-0.6971,-0.7295,-1.0221,0.0,0.0,0.0,0.0,0.0,0.0,0.0,0.0,-2.683,-2.6629,-2.6395,-2.4616,-2.231,-2.0813,-2.0869,-2.1065,-1.9809,-2.1076,-2.3059,-2.5056,-2.5246,-2.5452,-2.6893,-2.7795,-2.8381,-2.8777,-2.9446,-3.0084,-3.0656,-3.067,-3.0747,-3.1211,-3.1511,-3.1765,-3.1989,-3.2004,-3.2232,0.0,0.0,0.0,-3.0686,-3.1054,-3.0983,-3.0338,-3.0968,-3.1344,-3.1344,-3.2191,-3.285,-3.3297,-3.3659,-3.3216,-3.1949,-3.0763,-2.9843,-2.9181,-2.8983,-2.8484,-2.7775,-2.7775,-2.7059,-2.5963,-2.5963,-2.5392,-2.4624,-2.5288,-2.5523,-2.5523,-2.5523,-2.53,-2.4862,0.0,0.0,0.0,0.0,0.0,0.0,0.0,0.0,0.0,0.0,0.0,0.0,0.0,0.0,0.0,0.0,0.0,0.0,0.0,0.0,0.0,0.0,0.0,0.0,0.0,0.0,0.0,0.0,0.0,0.0,0.0,0.0,0.0,0.0,0.0,0.0,0.0,0.0,0.0,0.0,0.0,0.0,-0.808,-0.8914,0.0,0.0,0.0,0.0,0.0,0.0,0.0,0.0,0.0,0.0,-2.89,-2.8725,-2.7623,-2.6105,-2.4596,-2.465,-2.4922,-2.4162,-2.5562,-2.7156,-2.7261,-2.7384,-2.7712,-2.8869,-2.8854,-2.9141,0.0,0.0,-3.0357,-3.1076,-3.1606,-3.1957,-3.2027,-3.2677,-3.3392,0.0,0.0,0.0,0.0,0.0,0.0,-3.2361,0.0,-3.2329,-3.2772,-3.3529,-3.3955,-3.3955,-3.4751,-3.5213,-3.5256,-3.4714,-3.4022,-3.3287,-3.273,-3.2229,-3.188,-3.1319,-3.0674,-3.0009,-3.0009,-2.9163,-2.7736,-2.7736,-2.7229,-2.6589,-2.6521,-2.6533,-2.6533,-2.6533,-2.5873,-2.4933,0.0,0.0,0.0,0.0,0.0,0.0,0.0,0.0,0.0,0.0,0.0,0.0,0.0,0.0,0.0,0.0,0.0,0.0,0.0,0.0,0.0,0.0,0.0,0.0,0.0,0.0,0.0,0.0,0.0,0.0,0.0,0.0,0.0,0.0,0.0,0.0,0.0,0.0,0.0,0.0,0.0,0.0,-1.0712,0.0,0.0,0.0,0.0,0.0,0.0,0.0,0.0,0.0,0.0,-3.1448,-3.1069,-3.1999,-2.9776,-2.7119,-2.7565,-2.7129,-2.6754,-2.7882,-2.8308,-2.896,-3.0925,-3.0766,-3.0471,-3.1442,-3.1987,-3.2364,0.0,0.0,0.0,-3.3737,-3.3439,0.0,-3.501,-3.5383,0.0,-3.6878,0.0,-3.716,-3.7558,-3.7576,0.0,0.0,-3.6448,-3.5846,-3.5169,-3.5867,-3.6252,-3.6252,-3.6451,-3.6845,-3.7318,-3.6456,-3.5931,-3.57,-3.4835,-3.3811,-3.2784,-3.2625,-3.1616,-3.0009,-3.0009,-2.9473,-2.862,-2.7986,-2.7604,-2.7351,-2.6714,-2.6533,-2.6533,-2.6533,-2.6314,-2.6094,0.0,0.0,0.0,0.0,0.0,0.0,0.0,0.0,0.0,0.0,0.0,0.0,0.0,0.0,0.0,0.0,0.0,0.0,0.0,0.0,0.0,0.0,0.0,0.0,0.0,0.0,0.0,0.0,0.0,0.0,0.0,0.0,0.0,0.0,0.0,0.0,0.0,0.0,0.0,0.0,0.0,0.0,0.0,0.0,0.0,0.0,0.0,0.0,0.0,0.0,0.0,-3.1275,-3.1957,-3.2793,-3.35,-3.3303,0.0,-2.9897,-2.9601,-2.9769,-3.0259,-3.1017,-3.1479,-3.2068,-3.3283,-3.2845,-3.2412,-3.3086,-3.3627,0.0,0.0,0.0,0.0,0.0,0.0,0.0,-3.6767,-3.7333,-3.7914,0.0,-3.8896,0.0,-3.8896,-3.8896,-3.9051,0.0,-3.8654,-3.7973,-3.7613,-3.7971,-3.8214,-3.829,-3.829,-3.8338,-3.8499,-3.7876,-3.7551,-3.7551,-3.664,-3.5919,-3.5393,-3.5074,-3.3988,-3.2367,0.0,-3.115,-2.9986,-2.9482,-2.8884,-2.8233,-2.8101,-2.7604,-2.704,-2.704,-2.6782,-2.6533,0.0,0.0,0.0,0.0,0.0,0.0,0.0,0.0,0.0,0.0,0.0,0.0,0.0,0.0,0.0,0.0,0.0,0.0,0.0,0.0,0.0,0.0,0.0,0.0,0.0,0.0,0.0,0.0,0.0,0.0,0.0,0.0,0.0,0.0,0.0,0.0,0.0,0.0,0.0,0.0,0.0,0.0,0.0,0.0,0.0,0.0,0.0,0.0,0.0,0.0,-2.7333,-3.0582,-3.0772,-3.3064,-3.5342,-3.3524,-3.3278,-3.3227,-3.147,-3.2664,-3.4341,-3.3932,-3.471,-3.5443,-3.4764,-3.4146,-3.3799,-3.4051,0.0,-3.4652,-3.5017,0.0,-3.5172,-3.5385,0.0,-3.6509,-3.7406,-3.8328,-3.9131,-3.9757,-3.9907,-3.9964,-3.9964,-3.9964,-4.0099,-4.0384,-3.9545,-3.9245,-3.9731,-3.9772,-3.9823,-3.9939,-3.9939,-3.9712,-3.924,-3.9077,-3.8989,-3.8989,-3.8224,-3.8054,-3.8383,-3.7683,-3.6681,-3.544,-3.4738,0.0,-3.1667,-3.1513,-3.0602,-2.9338,-2.9811,-2.9101,-2.7855,-2.7736,-2.7297,-2.6658,0.0,0.0,0.0,0.0,0.0,0.0,0.0,0.0,0.0,0.0,-1.6715,0.0,0.0,0.0,0.0,0.0,0.0,0.0,0.0,0.0,0.0,0.0,0.0,0.0,0.0,0.0,0.0,0.0,0.0,0.0,0.0,0.0,0.0,0.0,0.0,0.0,0.0,0.0,0.0,0.0,0.0,0.0,0.0,0.0,0.0,0.0,0.0,0.0,0.0,0.0,-2.7375,-3.0396,-3.1676,-3.3006,-3.409,-3.404,-3.4101,-3.4278,-3.4843,-3.5828,-3.679,-3.7016,-3.6869,-3.6485,-3.5859,-3.5261,0.0,0.0,0.0,-3.4789,-3.4898,-3.4728,0.0,-3.4941,0.0,0.0,0.0,0.0,-3.8249,0.0,0.0,0.0,0.0,0.0,0.0,0.0,0.0,-4.031,-4.0578,-4.0584,-4.0592,-4.0621,-4.0632,-4.0584,-4.0482,-4.0128,-3.9959,-3.9942,-3.9475,-3.8941,-3.8414,-3.8259,-3.7363,-3.5956,-3.5406,0.0,-3.3678,-3.256,-3.1637,-3.0852,-3.0218,-2.9487,-2.8684,-2.7986,-2.7604,-2.7417,0.0,0.0,0.0,0.0,0.0,0.0,0.0,0.0,0.0,0.0,-1.4517,-1.4767,0.0,0.0,0.0,0.0,0.0,0.0,0.0,0.0,0.0,0.0,0.0,0.0,0.0,0.0,0.0,0.0,0.0,0.0,0.0,0.0,0.0,0.0,0.0,0.0,0.0,0.0,0.0,0.0,0.0,0.0,0.0,0.0,0.0,0.0,0.0,0.0,0.0,0.0,-2.6763,-2.9188,-3.1158,-3.2654,-3.3819,-3.4756,-3.5195,-3.5505,-3.6055,-3.6692,-3.7194,-3.7084,-3.6842,-3.6452,-3.5706,0.0,0.0,0.0,0.0,-3.439,-3.4438,0.0,0.0,0.0,0.0,0.0,0.0,0.0,0.0,0.0,0.0,0.0,0.0,0.0,0.0,0.0,0.0,-4.0325,-4.0623,-4.0719,-4.076,-4.0742,-4.0785,-4.0799,-4.0797,-4.0616,-4.0514,-4.0508,-4.0098,-3.9715,-3.932,-3.895,-3.8217,-3.7256,-3.6203,0.0,-3.4801,-3.3875,-3.3108,-3.2447,-3.2041,-3.1198,-3.0093,-2.9352,-2.8748,-2.8298,0.0,0.0,0.0,0.0,0.0,0.0,0.0,-1.3094,-1.3903,-1.3017,-1.2881,-1.3228,-1.416,-1.3447,-1.2881,0.0,0.0,0.0,0.0,0.0,0.0,0.0,0.0,0.0,0.0,0.0,0.0,0.0,0.0,0.0,0.0,0.0,0.0,0.0,0.0,0.0,0.0,0.0,0.0,0.0,0.0,0.0,0.0,0.0,0.0,0.0,0.0,0.0,0.0,0.0,-2.5924,-2.7602,-2.9898,-3.1826,-3.3537,-3.4724,-3.5631,-3.6263,-3.6329,-3.6756,-3.7042,-3.6425,-3.6307,-3.6069,-3.5039,-3.4548,0.0,0.0,0.0,-3.3702,-3.3796,0.0,0.0,0.0,0.0,0.0,0.0,0.0,0.0,0.0,0.0,0.0,0.0,0.0,0.0,0.0,0.0,0.0,-4.0349,-4.0462,-4.0521,-4.0521,-4.0645,-4.0704,-4.0715,-4.0762,-4.0797,-4.0796,-4.0462,-4.0265,-4.0185,-3.9586,-3.904,-3.8474,-3.7166,0.0,0.0,-3.5199,-3.4511,-3.3836,-3.3836,-3.2892,-3.1516,-3.0749,-2.9983,-2.9254,0.0,0.0,0.0,0.0,0.0,0.0,0.0,-1.2444,-1.3017,-1.2929,-1.2881,-1.292,-1.3055,-1.2968,-1.2881,0.0,0.0,0.0,0.0,0.0,0.0,0.0,0.0,0.0,0.0,0.0,0.0,0.0,0.0,0.0,0.0,0.0,0.0,0.0,0.0,0.0,0.0,0.0,0.0,0.0,0.0,0.0,0.0,0.0,0.0,0.0,0.0,0.0,0.0,0.0,0.0,-2.5961,-2.8003,-3.03,-3.2347,-3.2897,0.0,0.0,-3.6141,-3.6822,-3.7257,-3.6423,-3.6179,-3.5725,-3.4183,0.0,0.0,0.0,-3.2929,-3.2773,-3.3189,0.0,0.0,0.0,0.0,0.0,0.0,0.0,0.0,0.0,0.0,0.0,0.0,0.0,0.0,0.0,0.0,0.0,-3.9937,-3.9977,-3.9977,-3.9977,-4.0274,-4.044,-4.0434,-4.0618,-4.075,-4.0794,-4.0706,-4.049,-4.02,-4.0137,-3.9715,-3.9007,-3.8426,0.0,0.0,-3.6481,-3.5548,-3.4528,-3.4528,-3.3684,-3.2407,-3.1531,-3.0793,-3.0072,0.0,0.0,0.0,0.0,0.0,0.0,0.0,-1.2361,-1.2881,-1.2881,-1.2881,-1.2881,-1.2881,-1.2881,-1.2881,0.0,0.0,0.0,0.0,0.0,0.0,0.0,0.0,0.0,0.0,0.0,0.0,0.0,0.0,0.0,0.0,0.0,0.0,0.0,0.0,0.0,0.0,0.0,0.0,0.0,0.0,0.0,0.0,0.0,0.0,0.0,0.0,0.0,0.0,0.0,0.0,0.0,-2.6734,-2.8585,0.0,0.0,-3.3788,-3.4772,-3.5183,-3.5548,-3.5658,-3.5036,-3.4869,-3.4537,-3.347,0.0,0.0,-3.2431,-3.2196,-3.2039,-3.1846,0.0,0.0,0.0,0.0,0.0,0.0,0.0,0.0,0.0,0.0,0.0,0.0,0.0,0.0,0.0,0.0,0.0,-3.8681,-3.9338,-3.9712,-3.9712,-3.9943,-4.0119,-4.0275,-4.044,-4.0604,-4.08,-4.0775,-4.0691,-4.0559,-4.0314,-4.0034,-3.9715,-3.8804,0.0,0.0,-3.7175,-3.6609,-3.6086,-3.5374,-3.4761,-3.4121,-3.264,-3.1916,-3.1549,0.0,0.0,0.0,0.0,0.0,0.0,-1.1606,-1.2361,-1.2881,-1.2881,-1.2881,-1.2881,-1.2881,-1.2881,-1.2881,-1.2881,0.0,0.0,0.0,0.0,0.0,0.0,0.0,0.0,0.0,0.0,0.0,0.0,0.0,0.0,0.0,0.0,0.0,0.0,0.0,0.0,0.0,0.0,0.0,0.0,0.0,0.0,0.0,0.0,0.0,0.0,0.0,0.0,0.0,0.0,0.0,0.0,0.0,0.0,0.0,0.0,-3.2974,-3.3618,-3.3963,-3.4048,-3.3963,-3.3644,-3.3548,-3.3369,0.0,0.0,0.0,-3.1556,-3.1422,-3.1253,-3.0937,0.0,0.0,0.0,0.0,0.0,0.0,0.0,0.0,0.0,0.0,0.0,0.0,0.0,0.0,0.0,0.0,0.0,-3.7362,-3.8346,-3.9024,-3.9327,-3.9507,-3.9679,-3.9872,-4.017,-4.0406,-4.062,-4.0707,-4.0779,-4.0781,-4.0517,-4.0314,-4.015,-3.9297,0.0,0.0,-3.7803,-3.7397,-3.7097,-3.6086,-3.5579,-3.5206,-3.3738,-3.2949,-3.2532,0.0,0.0,0.0,0.0,0.0,0.0,0.0,-1.2361,-1.2881,-1.2881,-1.2881,-1.2881,-1.2881,-1.2881,-1.2881,-1.2881,0.0,0.0,0.0,0.0,0.0,0.0,0.0,0.0,0.0,0.0,0.0,0.0,0.0,0.0,0.0,0.0,0.0,0.0,0.0,0.0,0.0,0.0,0.0,0.0,0.0,0.0,0.0,0.0,0.0,0.0,0.0,0.0,0.0,0.0,0.0,0.0,0.0,0.0,0.0,0.0,-3.1668,-3.2517,-3.2517,-3.2517,-3.2517,-3.2517,-3.2517,-3.24,0.0,0.0,0.0,-3.092,-3.0583,-3.0427,-3.0836,0.0,0.0,0.0,0.0,0.0,0.0,0.0,0.0,0.0,0.0,0.0,0.0,0.0,0.0,0.0,0.0,0.0,-3.6104,-3.6837,-3.7667,-3.8658,-3.8961,-3.9125,-3.9107,-3.9775,-4.0136,-4.0219,-4.0543,-4.0742,-4.0801,-4.0801,-4.0577,0.0,0.0,0.0,0.0,-3.8414,-3.792,-3.7152,-3.6603,-3.5994,-3.5341,-3.4781,-3.3735,-3.2695,0.0,0.0,0.0,0.0,0.0,0.0,0.0,-1.2061,-1.2549,-1.2842,-1.2881,-1.2881,-1.2881,-1.2881,-1.2881,-1.2881,0.0,0.0,0.0,0.0,0.0,0.0,0.0,0.0,0.0,0.0,0.0,0.0,0.0,0.0,0.0,0.0,0.0,0.0,0.0,0.0,0.0,0.0,0.0,0.0,0.0,0.0,0.0,0.0,0.0,0.0,0.0,0.0,0.0,0.0,0.0,0.0,0.0,0.0,0.0,0.0,0.0,0.0,-3.2417,-3.2484,-3.2315,-3.1595,-3.1411,-3.1316,-3.0858,0.0,0.0,-3.1027,-3.0666,-3.0192,-2.9913,-2.9403,0.0,0.0,0.0,0.0,0.0,0.0,0.0,0.0,0.0,0.0,0.0,0.0,0.0,0.0,0.0,0.0,-3.6288,-3.6545,-3.7097,-3.8099,-3.8259,-3.8548,-3.908,-3.9314,-3.9542,-3.9789,-4.0168,-4.037,-4.0402,-4.0675,-4.0734,0.0,0.0,0.0,0.0,-3.9005,-3.8615,-3.8168,-3.7614,-3.7306,-3.6935,-3.565,-3.4901,-3.4412,0.0,0.0,0.0,0.0,0.0,0.0,0.0,-1.1547,-1.2071,-1.255,-1.257,-1.2608,-1.2881,-1.2666,-1.2608,-1.2881,0.0,0.0,0.0,0.0,0.0,0.0,0.0,0.0,0.0,0.0,0.0,0.0,0.0,0.0,0.0,0.0,0.0,0.0,0.0,0.0,0.0,0.0,0.0,0.0,0.0,0.0,-2.0729,0.0,0.0,0.0,0.0,0.0,0.0,0.0,0.0,0.0,0.0,0.0,0.0,0.0,-2.941,0.0,0.0,-3.1316,-3.124,-3.079,-3.067,0.0,0.0,0.0,0.0,0.0,-3.0208,-2.9865,-2.9451,-2.8919,-2.8367,0.0,0.0,0.0,0.0,0.0,0.0,0.0,0.0,0.0,0.0,0.0,0.0,0.0,0.0,0.0,-3.4951,-3.5442,-3.6104,-3.6935,-3.738,-3.7959,-3.8637,-3.8765,-3.9096,-3.9599,-3.9851,-4.0112,-4.0389,-4.0526,-4.0668,0.0,0.0,0.0,0.0,-3.9611,-3.9301,-3.898,-3.835,-3.8074,-3.7923,-3.6325,-3.564,-3.5296,0.0,0.0,0.0,0.0,0.0,0.0,0.0,0.0,0.0,0.0,-1.1909,-1.2043,-1.2715,-1.2236,-1.2129,0.0,0.0,0.0,0.0,0.0,0.0,0.0,0.0,0.0,0.0,0.0,0.0,-1.0864,-1.0864,-1.1584,-1.2881,0.0,0.0,0.0,0.0,0.0,0.0,0.0,0.0,0.0,0.0,0.0,0.0,0.0,0.0,0.0,0.0,0.0,0.0,0.0,0.0,0.0,0.0,0.0,0.0,0.0,0.0,0.0,0.0,0.0,0.0,0.0,0.0,0.0,0.0,0.0,0.0,0.0,0.0,-2.9316,-2.9316,-2.8826,-2.8431,0.0,0.0,0.0,0.0,0.0,0.0,0.0,0.0,0.0,0.0,0.0,0.0,0.0,0.0,0.0,-3.2617,-3.3756,-3.4714,-3.5296,-3.6417,-3.7268,-3.7825,-3.8168,-3.8709,-3.9486,-3.951,-3.9901,-4.0611,-4.0319,-4.0412,0.0,0.0,0.0,0.0,-4.0136,-3.9903,-3.9534,-3.8766,-3.8474,-3.8272,-3.7008,-3.6146,-3.5579,0.0,0.0,0.0,0.0,0.0,0.0,0.0,0.0,0.0,0.0,-1.1223,-1.1634,-1.1994,-1.2403,-1.2715,0.0,0.0,0.0,0.0,0.0,0.0,0.0,0.0,0.0,0.0,0.0,0.0,-1.1566,-1.1566,-1.203,-1.2881,-1.2881,0.0,0.0,0.0,0.0,-1.36,0.0,0.0,0.0,0.0,0.0,0.0,0.0,0.0,0.0,-2.2694,-2.3009,0.0,0.0,0.0,0.0,0.0,0.0,0.0,0.0,-2.6606,-2.7387,-2.789,0.0,-2.9316,-2.8996,-2.8919,0.0,0.0,0.0,0.0,0.0,0.0,-2.8685,-2.8685,-2.8222,0.0,0.0,0.0,0.0,0.0,0.0,0.0,0.0,0.0,0.0,0.0,0.0,0.0,0.0,0.0,-3.209,-3.2565,-3.2882,-3.3616,-3.4764,-3.5044,-3.5917,-3.736,-3.7434,-3.7771,-3.83,-3.8552,-3.9111,-3.9859,-4.0111,-4.0381,0.0,0.0,0.0,-4.0208,-4.0173,-3.9948,-3.9599,-3.9395,-3.9149,-3.885,-3.8177,-3.7664,-3.7214,0.0,0.0,0.0,0.0,0.0,0.0,0.0,0.0,0.0,0.0,0.0,0.0,0.0,0.0,0.0,0.0,0.0,0.0,0.0,0.0,0.0,0.0,0.0,0.0,0.0,0.0,0.0,0.0,0.0,-1.1882,0.0,0.0,0.0,0.0,0.0,-1.3238,-1.3815,-1.4378,-1.5084,0.0,-1.7468,0.0,0.0,0.0,0.0,0.0,-2.2239,-2.2665,0.0,-2.3508,-2.3595,-2.3595,0.0,0.0,0.0,0.0,-2.5839,-2.6662,-2.7021,-2.7847,-2.8543,-2.8511,-2.8511,-2.8511,0.0,0.0,0.0,0.0,0.0,0.0,-2.8511,0.0,0.0,0.0,0.0,0.0,0.0,0.0,0.0,0.0,0.0,0.0,0.0,0.0,0.0,0.0,0.0,-3.0849,-3.1223,-3.153,-3.2024,-3.2739,-3.3048,-3.4404,-3.6786,-3.6843,-3.7157,-3.7767,-3.8038,-3.8545,-3.9258,-3.9711,-4.0116,0.0,0.0,0.0,-4.0474,-4.0373,-4.025,-4.008,-3.9901,-3.9731,-3.9486,-3.8804,-3.8407,-3.8023,0.0,0.0,0.0,0.0,0.0,0.0,0.0,0.0,0.0,0.0,0.0,0.0,0.0,0.0,0.0,0.0,0.0,0.0,0.0,0.0,0.0,0.0,0.0,0.0,0.0,0.0,0.0,0.0,0.0,0.0,0.0,0.0,-1.2881,0.0,0.0,-1.32,-1.3732,-1.4812,-1.5292,-1.5508,-1.7797,0.0,0.0,0.0,0.0,0.0,0.0,0.0,0.0,-2.3421,-2.3595,-2.3595,-2.3595,0.0,0.0,0.0,0.0,0.0,-2.6542,-2.6991,-2.759,-2.8207,-2.8367,-2.8367,0.0,0.0,0.0,0.0,0.0,0.0,0.0,0.0,0.0,0.0,0.0,0.0,0.0,0.0,0.0,0.0,0.0,0.0,0.0,0.0,0.0,0.0,0.0,-2.9325,-2.943,-2.999,-3.0417,-3.0612,-3.1146,-3.2823,-3.5642,-3.5761,-3.6282,-3.7254,-3.7416,-3.7921,-3.8765,-3.9252,-3.9749,-4.0188,0.0,0.0,-4.0761,-4.0608,-4.0616,-4.0681,-4.0326,-4.0158,-4.0003,-3.9274,-3.8821,-3.8516,0.0,0.0,0.0,0.0,0.0,0.0,0.0,0.0,0.0,0.0,0.0,0.0,0.0,0.0,0.0,0.0,0.0,0.0,0.0,0.0,0.0,0.0,0.0,0.0,0.0,0.0,0.0,0.0,0.0,0.0,-1.2881,-1.2881,-1.2881,-1.2881,-1.2881,-1.2978,-1.3055,-1.3768,-1.4591,-1.5567,-1.7003,0.0,0.0,0.0,0.0,0.0,0.0,0.0,0.0,-2.3551,-2.3595,-2.3595,-2.3595,0.0,0.0,0.0,0.0,0.0,-2.6288,-2.6662,-2.692,-2.7575,-2.771,-2.771,0.0,0.0,0.0,0.0,0.0,0.0,0.0,0.0,0.0,0.0,0.0,0.0,0.0,0.0,0.0,0.0,0.0,0.0,0.0,0.0,0.0,0.0,0.0,-2.8128,-2.8727,-2.8847,-2.9422,-3.0545,-3.0713,-3.1241,-3.2315,-3.2838,-3.3973,-3.5654,-3.5688,-3.6667,-3.8449,-3.8775,-3.9364,-4.0138,0.0,-4.0692,-4.0719,-4.0742,-4.074,-4.0696,-4.063,-4.04,-4.0081,-3.9944,-3.9675,-3.9352,0.0,0.0,0.0,0.0,0.0,0.0,0.0,0.0,0.0,0.0,0.0,0.0,0.0,0.0,0.0,0.0,0.0,0.0,0.0,0.0,0.0,0.0,0.0,0.0,0.0,0.0,0.0,0.0,0.0,-1.2187,-1.2881,-1.2881,-1.2881,-1.2881,-1.2881,-1.3055,-1.3457,-1.4332,-1.5211,-1.6127,0.0,0.0,0.0,0.0,0.0,0.0,0.0,0.0,0.0,0.0,-2.3595,-2.3595,-2.3595,0.0,0.0,0.0,0.0,0.0,-2.536,-2.6048,-2.6662,-2.6961,-2.7305,0.0,0.0,0.0,0.0,0.0,0.0,0.0,0.0,0.0,0.0,0.0,0.0,0.0,0.0,0.0,0.0,0.0,0.0,0.0,0.0,0.0,0.0,0.0,0.0,0.0,-2.7489,-2.7832,-2.8363,-2.8941,-2.8992,-2.9277,-2.9911,-3.0179,-3.1479,-3.3795,-3.441,-3.5212,-3.6183,-3.7418,-3.8207,-3.8651,0.0,-4.04,-4.044,-4.0657,-4.0758,-4.075,-4.072,-4.0595,-4.04,-4.0177,-4.0002,-3.9819,0.0,0.0,0.0,0.0,0.0,0.0,0.0,0.0,0.0,0.0,0.0,0.0,0.0,0.0,0.0,0.0,0.0,0.0,0.0,0.0,0.0,0.0,0.0,0.0,0.0,0.0,-1.0364,-1.1015,-1.1724,-1.2344,-1.2881,-1.2881,-1.2881,0.0,-1.3065,-1.3433,-1.4068,-1.5222,-1.6224,-1.7178,0.0,0.0,0.0,0.0,0.0,0.0,0.0,0.0,0.0,0.0,0.0,0.0,0.0,0.0,0.0,-2.3595,-2.3969,-2.4373,-2.4537,-2.536,-2.6213,-2.6512,0.0,0.0,0.0,0.0,0.0,0.0,0.0,0.0,0.0,0.0,0.0,0.0,0.0,0.0,0.0,0.0,0.0,0.0,0.0,0.0,0.0,0.0,0.0,0.0,0.0,0.0,-2.6283,-2.6759,-2.7137,-2.7357,-2.7357,-2.7645,-2.8271,-2.8415,-2.9706,-3.2052,-3.3076,-3.3722,-3.4051,-3.5864,-3.6802,-3.7108,-3.8799,-3.9681,-3.9946,-4.0393,-4.0667,-4.0799,-4.074,-4.072,-4.0662,-4.0363,-4.0233,-4.0158,0.0,0.0,0.0,0.0,0.0,0.0,0.0,0.0,0.0,0.0,0.0,0.0,0.0,0.0,0.0,0.0,0.0,0.0,0.0,0.0,0.0,0.0,0.0,0.0,0.0,-1.0364,-1.1065,-1.1715,-1.2452,-1.2832,-1.2881,-1.2881,-1.2881,-1.2929,-1.3505,-1.4058,-1.4605,-1.5834,-1.73,-1.8866,-1.9677,0.0,0.0,0.0,0.0,0.0,0.0,0.0,0.0,0.0,0.0,0.0,0.0,0.0,-2.3595,-2.3595,-2.3625,-2.3819,-2.4403,-2.4657,-2.5061,-2.6288,0.0,0.0,0.0,0.0,0.0,0.0,0.0,0.0,0.0,0.0,0.0,0.0,0.0,0.0,0.0,0.0,0.0,0.0,0.0,0.0,0.0,0.0,0.0,0.0,0.0,0.0,-2.5453,-2.5508,-2.5892,-2.6563,-2.6563,-2.693,-2.766,-2.8238,-2.9234,-3.0649,-3.1281,-3.2219,-3.341,-3.4373,-3.5299,-3.627,-3.7378,-3.8334,-3.915,-3.9923,-4.0459,-4.0801,-4.0799,-4.0753,-4.0696,-4.0681,-4.0569,-4.0422,0.0,0.0,0.0,0.0,0.0,0.0,0.0,0.0,0.0,0.0,0.0,0.0,0.0,0.0,0.0,0.0,0.0,0.0,0.0,0.0,0.0,0.0,0.0,-1.0261,-1.0415,-1.0661,-1.0712,-1.0568,-1.1674,-1.2236,-1.2236,-1.2666,0.0,0.0,-1.3965,-1.4795,-1.5648,-1.6571,-1.7727,-1.9068,-1.9747,-2.046,0.0,0.0,0.0,0.0,0.0,0.0,0.0,0.0,-2.3595,-2.3595,0.0,-2.3595,-2.3595,-2.3595,-2.3595,-2.3655,-2.3924,-2.4298,-2.4701,-2.5241,0.0,0.0,0.0,0.0,0.0,0.0,0.0,0.0,0.0,0.0,0.0,0.0,0.0,0.0,0.0,0.0,0.0,0.0,0.0,0.0,0.0,0.0,0.0,0.0,0.0,0.0,-2.4738,-2.5563,-2.6014,-2.5837,-2.6707,-2.71,-2.693,-2.7595,-2.8213,-2.8722,-2.9699,-3.0588,-3.145,-3.2581,-3.3508,-3.4314,-3.5988,-3.6995,-3.7556,-3.8908,-3.9644,-3.9984,-4.057,-4.0766,-4.0694,-4.0698,-4.0677,-4.0604,0.0,0.0,0.0,0.0,0.0,0.0,0.0,0.0,0.0,0.0,0.0,0.0,0.0,0.0,0.0,0.0,0.0,0.0,0.0,0.0,0.0,0.0,0.0,-1.0568,-1.0813,-1.0813,-1.0661,-1.0415,-1.1575,-1.2129,-1.2187,0.0,0.0,0.0,-1.456,-1.5598,-1.6869,-1.7529,-1.8499,-1.9607,-2.007,-2.0729,0.0,0.0,0.0,0.0,0.0,0.0,0.0,0.0,-2.3595,-2.3595,0.0,0.0,-2.3595,-2.3595,-2.3595,-2.3595,-2.3595,-2.3939,-2.4358,0.0,0.0,0.0,0.0,0.0,0.0,0.0,0.0,0.0,0.0,0.0,0.0,0.0,0.0,0.0,0.0,0.0,0.0,0.0,0.0,0.0,0.0,0.0,0.0,0.0,0.0,0.0,0.0,-2.4881,-2.5329,-2.5063,-2.604,-2.6534,-2.651,-2.6982,-2.7357,-2.7625,-2.8448,-2.9134,-2.9777,-3.1016,-3.1885,-3.2493,-3.4342,-3.5454,-3.6087,-3.758,-3.8682,-3.948,-4.0431,-4.0776,-4.0738,-4.0731,-4.072,-4.0716,0.0,0.0,0.0,0.0,0.0,0.0,0.0,0.0,0.0,0.0,0.0,0.0,0.0,0.0,0.0,0.0,0.0,0.0,0.0,0.0,0.0,0.0,0.0,-1.1466,-1.0813,-1.0813,-1.1116,-1.1814,-1.251,-1.2881,-1.2881,-1.2929,0.0,0.0,-1.5255,-1.6492,-1.8118,-1.8722,-1.9671,-2.0795,-2.0795,-2.1561,-2.2558,0.0,0.0,0.0,0.0,0.0,0.0,0.0,-2.361,-2.3595,0.0,0.0,0.0,-2.3595,-2.3595,-2.3595,-2.3595,-2.3595,0.0,0.0,0.0,0.0,0.0,0.0,0.0,0.0,0.0,0.0,0.0,0.0,0.0,0.0,0.0,0.0,0.0,0.0,0.0,0.0,0.0,0.0,0.0,0.0,0.0,0.0,0.0,0.0,0.0,-2.3138,-2.3484,-2.4292,-2.4292,-2.5007,-2.6457,-2.651,-2.6878,-2.7625,-2.7575,-2.791,-2.8559,-2.9717,-3.0517,-3.097,-3.2455,-3.3713,-3.487,-3.6017,-3.7629,-3.9477,-4.0412,-4.08,-4.0781,-4.0801,-4.0812,-4.0789,0.0,0.0,0.0,0.0,0.0,0.0,0.0,0.0,0.0,0.0,0.0,0.0,0.0,0.0,0.0,0.0,0.0,0.0,0.0,0.0,0.0,0.0,0.0,0.0,0.0,0.0,-1.0914,-1.1116,-1.1774,-1.2129,0.0,0.0,0.0,-1.4302,0.0,0.0,0.0,0.0,-1.9275,-2.0105,-2.0105,-2.0346,-2.067,0.0,0.0,0.0,0.0,0.0,0.0,0.0,0.0,0.0,-2.3098,0.0,0.0,-2.3595,-2.3595,-2.3595,-2.3595,-2.3595,0.0,0.0,0.0,0.0,0.0,0.0,0.0,0.0,0.0,0.0,0.0,0.0,0.0,0.0,0.0,0.0,0.0,0.0,0.0,0.0,0.0,0.0,0.0,0.0,0.0,0.0,0.0,0.0,0.0,-2.3662,-2.3767,-2.3484,-2.4993,-2.5783,-2.5728,-2.6229,-2.6878,-2.7575,-2.7086,-2.7429,-2.8511,-2.8873,-2.9553,-3.0534,-3.1224,-3.2125,-3.3188,-3.5144,-3.6803,-3.8259,-3.9369,-3.983,-3.9898,-4.0567,-4.0791,-4.0794,0.0,0.0,0.0,0.0,0.0,0.0,0.0,0.0,0.0,0.0,0.0,0.0,0.0,0.0,0.0,0.0,0.0,0.0,0.0,0.0,0.0,0.0,0.0,0.0,0.0,-1.1283,-1.1633,0.0,0.0,0.0,0.0,0.0,0.0,-1.4861,0.0,-1.7398,0.0,0.0,-1.9371,-1.9798,-1.9798,-1.9952,-2.0194,0.0,0.0,0.0,0.0,0.0,0.0,0.0,0.0,0.0,0.0,0.0,0.0,-2.3508,-2.3421,-2.3275,-2.3551,0.0,0.0,0.0,0.0,0.0,0.0,0.0,0.0,0.0,0.0,0.0,0.0,0.0,0.0,0.0,0.0,0.0,0.0,0.0,0.0,0.0,0.0,0.0,0.0,0.0,0.0,0.0,0.0,0.0,0.0,-2.3543,-2.359,-2.3138,-2.4425,-2.5106,-2.4951,-2.5673,-2.6443,-2.7152,-2.6982,-2.7342,-2.814,-2.8367,-2.8919,-2.9613,-3.0516,-3.1436,-3.2456,-3.4497,-3.5888,-3.6822,-3.815,-3.8684,-3.8845,-3.9874,-4.0272,-4.0377,0.0,0.0,0.0,0.0,0.0,0.0,0.0,0.0,0.0,0.0,0.0,0.0,0.0,0.0,0.0,0.0,0.0,0.0,0.0,0.0,0.0,0.0,0.0,0.0,0.0,0.0,0.0,0.0,0.0,0.0,0.0,0.0,-1.4447,-1.5933,0.0,-1.7645,0.0,-1.9423,-1.9747,-1.9798,-1.9798,-2.0156,-2.0646,-2.0055,0.0,0.0,0.0,0.0,0.0,0.0,0.0,0.0,-2.3231,-2.3054,-2.2785,-2.3377,-2.3143,-2.283,0.0,0.0,0.0,0.0,0.0,0.0,0.0,0.0,0.0,0.0,0.0,0.0,0.0,0.0,0.0,0.0,0.0,0.0,0.0,0.0,0.0,0.0,0.0,0.0,0.0,0.0,0.0,0.0,0.0,0.0,0.0,-2.3053,-2.3078,-2.3078,-2.3185,-2.3543,-2.4292,-2.4951,-2.5673,-2.6404,-2.7034,-2.7357,-2.7509,-2.814,-2.8463,-2.8606,-3.017,-3.1342,-3.2292,-3.3927,-3.4811,-3.5277,-3.6804,-3.7479,-3.7713,-3.8823,-3.9393,-3.9677,0.0,0.0,0.0,0.0,0.0,0.0,0.0,0.0,0.0,0.0,0.0,0.0,0.0,0.0,0.0,0.0,0.0,0.0,0.0,0.0,0.0,0.0,0.0,0.0,0.0,0.0,0.0,0.0,0.0,0.0,0.0,0.0,0.0,-1.5954,0.0,-1.7912,-1.8715,-1.8874,-1.9254,-1.9798,-1.9798,-1.9901,-2.0003,-1.985,-1.9901,0.0,0.0,0.0,0.0,0.0,0.0,0.0,-2.1704,-2.1988,-2.274,-2.2844,-2.2785,-2.283,0.0,0.0,0.0,0.0,0.0,0.0,0.0,0.0,0.0,0.0,0.0,0.0,0.0,0.0,0.0,0.0,0.0,0.0,0.0,0.0,0.0,0.0,0.0,0.0,0.0,0.0,0.0,0.0,0.0,0.0,-2.2426,-2.2899,-2.3078,-2.3078,-2.3708,-2.4118,-2.4292,-2.4452,-2.4894,0.0,-2.5217,-2.5618,-2.6774,-2.7444,-2.8042,-2.8559,-2.9859,-3.0711,-3.1285,-3.2398,-3.3273,-3.4083,-3.5324,-3.6137,-3.6733,-3.7698,-3.8647,-3.9488,0.0,0.0,0.0,0.0,0.0,0.0,0.0,0.0,0.0,0.0,0.0,0.0,0.0,0.0,0.0,0.0,0.0,0.0,0.0,0.0,0.0,0.0,0.0,0.0,0.0,0.0,0.0,0.0,0.0,0.0,0.0,0.0,0.0,-1.568,0.0,-1.7302,-1.7677,-1.8394,-1.8927,-1.9307,-1.9643,-1.9798,-1.9798,-1.9798,-1.9798,-1.985,-2.0207,0.0,0.0,0.0,0.0,0.0,0.0,0.0,-2.1846,-2.2161,-2.2021,-2.1927,0.0,0.0,0.0,0.0,0.0,0.0,0.0,0.0,0.0,0.0,0.0,0.0,0.0,0.0,0.0,0.0,0.0,0.0,0.0,0.0,0.0,0.0,0.0,0.0,0.0,0.0,0.0,0.0,0.0,-2.0594,-2.1378,-2.1648,-2.1984,-2.2347,-2.2994,-2.3367,-2.3367,-2.3987,-2.4509,-2.4851,-2.4851,-2.5398,-2.651,-2.7255,-2.7944,-2.8559,-2.9451,-3.0159,-3.0687,-3.1668,-3.2327,-3.2857,-3.4044,-3.4684,-3.5176,-3.6532,-3.7408,-3.8003,0.0,0.0,0.0,0.0,0.0,0.0,0.0,0.0,0.0,0.0,0.0,0.0,0.0,0.0,0.0,0.0,0.0,0.0,0.0,0.0,0.0,0.0,0.0,0.0,0.0,0.0,0.0,0.0,0.0,0.0,0.0,0.0,0.0,-1.5391,0.0,-1.6652,-1.6922,-1.807,-1.8608,-1.8768,-1.9371,-1.9592,-1.9631,-1.9747,-1.9798,-1.9798,-1.9798,-1.985,-2.0055,-2.0497,0.0,0.0,0.0,0.0,-2.0894,-2.139,-2.121,-2.093,0.0,0.0,0.0,0.0,0.0,0.0,0.0,0.0,0.0,0.0,0.0,0.0,0.0,0.0,0.0,0.0,0.0,0.0,0.0,0.0,0.0,0.0,0.0,0.0,0.0,0.0,0.0,0.0,0.0,-1.9353,-2.0234,-2.0375,-2.0722,-2.1493,-2.1933,-2.2171,-2.2171,-2.3238,-2.3869,-2.3974,-2.4797,-2.5508,-2.6176,-2.7034,-2.7745,-2.8367,-2.8996,-2.954,-3.0064,-3.1116,-3.1588,-3.1773,-3.2865,-3.3424,-3.3792,-3.5275,-3.6026,-3.6455,0.0,0.0,0.0,0.0,0.0,0.0,0.0,0.0,0.0,0.0,0.0,0.0,0.0,0.0,0.0,0.0,0.0,0.0,0.0,0.0,0.0,0.0,0.0,0.0,0.0,0.0,0.0,0.0,0.0,0.0,0.0,0.0,0.0,-1.537,0.0,0.0,-1.8382,-1.7961,-1.8112,-1.8715,-1.8821,-1.8874,-1.8927,-1.9579,-1.9798,-1.9798,-1.9798,-2.0144,-2.0597,-2.0105,-2.0295,0.0,0.0,0.0,-2.0795,-2.0894,-2.0845,0.0,0.0,0.0,0.0,0.0,0.0,0.0,0.0,0.0,0.0,0.0,0.0,0.0,0.0,0.0,0.0,0.0,0.0,0.0,0.0,0.0,0.0,0.0,0.0,0.0,0.0,0.0,0.0,0.0,-1.777,-1.8242,-1.963,-2.0172,-2.0722,-2.1493,-2.1556,-2.1594,-2.1594,-2.1781,-2.2116,-2.2597,-2.3812,-2.4509,-2.4624,-2.6,-2.7034,-2.776,-2.8367,-2.8654,-2.8826,-3.0005,-3.0721,-3.1091,-3.1774,-3.2666,-3.3632,-3.388,-3.4955,-3.6323,0.0,0.0,0.0,0.0,0.0,0.0,0.0,0.0,0.0,0.0,0.0,0.0,0.0,0.0,0.0,0.0,0.0,0.0,0.0,0.0,0.0,-0.9211,-0.9263,-0.9361,0.0,0.0,0.0,0.0,0.0,0.0,0.0,-1.2304,-1.3711,0.0,0.0,0.0,0.0,0.0,-1.7413,-1.8112,-1.8555,-1.8715,-1.8768,-1.9527,-1.9527,-1.9254,-1.9643,-2.0003,-2.0194,-1.9901,-2.0003,-2.0207,-1.9901,0.0,0.0,0.0,0.0,0.0,0.0,0.0,0.0,0.0,0.0,0.0,0.0,0.0,0.0,0.0,0.0,0.0,0.0,0.0,0.0,0.0,0.0,0.0,0.0,0.0,0.0,0.0,0.0,0.0,0.0,0.0,0.0,0.0,-1.6555,-1.6717,-1.7801,-1.8453,-1.9195,-1.9921,-2.069,-2.1029,-2.1029,-2.133,-2.1606,-2.1857,-2.2745,-2.3404,-2.3847,-2.5246,-2.6283,-2.7034,-2.8076,-2.8511,-2.8559,-2.9451,-3.0117,-3.0623,-3.1104,-3.1846,-3.2666,-3.335,-3.4099,-3.488,0.0,0.0,0.0,0.0,0.0,0.0,0.0,0.0,0.0,0.0,0.0,0.0,0.0,0.0,0.0,0.0,0.0,0.0,0.0,0.0,0.0,-0.8804,-0.8804,-0.8804,-0.8804,0.0,0.0,0.0,0.0,0.0,-1.0027,-1.1873,-1.3582,0.0,-1.5294,0.0,0.0,0.0,0.0,-1.7633,-1.8004,-1.8221,-1.8501,0.0,-1.8886,-1.8501,-1.9044,-1.9371,-1.9475,-1.9307,-1.9371,-1.9527,-1.9527,-1.9527,0.0,0.0,0.0,0.0,0.0,0.0,0.0,0.0,0.0,0.0,0.0,0.0,0.0,0.0,0.0,0.0,0.0,0.0,0.0,0.0,0.0,0.0,0.0,0.0,0.0,0.0,0.0,0.0,0.0,0.0,0.0,0.0,-1.569,-1.57,-1.6436,-1.7034,-1.7688,-1.8394,-1.939,-1.9998,-2.0159,-2.0949,-2.128,-2.128,-2.1845,-2.2369,-2.2975,-2.4282,-2.5218,-2.5827,-2.7525,-2.8271,-2.8319,-2.8904,-2.9451,-2.9892,-3.0508,-3.1104,-3.1683,-3.2742,-3.3322,-3.3718,0.0,0.0,0.0,0.0,0.0,0.0,0.0,0.0,0.0,0.0,0.0,0.0,0.0,0.0,0.0,-0.891,-0.8804,-0.8804,-0.8804,-0.8804,-0.8804,-0.8804,-0.8804,0.0,-0.8804,0.0,0.0,0.0,0.0,0.0,-1.0865,-1.2289,-1.3468,-1.4332,-1.505,-1.5806,-1.6368,0.0,0.0,0.0,-1.6866,-1.7034,0.0,0.0,0.0,0.0,0.0,0.0,-1.8661,-1.7961,-1.8178,-1.8768,-1.8768,-1.8768,-1.8768,0.0,0.0,0.0,0.0,0.0,0.0,0.0,0.0,0.0,0.0,0.0,0.0,0.0,0.0,0.0,0.0,0.0,0.0,0.0,0.0,0.0,0.0,0.0,0.0,0.0,0.0,0.0,0.0,0.0,0.0,0.0,-1.541,-1.57,-1.6436,-1.6539,-1.6922,-1.7633,-1.771,-1.8104,-1.8815,-2.0081,-2.0756,-2.0769,-2.1267,-2.1587,-2.1655,-2.2906,-2.3533,-2.3725,-2.6468,-2.7675,-2.771,-2.8286,-2.8559,-2.8701,-2.9892,-3.0583,-3.1014,-3.1647,-3.262,-3.3613,0.0,0.0,0.0,0.0,0.0,0.0,0.0,0.0,0.0,0.0,0.0,0.0,0.0,0.0,-0.8573,-0.8804,-0.8804,-0.8804,-0.8804,-0.8804,-0.8804,-0.8804,-0.8804,-0.8804,-0.8804,0.0,0.0,0.0,0.0,-0.9948,-1.0429,-1.1631,-1.2381,-1.2749,-1.456,-1.5526,-1.5748,-1.5526,0.0,0.0,-1.6595,-1.6652,0.0,0.0,0.0,0.0,0.0,0.0,0.0,-1.7688,-1.7797,-1.8004,-1.8004,-1.8004,-1.8004,0.0,0.0,0.0,0.0,0.0,0.0,0.0,0.0,0.0,0.0,0.0,0.0,0.0,0.0,0.0,0.0,0.0,0.0,0.0,0.0,0.0,0.0,0.0,0.0,0.0,0.0,0.0,0.0,0.0,0.0,0.0,0.0,-1.5526,-1.5748,-1.6255,-1.6595,-1.6866,-1.7357,-1.795,-1.8715,-1.9185,-1.9666,-2.0112,-2.0232,-2.0557,-2.1033,-2.1843,-2.246,-2.2963,-2.4833,-2.6093,-2.693,-2.7645,-2.814,-2.8559,-2.8966,-2.9729,-3.0558,-3.1065,-3.1722,-3.2556,0.0,0.0,0.0,0.0,0.0,0.0,0.0,0.0,0.0,0.0,0.0,0.0,0.0,0.0,-0.7509,-0.7996,-0.8533,-0.8699,-0.8427,-0.8427,-0.8427,-0.8427,-0.8209,-0.8049,-0.8049,0.0,0.0,0.0,0.0,0.0,0.0,-1.1254,-1.1834,-1.1888,-1.4016,-1.4991,0.0,0.0,0.0,-1.6492,0.0,-1.6265,-1.6549,0.0,0.0,0.0,0.0,0.0,0.0,0.0,-1.7024,-1.7246,0.0,0.0,0.0,0.0,0.0,0.0,0.0,0.0,0.0,0.0,0.0,0.0,0.0,0.0,0.0,0.0,0.0,0.0,0.0,0.0,0.0,0.0,0.0,0.0,0.0,0.0,0.0,0.0,0.0,0.0,0.0,0.0,0.0,0.0,0.0,0.0,-1.541,-1.5864,-1.6151,-1.6151,-1.6866,-1.7578,-1.8328,-1.8555,-1.8939,-1.9423,-1.9353,-1.9425,-1.9667,-2.0483,-2.1104,-2.1658,-2.3192,-2.4607,-2.5916,-2.6828,-2.7494,-2.7864,-2.8319,-2.9012,-2.9805,-3.0443,-3.1026,-3.1629,0.0,0.0,0.0,0.0,0.0,0.0,0.0,0.0,0.0,0.0,0.0,0.0,0.0,0.0,0.0,-0.6588,-0.7883,-0.8427,-0.7723,-0.767,-0.767,-0.767,-0.6966,-0.6588,-0.6588,0.0,0.0,0.0,0.0,0.0,0.0,0.0,-1.171,0.0,-1.3416,-1.4145,-1.4204,0.0,-1.5806,-1.6436,0.0,-1.5806,-1.6379,0.0,0.0,0.0,-1.541,-1.5864,0.0,-1.5642,0.0,0.0,0.0,0.0,0.0,0.0,0.0,0.0,0.0,0.0,0.0,0.0,0.0,0.0,0.0,0.0,0.0,0.0,0.0,0.0,0.0,0.0,0.0,0.0,0.0,0.0,0.0,0.0,0.0,0.0,0.0,0.0,0.0,0.0,0.0,0.0,-1.541,-1.541,-1.541,-1.541,-1.541,-1.541,-1.6093,-1.681,-1.7578,-1.8286,-1.8661,-1.8661,-1.8661,-1.8274,-1.7644,-1.8931,-1.9567,-1.9701,-2.1699,-2.3232,-2.4498,-2.5863,-2.6481,-2.6573,-2.7913,-2.8463,-2.8654,-2.9805,-3.0501,-3.0976,0.0,0.0,0.0,0.0,0.0,0.0,0.0,0.0,0.0,0.0,0.0,0.0,0.0,0.0,0.0,-0.6588,-0.6966,-0.7128,-0.6912,-0.6912,-0.6912,-0.6912,-0.6696,-0.6588,-0.6588,-0.696,0.0,0.0,0.0,0.0,0.0,0.0,0.0,0.0,-1.1695,-1.2443,-1.2618,-1.456,0.0,0.0,-1.5468,-1.5526,0.0,0.0,0.0,0.0,0.0,-1.5526,-1.57,0.0,-1.5526,-1.569,0.0,0.0,0.0,0.0,0.0,0.0,-1.541,0.0,0.0,0.0,0.0,0.0,0.0,0.0,0.0,0.0,0.0,0.0,0.0,0.0,0.0,0.0,0.0,0.0,0.0,0.0,0.0,0.0,0.0,0.0,0.0,0.0,0.0,0.0,-1.541,-1.541,-1.541,-1.541,-1.541,-1.541,-1.5584,-1.6083,-1.681,-1.7034,-1.7357,-1.7895,-1.7357,-1.7302,-1.7633,-1.7999,-1.8441,-1.9018,-2.0548,-2.144,-2.1914,-2.412,-2.536,-2.5936,-2.6725,-2.7665,-2.8559,-2.8873,-2.9597,-3.0534,0.0,0.0,0.0,0.0,0.0,0.0,0.0,0.0,0.0,0.0,0.0,0.0,0.0,0.0,0.0,0.0,-0.6263,-0.6475,-0.6145,-0.6145,-0.6145,-0.6145,-0.5878,-0.5753,-0.578,-0.6224,0.0,0.0,0.0,0.0,0.0,0.0,0.0,0.0,0.0,0.0,0.0,0.0,0.0,0.0,-1.5235,0.0,0.0,-1.541,-1.541,0.0,0.0,0.0,-1.5294,-1.4628,-1.4628,0.0,0.0,0.0,0.0,0.0,0.0,0.0,0.0,0.0,0.0,0.0,0.0,0.0,-1.3726,-1.3373,-1.313,0.0,0.0,0.0,0.0,0.0,0.0,0.0,0.0,0.0,0.0,0.0,0.0,0.0,0.0,0.0,0.0,-1.541,-1.541,-1.541,-1.541,-1.541,-1.541,-1.541,-1.541,-1.541,-1.541,-1.5748,-1.6482,-1.6492,-1.6708,-1.7146,-1.6708,-1.6539,-1.6687,-1.7024,-1.7357,-1.7863,-1.8939,-1.9582,-2.0019,-2.1766,-2.3351,-2.4844,-2.5796,-2.676,-2.7758,-2.8307,-2.8966,-2.9613,0.0,0.0,0.0,0.0,0.0,0.0,0.0,0.0,0.0,0.0,0.0,0.0,0.0,0.0,0.0,0.0,-0.5664,-0.6095,-0.5433,-0.5324,-0.5265,-0.5265,-0.4636,-0.4323,-0.4394,-0.5176,0.0,0.0,0.0,0.0,0.0,0.0,0.0,0.0,0.0,0.0,0.0,0.0,0.0,-1.4025,-1.4923,-1.5294,0.0,0.0,-1.5108,0.0,-1.4332,-1.451,-1.4923,-1.3485,-1.3485,0.0,0.0,0.0,0.0,0.0,-1.5108,0.0,0.0,0.0,0.0,0.0,0.0,0.0,-1.2887,-1.2826,-1.2765,-1.2818,0.0,0.0,0.0,0.0,0.0,0.0,0.0,0.0,0.0,0.0,0.0,0.0,0.0,0.0,-1.541,-1.541,-1.541,-1.541,-1.541,-1.541,-1.541,-1.541,-1.541,-1.541,-1.541,-1.569,-1.6379,-1.6379,-1.6379,-1.6379,-1.6379,-1.6036,-1.541,-1.6151,-1.6492,-1.6539,-1.7302,-1.795,-1.8643,-1.9238,-2.1031,-2.3547,-2.4867,-2.5827,-2.6647,-2.7852,-2.8354,-2.8559,0.0,0.0,0.0,0.0,0.0,0.0,0.0,0.0,0.0,0.0,0.0,0.0,0.0,0.0,0.0,0.0,0.0,-0.4842,-0.468,-0.4064,-0.3729,-0.3785,-0.3085,-0.2677,-0.2695,-0.3684,0.0,0.0,0.0,0.0,0.0,0.0,0.0,0.0,0.0,0.0,0.0,0.0,0.0,-1.2381,-1.3837,0.0,-1.4392,-1.3726,-1.3494,-1.3433,-1.3304,-1.3373,-1.3425,-1.313,-1.313,-1.3243,0.0,0.0,0.0,0.0,0.0,0.0,0.0,0.0,0.0,0.0,0.0,0.0,-1.2012,-1.1531,-1.1233,0.0,0.0,0.0,0.0,0.0,0.0,0.0,0.0,0.0,0.0,0.0,0.0,0.0,0.0,0.0,-1.541,-1.541,-1.541,-1.541,-1.541,-1.541,-1.541,-1.541,-1.541,-1.541,-1.541,-1.5468,-1.5633,-1.5633,-1.5633,-1.5633,-1.5633,-1.5526,-1.541,-1.6151,-1.6492,-1.6539,-1.7302,-1.7688,-1.7852,-1.8553,-2.0185,-2.224,-2.352,-2.4731,-2.59,-2.6658,-2.7634,-2.8511,0.0,0.0,0.0,0.0,0.0,0.0,0.0,0.0,0.0,0.0,0.0,0.0,0.0,0.0,0.0,0.0,0.0,0.0,0.0,0.0,-0.328,-0.2811,-0.2439,-0.2236,-0.2334,-0.2845,-0.3613,0.0,0.0,0.0,0.0,0.0,0.0,0.0,0.0,0.0,0.0,0.0,-1.1834,-1.1888,-1.3122,0.0,-1.3545,-1.3122,-1.3009,-1.2948,-1.2573,-1.2151,-1.1849,-1.2274,-1.2389,0.0,0.0,-1.2696,-1.3009,0.0,-1.3009,-1.2887,0.0,0.0,0.0,-1.1911,0.0,0.0,0.0,-1.0863,-1.0681,-1.1108,-1.1226,0.0,0.0,0.0,0.0,0.0,0.0,0.0,0.0,0.0,0.0,0.0,0.0,0.0,-1.4213,-1.4213,-1.4213,-1.4213,-1.4213,-1.4213,-1.4213,-1.4569,-1.4805,-1.4805,-1.5167,-1.541,-1.541,-1.541,-1.541,-1.541,-1.541,-1.541,-1.541,-1.5748,-1.5921,-1.5979,-1.6358,-1.6698,-1.709,-1.7852,-1.8952,-2.0422,-2.2058,-2.3299,-2.4262,-2.5301,-2.6273,-2.7105,0.0,0.0,0.0,0.0,0.0,0.0,0.0,0.0,0.0,0.0,0.0,0.0,0.0,0.0,0.0,0.0,0.0,0.0,0.0,0.0,0.0,-0.2027,-0.1855,-0.1883,-0.1993,-0.2199,-0.2685,0.0,0.0,0.0,0.0,0.0,0.0,0.0,0.0,0.0,0.0,0.0,0.0,-1.1655,0.0,-1.2642,-1.2757,-1.2581,-1.252,-1.2458,-1.1779,-1.1163,-1.0681,-1.1351,-1.1593,-1.1593,-1.1593,-1.202,0.0,0.0,0.0,0.0,0.0,0.0,0.0,0.0,0.0,-1.0624,0.0,0.0,0.0,-1.0624,0.0,0.0,0.0,0.0,0.0,0.0,0.0,0.0,0.0,0.0,0.0,0.0,0.0,0.0,-1.3009,-1.3009,-1.3009,-1.3009,-1.3009,-1.3009,-1.3009,-1.3786,-1.4213,-1.4213,-1.4991,-1.541,-1.541,-1.5235,-1.5177,-1.5177,-1.4991,-1.4991,-1.5177,-1.5177,-1.5225,-1.541,-1.541,-1.5748,-1.6368,-1.7079,-1.7743,-1.8483,-2.0759,-2.2005,-2.2655,-2.3851,-2.4797,-2.551,0.2343,0.2063,0.0,0.0,0.0,0.0,0.0,0.0,0.0,0.0,0.0,0.0,0.0,0.0,0.0,0.0,0.0,0.0,-0.2211,0.0,0.0,0.0,-0.0569,-0.0257,-0.0258,-0.1055,-0.1469,-0.1608,0.0,0.0,0.0,0.0,0.0,0.0,-0.6915,0.0,0.0,0.0,-1.0034,0.0,-1.087,-1.1288,0.0,-1.1108,-1.087,-1.087,-1.0744,-1.0681,-1.0624,0.0,-1.0744,-1.0744,0.0,-1.0807,-1.087,0.0,0.0,0.0,0.0,0.0,0.0,0.0,-1.0624,0.0,0.0,0.0,-1.0624,-1.0624,0.0,0.0,0.0,0.0,0.0,0.0,0.0,0.0,0.0,0.0,0.0,0.0,0.0,0.0,0.0,-1.3009,-1.3009,-1.3009,-1.3009,-1.3009,-1.3009,-1.3786,-1.4213,-1.4213,-1.4991,-1.541,-1.541,-1.4688,-1.4332,-1.4332,-1.3606,-1.3674,-1.4332,-1.4332,-1.4756,-1.541,-1.541,-1.5468,-1.5575,-1.6312,-1.6652,-1.7034,-1.9798,-2.1305,-2.1961,-2.2669,-2.3745,-2.4867,0.0,0.0,0.0,0.0,0.0,0.0,0.0,0.0,0.0,0.0,0.0,0.0,0.0,0.0,0.0,0.0,0.0,-0.1971,0.0,0.0,0.0,0.0,0.0,0.0,0.0,-0.0334,-0.0806,-0.1273,-0.2609,0.0,0.0,0.0,0.0,0.0,-0.6461,0.0,-0.7827,0.0,0.0,0.0,0.0,0.0,0.0,-1.0548,-1.0301,-0.9849,-0.9849,-0.9524,-0.9064,0.0,-0.9454,0.0,0.0,0.0,0.0,0.0,0.0,0.0,0.0,0.0,0.0,0.0,0.0,0.0,-1.0498,0.0,-1.0624,0.0,0.0,0.0,0.0,0.0,0.0,0.0,-1.0481,0.0,0.0,0.0,0.0,0.0,0.0,0.0,0.0,0.0,0.0,0.0,-1.1608,-1.1608,-1.1608,-1.2389,-1.281,-1.281,-1.3606,-1.4034,-1.4034,-1.3666,-1.3485,-1.3485,-1.3191,-1.3425,-1.4213,-1.4213,-1.4628,-1.541,-1.541,-1.541,-1.5468,-1.6208,-1.6492,-1.6652,-1.8305,-1.9352,-2.0087,-2.0732,-2.1824,-2.3164,0.0,0.0,0.0,0.0,0.0,0.0,0.0,0.0,0.0,0.0,0.0,0.0,-0.0737,-0.0807,0.0,0.0,-0.1426,-0.1315,0.0,0.0,-0.0672,0.0,0.0,0.0,0.0,0.0,-0.0337,-0.0939,-0.1876,0.0,0.0,0.0,0.0,0.0,0.0,-0.6461,-0.6785,0.0,0.0,-0.8941,-0.8941,-0.8941,-0.9005,-0.9652,-0.9518,-0.8941,-0.8941,-0.8549,-0.8027,-0.8027,-0.842,0.0,-0.8221,0.0,0.0,0.0,0.0,0.0,-1.0168,0.0,0.0,0.0,0.0,0.0,0.0,0.0,0.0,0.0,0.0,0.0,0.0,0.0,0.0,0.0,0.0,0.0,0.0,0.0,0.0,0.0,0.0,0.0,0.0,0.0,0.0,-1.0624,-1.0624,-1.0624,-1.0624,-1.1351,-1.1834,-1.1834,-1.2573,-1.3009,-1.3009,-1.2757,-1.2696,-1.2696,-1.2458,-1.2757,-1.3537,-1.3537,-1.3957,-1.4746,-1.4746,-1.4746,-1.4805,-1.5313,-1.5545,-1.5603,-1.6384,-1.7092,-1.7904,-1.9036,-2.0194,-2.1416,0.446,0.3846,0.0,0.0,0.0,0.0,0.0,0.0,0.0,0.0,0.0,0.0,0.0,0.0,0.0,0.0,0.0,-0.0067,0.0,0.0,0.0,0.0,0.0,0.0,0.0,0.0,0.0,-0.0067,-0.094,-0.134,0.0,0.0,0.0,0.0,0.0,-0.5881,-0.6719,-0.6785,-0.7242,-0.8027,-0.8027,-0.8027,-0.8027,0.0,-0.8091,-0.8027,-0.8027,0.0,0.0,-0.8027,-0.8027,0.0,0.0,0.0,0.0,0.0,0.0,0.0,0.0,0.0,0.0,-1.0168,0.0,0.0,0.0,0.0,-0.8091,0.0,0.0,0.0,0.0,0.0,0.0,0.0,0.0,0.0,0.0,0.0,0.0,0.0,0.0,0.0,0.0,0.0,-1.0624,-1.0624,-1.0624,-1.0624,-1.0624,-1.1351,-1.1834,-1.1834,-1.2573,-1.3009,-1.3009,-1.2205,-1.1826,-1.1834,-1.1045,-1.1108,-1.1888,-1.1888,-1.2328,-1.307,-1.307,-1.307,-1.307,-1.313,-1.313,-1.3183,-1.4025,-1.4758,-1.5696,-1.7915,-1.9178,-1.9978,0.0,0.0,0.0,0.0,0.0,0.0,0.0,0.0832,0.0,0.0,0.0,0.0,0.0,0.0,0.0,0.0,0.0,0.0,0.0,0.0,0.0,0.0,0.0,0.0,0.0,0.0,0.0,0.0,-0.0873,-0.1273,0.0,0.0,0.0,0.0,0.0,-0.5557,0.0,0.0,0.0,0.0,0.0,-0.6789,-0.6404,0.0,0.0,-0.7111,-0.7111,-0.6789,0.0,-0.6272,-0.6662,-0.7046,-0.647,-0.7055,-0.7897,-0.7307,-0.7567,0.0,0.0,0.0,-0.7437,-0.8608,0.0,0.0,0.0,0.0,0.0,0.0,0.0,0.0,0.0,0.0,0.0,0.0,0.0,0.0,0.0,0.0,0.0,0.0,0.0,0.0,0.0,0.0,0.0,-1.0624,-1.0624,-1.0624,-1.0624,-1.0863,-1.0989,-1.0989,-1.1296,-1.1421,-1.1421,-1.1108,-1.0989,-1.0982,-1.0744,-1.1045,-1.1834,-1.1834,-1.2266,-1.3009,-1.3009,-1.3009,-1.3009,-1.3009,-1.3009,-1.307,-1.3914,-1.4373,-1.4817,-1.7158,-1.8436,-1.9291,0.5239,0.0,0.0,0.0,0.0,0.0,0.0,0.0,0.0,0.0,0.0455,0.0,0.0067,0.0,0.0,0.0,0.0,0.0,0.0,0.0,0.0,0.0,0.0,0.0,0.0,0.0,0.0,0.0,-0.0538,-0.0806,0.0,0.0,0.0,0.0,0.0,0.0,-0.5428,0.0,-0.6268,0.0,0.0,-0.5881,0.0,0.0,-0.6728,-0.6268,0.0,-0.5881,-0.5428,-0.5428,-0.5752,-0.6137,-0.5557,-0.6145,-0.6985,-0.64,-0.6662,-0.7116,-0.7437,-0.692,0.0,-0.7697,-0.7116,0.0,-0.7307,0.0,0.0,0.0,0.0,0.0,0.0,0.0,0.0,0.0,0.0,0.0,0.0,-0.7055,0.0,0.0,0.0,0.0,0.0,0.0,-1.004,-0.9709,-1.0231,-1.0364,0.0,0.0,-1.0301,-0.9709,-1.0301,-1.0434,-1.011,-1.0434,-1.0624,-1.0624,-1.0624,-1.0863,-1.1344,-1.1344,-1.1663,-1.2151,-1.2151,-1.2151,-1.2151,-1.2151,-1.2151,-1.2274,-1.3364,-1.3786,-1.4076,-1.6384,-1.7841,-1.8975,0.0,0.0,0.0,0.0,0.3202,0.0,0.0,0.0,0.2444,0.0,0.1386,0.1074,0.0202,0.0135,0.0135,0.0135,0.0135,0.0135,0.0135,0.0135,0.0,0.0,0.0135,0.0135,0.0135,0.0,0.0,0.0067,0.0,0.0,0.0,0.0,0.0,0.0,-0.3613,0.0,-0.5292,-0.5362,-0.5428,-0.5428,-0.5428,-0.5428,-0.5428,-0.5428,-0.5428,-0.5428,-0.5428,-0.5428,-0.5428,-0.5428,-0.5428,-0.5428,-0.5428,-0.5428,-0.5428,-0.5428,-0.5428,-0.5554,-0.6396,-0.6009,-0.5818,-0.7377,0.0,0.0,0.0,0.0,-0.5292,0.0,0.0,0.0,0.0,0.0,0.0,0.0,0.0,0.0,0.0,0.0,0.0,0.0,0.0,0.0,0.0,-0.8748,-0.8877,-0.8091,-0.9518,-0.9779,0.0,0.0,-0.9716,-0.8027,-0.9582,-1.0104,-0.9338,-1.011,-1.0491,-1.0561,-1.0491,-1.0491,-1.0491,-1.0491,-1.0491,-1.0491,-1.0491,-1.0561,-1.0561,-1.0561,-1.0624,-1.0744,-1.2336,-1.3009,-1.3364,-1.5661,-1.7413,-1.8874,0.7181,0.6702,0.5988,0.0,0.4606,0.425,0.0,0.0,0.0,0.0,0.2333,0.2277,0.2011,0.2011,0.2011,0.2011,0.2011,0.0,0.0,0.0,0.0,0.2011,0.2011,0.2011,0.2011,0.1342,0.0,0.0939,0.0337,0.0,0.0,0.0,0.0,0.0,0.0,0.0,-0.348,-0.4821,-0.5428,-0.5428,-0.5428,-0.5428,0.0,0.0,-0.5428,-0.5428,-0.5428,-0.5428,-0.5428,-0.5428,-0.5428,-0.5428,-0.5428,-0.5428,-0.5428,-0.5428,-0.5428,-0.5425,-0.5686,-0.5557,-0.5355,-0.5074,-0.4677,-0.4215,0.0,0.0,0.0,0.0,0.0,0.0,0.0,0.0,0.0,0.0,0.0,0.0,0.0,0.0,0.0,-0.5686,0.0,0.0,-0.7897,-0.8221,-0.8221,-0.8027,-0.8415,-0.8479,-0.8027,0.0,0.0,-0.8027,-0.8415,-0.8871,-0.9274,-0.8871,-0.9005,-0.9594,-0.9,-0.8672,-0.8672,-0.8672,-0.8672,-0.8672,-0.9332,-0.9658,-0.9658,-1.0301,-1.0624,-1.0681,-1.1717,-1.281,-1.4085,-1.5843,-1.7413,-1.8768,0.7834,0.0,0.0,0.5294,0.0,0.0,0.4576,0.0,0.0,0.3413,0.328,0.0,0.2744,0.2678,0.2678,0.2678,0.2678,0.0,0.2678,0.0,0.0,0.2678,0.2678,0.2678,0.2678,0.221,0.0,0.1273,0.0,0.0,0.0,0.0,0.0,0.0,0.0,-0.3011,0.0,-0.435,-0.4821,-0.4755,-0.4353,0.0,0.0,-0.4217,-0.4217,-0.4284,-0.4619,-0.5024,-0.5428,-0.5428,-0.5428,-0.5428,-0.5428,-0.5428,-0.5296,-0.4891,-0.509,-0.5226,-0.442,-0.4486,-0.4553,-0.368,-0.3411,-0.3278,-0.2811,-0.2678,-0.2678,0.0,0.0,0.0,0.0,0.0,0.0,0.0,0.0,0.0,0.0,0.0,0.0,0.0,-0.5428,0.0,-0.6793,-0.7181,-0.7246,-0.6924,-0.7572,-0.7637,0.0,0.0,0.0,-0.6859,-0.7572,-0.8027,-0.8156,-0.8027,-0.8221,-0.8748,-0.8226,-0.8027,-0.8027,-0.8027,-0.8027,-0.8027,-0.8549,-0.8748,-0.8748,-0.9262,-0.9454,-0.9576,-1.0759,-1.2243,-1.3786,-1.466,-1.6146,-1.7797,0.0,0.0,0.0,0.0,0.0,0.0,0.0,0.5428,0.0,0.4284,0.0,0.3887,0.3163,0.3086,0.3084,0.3094,0.0,0.3078,0.3078,0.3078,0.3078,0.3078,0.3078,0.3078,0.3078,0.2945,0.241,0.0,0.0,0.0,0.0,0.0,0.0,0.0,0.0,0.0,0.0,-0.368,-0.3747,-0.3747,-0.3011,-0.2678,-0.2678,-0.2678,-0.2678,-0.2811,-0.3547,-0.435,-0.509,-0.516,-0.516,-0.5024,-0.5024,-0.5024,-0.4888,-0.4082,-0.4417,-0.4688,-0.3145,-0.328,-0.3613,-0.2744,-0.2544,-0.2477,-0.2344,-0.2344,-0.2344,-0.2344,-0.2344,-0.241,0.0,0.0,0.0,0.0,0.0,0.0,0.0,0.0,0.0,0.0,0.0,0.0,-0.5226,-0.6005,-0.6203,-0.5425,-0.6793,-0.699,0.0,0.0,0.0,-0.5428,-0.6724,-0.7237,-0.6719,0.0,-0.7497,-0.7832,-0.7562,-0.7567,-0.7637,-0.7637,-0.7637,-0.7637,-0.7762,-0.7832,-0.7832,-0.7962,-0.8027,-0.8151,-0.9603,-1.1114,-1.2496,-1.2626,-1.4049,-1.5985,0.0,0.0,0.0,0.0,0.0,0.5428,0.5428,0.5428,0.5359,0.516,0.516,0.5138,0.5117,0.5026,0.5001,0.5052,0.5023,0.0,0.0,0.0,0.0,0.4957,0.4957,0.4957,0.4957,0.4151,0.3345,0.0,0.0,0.0,0.0,0.0,0.0,0.0,0.0,0.0,-0.2878,-0.2075,0.0,-0.2945,-0.2744,-0.2678,-0.2678,-0.2678,-0.2678,-0.2744,-0.2878,-0.3011,-0.328,-0.4015,-0.3747,-0.3145,-0.3145,-0.3145,-0.3145,-0.2945,-0.3011,-0.3078,-0.2811,-0.2811,-0.2678,-0.1809,-0.1541,-0.1341,-0.0605,-0.0471,-0.0471,-0.0471,-0.0471,-0.0672,-0.1408,0.0,0.0,0.0,0.0,0.0,0.0,0.0,0.0,0.0,0.0,-0.4217,0.0,-0.5087,-0.5557,-0.5428,-0.5686,-0.5752,0.0,0.0,0.0,0.0,-0.4945,0.0,0.0,0.0,-0.4728,-0.6915,-0.5397,-0.5077,-0.5885,-0.5885,-0.5885,-0.5885,-0.6593,-0.6915,-0.6981,-0.7697,-0.8027,-0.8027,-0.8339,-0.9023,-0.9945,-1.0662,-1.1643,-1.2833,0.0,0.0,0.0,0.0,0.0,0.0,0.0,0.5481,0.5481,0.5481,0.5481,0.5535,0.5684,0.5633,0.562,0.5694,0.5633,0.5559,0.5484,0.5481,0.5443,0.5432,0.5428,0.0,0.5428,0.4957,0.4284,0.3347,0.0,0.0,0.0,0.0,0.0,0.0,0.0,-0.1541,0.0,0.0,0.0,-0.1942,-0.1476,-0.1276,-0.1276,-0.1276,-0.1276,-0.1343,-0.181,-0.1676,-0.1476,-0.288,-0.3078,-0.2678,-0.2678,-0.2678,-0.2611,-0.2143,-0.2344,-0.2477,-0.1543,-0.1609,-0.1742,-0.0873,-0.0605,-0.0538,-0.0067,0.0,0.0,0.0,0.0,-0.0269,-0.114,-0.1675,0.0,0.0,0.0,0.0,0.0,0.0,0.0,0.0,0.0,0.0,0.0,0.0,0.0,0.0,0.0,0.0,0.0,0.0,0.0,0.0,0.0,0.0,0.0,0.0,0.0,-0.5269,-0.3944,-0.3816,-0.4686,-0.4686,-0.4686,-0.4752,-0.5613,-0.6009,-0.6075,-0.6465,-0.692,-0.7307,-0.7307,-0.7812,-0.8703,-0.9558,-1.0362,-1.1396,0.0,0.835,0.0,0.0,0.6328,0.0,0.5682,0.5637,0.5637,0.5637,0.5637,0.5691,0.5833,0.582,0.5813,0.5847,0.582,0.5752,0.5644,0.5637,0.5566,0.5416,0.541,0.5463,0.5428,0.5428,0.4954,0.0,0.0,0.0,0.0,0.0,0.0,0.0,0.0,0.0,0.0,0.0,-0.1006,-0.0939,-0.0269,0.0,0.0,0.0,0.0,-0.0067,-0.0806,-0.0605,-0.0202,-0.1677,-0.2144,-0.2144,-0.2144,-0.2144,-0.2011,-0.1275,-0.1542,-0.1811,-0.0404,-0.0471,-0.0873,-0.0202,0.0,0.0,0.0,0.0,0.0,0.0,0.0,-0.0202,-0.0873,-0.1006,0.0,0.0,0.0,0.0,0.0,0.0,0.0,0.0,0.0,0.0,-0.241,0.0,0.0,0.0,0.0,0.0,-0.2811,0.0,0.0,0.0,0.0,-0.2611,-0.2945,0.0,-0.2679,-0.368,-0.2811,-0.2878,-0.3747,-0.3747,-0.3747,-0.3747,-0.4486,-0.4821,-0.4821,-0.5024,-0.5481,-0.6125,-0.6326,-0.6854,-0.7572,-0.8619,-0.9436,-1.0236,0.0,0.0,0.0,0.0,0.0,0.0,0.5901,0.5783,0.5783,0.5783,0.5783,0.584,0.5989,0.5884,0.5857,0.5996,0.5881,0.5796,0.5783,0.5783,0.5718,0.5576,0.5569,0.5504,0.5432,0.5428,0.4954,0.0,0.0,0.348,0.0,0.0,0.0,0.0,0.0,0.0,0.0,-0.0135,-0.0135,-0.0135,0.0,0.0,0.0,0.0,0.0,0.0,-0.0067,-0.0067,0.0,-0.0202,-0.0269,-0.0269,-0.0269,-0.0269,-0.0202,-0.0135,-0.0202,-0.0202,-0.0067,-0.0067,-0.0135,0.0,0.0,0.0,0.0,0.0,0.0,0.0,0.0,0.0,-0.0135,-0.0135,-0.0135,0.0,0.0,0.0,0.0,0.0,0.0,0.0,0.0,0.0,0.0,-0.2277,0.0,0.0,-0.3145,0.0,0.0,0.0,0.0,-0.3882,0.0,-0.2209,-0.3882,-0.1477,-0.1142,-0.2811,-0.1876,-0.1942,-0.2811,-0.2811,-0.2811,-0.2811,-0.2945,-0.2945,-0.3011,-0.3816,-0.4148,-0.4348,-0.5219,-0.5557,-0.5818,-0.7507,-0.8156,-0.8474,0.0,0.0,0.0,0.0,0.0,0.0,0.0,0.6803,0.6625,0.6139,0.5996,0.5996,0.6152,0.6115,0.6101,0.6162,0.6112,0.6037,0.5942,0.5939,0.5871,0.5725,0.5637,0.5562,0.5501,0.541,0.5226,0.0,0.0,0.0,0.0,0.0,0.0,0.0,0.0,0.1275,0.0806,0.0806,0.0471,0.0,0.0,0.0,0.0,0.0,0.0,0.0,0.0,0.0,0.0,0.0,0.0,0.0,0.0,0.0,0.0,0.0,0.0,0.0,0.0,0.0,0.0,0.0,0.0,0.0135,0.0672,0.0404,0.0135,0.0672,0.0806,0.094,0.1543,0.161,0.161,0.0,0.0,0.0,0.0,0.0,0.0,0.0,0.0,0.0,0.0,0.0,0.0,0.0,0.0,0.0,0.0,0.0,0.0,-0.1611,0.0,-0.0873,-0.1611,-0.0539,-0.0605,-0.1876,-0.0402,-0.0201,-0.1069,-0.0533,-0.0866,-0.1868,-0.2474,-0.2678,-0.2744,-0.3078,-0.3211,-0.3278,-0.4217,-0.4553,-0.4749,-0.6584,-0.7242,-0.7562,1.1423,0.0,1.0402,0.0,0.971,0.9005,0.8139,0.8022,0.7701,0.6857,0.6616,0.6439,0.6325,0.6338,0.6338,0.6338,0.6338,0.6213,0.6105,0.6098,0.6027,0.5874,0.5728,0.0,0.5593,0.544,0.5428,0.5428,0.5428,0.0,0.0,0.0,0.0,0.0,0.2678,0.2344,0.1742,0.1742,0.1342,0.0807,0.0807,0.0807,0.074,0.0471,0.0538,0.074,0.0471,0.0538,0.074,0.0471,0.0404,0.0337,0.0067,0.0,0.0,0.0,0.0,0.0,0.0,0.0,0.0067,0.0337,0.0404,0.0605,0.1475,0.1208,0.0941,0.1608,0.1742,0.1942,0.2611,0.2678,0.2678,0.2678,0.0,0.0,0.0,0.0,0.0,0.0,0.2277,0.2277,0.2277,0.1136,0.0,0.0,0.0,0.0,0.0,0.0,0.0,0.0,0.0,0.0,-0.0404,-0.0135,-0.0337,-0.0873,0.0336,0.0737,0.0401,0.1334,0.1066,-0.0133,-0.0801,-0.1136,-0.1136,-0.1671,-0.1939,-0.2006,-0.3145,-0.3613,-0.3811,-0.5661,-0.6318,-0.6641,1.1423,1.1423,1.1164,1.0498,1.0401,1.0126,0.9412,0.9296,0.8917,0.7936,0.7783,0.7399,0.6412,0.6338,0.6338,0.6338,0.6338,0.6261,0.6335,0.6257,0.619,0.0,0.0,0.5732,0.5593,0.544,0.5428,0.5428,0.0,0.0,0.5362,0.0,0.3547,0.2678,0.2678,0.2678,0.2678,0.2678,0.2678,0.2678,0.2678,0.2678,0.2544,0.1608,0.1876,0.2544,0.1608,0.1876,0.2544,0.1608,0.1273,0.114,0.0269,0.0,0.0,0.0,0.0,0.0,0.0,0.0,0.0202,0.1074,0.1273,0.1541,0.2477,0.2678,0.2678,0.2678,0.2678,0.2678,0.2678,0.2678,0.2678,0.2678,0.0,0.0,0.0,0.0,0.0,0.0,0.134,0.134,0.134,0.1273,0.0,0.0,0.0,0.0,0.0,0.0,0.0,0.0,0.0,0.0,-0.1273,-0.0404,0.0,0.0,0.0,0.0471,0.134,0.2277,0.2678,0.2678,0.2611,0.2611,0.2476,0.0734,0.0,-0.02,-0.2006,-0.2744,-0.2943,-0.4665,-0.5325,-0.5588,1.2024,1.2024,1.1979,1.17,1.1713,1.1371,1.0479,1.034,0.9965,0.8917,0.8846,0.8694,0.8389,0.7099,0.6338,0.0,0.6338,0.6338,0.0,0.6338,0.624,0.619,0.604,0.5888,0.5739,0.5593,0.5467,0.5428,0.0,0.0,0.0,0.509,0.4821,0.4553,0.4553,0.4217,0.3618,0.3689,0.3374,0.2828,0.2952,0.2974,0.2898,0.2567,0.2548,0.2818,0.2427,0.2477,0.2678,0.2342,0.2275,0.221,0.1944,0.1008,0.0,0.0,0.0,0.0,0.0,0.0,0.0202,0.1073,0.1273,0.1675,0.3211,0.3613,0.3613,0.3613,0.3613,0.3816,0.4417,0.4553,0.4553,0.4553,0.4755,0.0,0.0,0.0,0.0,0.0,0.4084,0.4084,0.4084,0.3547,0.0,0.0,0.0,0.0,0.0,0.0,0.0,0.0,0.1809,0.0,0.1404,0.1675,0.1811,0.1877,0.2412,0.3213,0.4084,0.3747,0.3613,0.3547,0.2945,0.2678,0.2678,0.2072,0.1872,0.1737,0.0533,-0.0333,-0.1001,-0.2129,-0.2996,-0.3803,1.2305,1.2305,1.2305,1.2305,1.2305,1.2077,1.1465,1.1391,1.1013,0.997,0.9895,0.9744,0.9372,0.8161,0.0,0.6872,0.6872,0.6718,0.6338,0.6338,0.6338,0.6338,0.6112,0.5986,0.5888,0.5745,0.0,0.5447,0.5447,0.5447,0.5447,0.5501,0.5528,0.5528,0.5528,0.5248,0.4697,0.4778,0.4461,0.3968,0.4109,0.4135,0.4056,0.3632,0.3681,0.3949,0.3434,0.3468,0.3734,0.3357,0.3211,0.3145,0.2811,0.1944,0.1008,0.1008,0.1008,0.1008,0.1008,0.1008,0.1208,0.2076,0.2342,0.2678,0.4217,0.4553,0.4553,0.4553,0.4553,0.4688,0.5292,0.5428,0.5428,0.5428,0.5428,0.5428,0.5428,0.0,0.0,0.0,0.0,0.0,0.0,0.435,0.3949,0.0,0.0,0.0,0.0,0.0,0.0,0.3145,0.2878,0.2678,0.2678,0.2678,0.2678,0.2678,0.3613,0.4284,0.4888,0.4619,0.4553,0.4483,0.3949,0.3747,0.368,0.3345,0.3211,0.3078,0.2203,0.1468,0.0935,0.0,-0.0933,-0.187,1.2365,1.2365,1.2365,0.0,1.2365,1.2358,1.2338,1.2331,1.2016,1.1013,1.0932,1.0565,0.9599,0.9523,0.9069,0.8084,0.0,0.0,0.0,0.649,0.649,0.649,0.6273,0.6112,0.6101,0.5891,0.5745,0.5603,0.5603,0.5603,0.5606,0.5739,0.58,0.58,0.58,0.58,0.58,0.5813,0.5817,0.582,0.583,0.5833,0.5758,0.4942,0.5087,0.5653,0.4661,0.4899,0.5441,0.4473,0.4095,0.3959,0.3147,0.2878,0.2878,0.2744,0.2678,0.2678,0.2678,0.2678,0.2878,0.3816,0.4015,0.435,0.5226,0.5428,0.5428,0.5428,0.5428,0.5428,0.5428,0.5428,0.5428,0.5428,0.5428,0.5428,0.5428,0.0,0.0,0.0,0.0,0.0,0.4082,0.4082,0.4417,0.0,0.0,0.0,0.0,0.0,0.2277,0.4015,0.3278,0.2878,0.2878,0.2878,0.2878,0.2878,0.368,0.4082,0.4148,0.5087,0.5491,0.5491,0.5557,0.5557,0.5425,0.455,0.4148,0.4015,0.3211,0.2878,0.2676,0.1799,0.0933,0.0067,0.0,0.0,1.2999,1.2999,1.2999,1.2913,1.2679,1.2721,1.2483,1.2029,1.1922,1.1848,1.1626,1.1626,1.1168,1.0185,0.9367,0.8841,0.8618,0.8618,0.8618,0.8618,0.7816,0.7275,0.713,0.6356,0.5901,0.5752,0.5752,0.5752,0.5752,0.5786,0.58,0.58,0.58,0.58,0.581,0.5925,0.5976,0.5986,0.6105,0.6152,0.6139,0.5793,0.5751,0.5882,0.5512,0.5535,0.5728,0.5372,0.5189,0.5167,0.4855,0.4755,0.4486,0.3078,0.2678,0.2678,0.2678,0.2678,0.2878,0.3816,0.4553,0.5156,0.5359,0.5428,0.5428,0.5428,0.5428,0.5428,0.5428,0.5428,0.5428,0.5428,0.5428,0.5428,0.5428,0.5428,0.0,0.0,0.509,0.509,0.509,0.509,0.4888,0.0,0.0,0.0,0.0,0.3747,0.3882,0.5024,0.4888,0.4755,0.4755,0.4755,0.4755,0.4755,0.4957,0.509,0.509,0.6005,0.6396,0.6396,0.7116,0.6985,0.6396,0.6125,0.5672,0.5024,0.4821,0.435,0.368,0.3476,0.2806,0.1805,1.3213,1.3213,1.3213,1.3213,1.3213,1.3153,1.2986,1.2959,1.2899,1.2739,1.2719,1.2665,1.2518,1.2505,1.2221,1.1552,1.0571,0.982,0.9296,0.9296,0.9296,0.9296,0.877,0.841,0.8295,0.7772,0.7459,0.7343,0.7343,0.7054,0.6554,0.6706,0.6452,0.601,0.601,0.601,0.6017,0.6098,0.6135,0.6142,0.6227,0.6338,0.6251,0.6166,0.6135,0.6115,0.5962,0.5905,0.5874,0.5661,0.5589,0.5562,0.541,0.5428,0.5226,0.4217,0.3949,0.3949,0.3949,0.3949,0.4015,0.4553,0.5024,0.5428,0.5428,0.5428,0.5428,0.5428,0.5428,0.5428,0.5428,0.5428,0.5428,0.5428,0.5428,0.5428,0.5428,0.5428,0.5428,0.5428,0.5428,0.5428,0.5428,0.5428,0.516,0.4686,0.4619,0.0,0.4619,0.4619,0.5084,0.5943,0.6009,0.6207,0.6601,0.6601,0.6601,0.6601,0.6601,0.6601,0.6601,0.7051,0.7307,0.7307,0.7767,0.7762,0.7307,0.7307,0.6985,0.6535,0.6141,0.5672,0.5203,0.4815,0.4082,0.3143,1.334,1.334,1.334,1.334,1.334,1.3327,1.328,1.3273,1.326,1.322,1.3213,1.3113,1.2923,1.2896,1.2712,1.2465,1.1633,1.0755,0.9825,0.975,0.975,0.975,0.9599,0.9518,0.9518,0.9372,0.928,0.916,0.916,0.8641,0.776,0.7929,0.7553,0.6718,0.6718,0.6718,0.6718,0.6567,0.649,0.649,0.649,0.6412,0.6338,0.6493,0.6412,0.6244,0.6112,0.6064,0.6023,0.5749,0.564,0.5596,0.5443,0.5449,0.5428,0.5428,0.5428,0.5428,0.5428,0.5428,0.5428,0.5428,0.5428,0.5428,0.5428,0.5428,0.5428,0.5428,0.5428,0.5428,0.5428,0.5428,0.5428,0.5428,0.5428,0.5428,0.5428,0.0,0.5624,0.5624,0.5686,0.5818,0.5818,0.5818,0.5818,0.5818,0.5818,0.5818,0.5818,0.5818,0.6207,0.7046,0.685,0.7111,0.7962,0.8027,0.8027,0.8027,0.8027,0.8027,0.8027,0.8156,0.8221,0.8221,0.835,0.8285,0.8221,0.8221,0.8091,0.7897,0.7177,0.685,0.6588,0.5881,0.5084,0.4411,1.3955,1.3955,1.3955,1.3955,1.3955,1.3868,1.3614,1.3574,1.3487,1.324,1.3213,1.3193,1.314,1.314,1.312,1.3073,1.2672,1.2339,1.1868,1.1848,1.1848,1.1848,1.1019,1.0565,1.0565,0.9744,0.9281,0.9246,0.9246,0.917,0.902,0.9054,0.8993,0.8841,0.8841,0.8841,0.877,0.7936,0.7553,0.7553,0.7553,0.7022,0.6416,0.7253,0.7022,0.6257,0.6234,0.6224,0.62,0.602,0.5874,0.5742,0.5599,0.5464,0.5428,0.5428,0.5428,0.5428,0.5428,0.5428,0.5428,0.5428,0.5428,0.5428,0.5428,0.5428,0.5428,0.5428,0.5428,0.5428,0.5428,0.5428,0.5428,0.5428,0.5428,0.5428,0.5428,0.0,0.6527,0.6527,0.7181,0.7572,0.7572,0.7572,0.7572,0.7572,0.7572,0.7572,0.7572,0.7572,0.8027,0.8877,0.7437,0.7111,0.7962,0.8027,0.8027,0.8027,0.8027,0.8027,0.8027,0.8748,0.9075,0.9139,0.9849,0.9786,0.9075,0.9075,0.8683,0.7962,0.7827,0.7372,0.6654,0.6527,0.6392,0.6191,1.4088,1.4088,1.4088,1.4088,1.4088,1.4041,1.3901,1.3881,1.3834,1.3701,1.3681,1.3621,1.346,1.3447,1.338,1.3227,1.308,1.2939,1.2799,1.2485,1.2305,1.2305,1.1848,1.162,1.162,1.1174,1.095,1.095,1.095,1.0645,1.0115,1.0115,0.982,0.9296,0.9296,0.9296,0.9296,0.8765,0.8613,0.8613,0.8613,0.8313,0.7936,0.8466,0.8313,0.7936,0.7936,0.7936,0.7905,0.7707,0.722,0.6756,0.7219,0.6549,0.5734,0.6279,0.5955,0.5428,0.5428,0.5428,0.5428,0.5428,0.5428,0.5428,0.5428,0.5428,0.5428,0.5428,0.5428,0.5428,0.5428,0.5428,0.5428,0.5428,0.5428,0.0,0.5428,0.5752,0.6203,0.6654,0.7046,0.7502,0.7962,0.8027,0.8027,0.8027,0.8027,0.8027,0.8027,0.8027,0.842,0.9274,0.9,0.8994,0.9384,0.9384,0.9384,0.9384,0.9384,0.9384,0.939,0.9849,0.9977,1.0047,1.0428,1.0364,0.9977,0.9977,0.9779,0.9326,0.8871,0.8484,0.8027,0.7567,0.7372,0.7307,1.4489,1.4489,1.4412,1.4173,1.4088,1.4088,1.4088,1.4088,1.4088,1.4088,1.4088,1.4001,1.3774,1.3748,1.3654,1.3434,1.3353,1.3313,1.3313,1.2812,1.2478,1.2412,1.2338,1.2305,1.2305,1.2305,1.2305,1.2305,1.2305,1.1922,1.1162,1.1162,1.0714,0.9976,0.9976,0.9976,0.997,0.975,0.9669,0.9669,0.9669,0.9523,0.9296,0.9593,0.9523,0.9296,0.9296,0.9296,0.9271,0.9173,0.8558,0.7979,0.8679,0.781,0.6647,0.742,0.6944,0.6045,0.5512,0.5428,0.5428,0.5428,0.5428,0.5425,0.5686,0.5686,0.5752,0.5951,0.6017,0.5947,0.5752,0.5885,0.5947,0.5752,0.0,0.6017,0.0,0.621,0.6535,0.7242,0.7502,0.7892,0.8544,0.8608,0.8608,0.8608,0.8608,0.8608,0.8608,0.8608,0.8935,0.9594,1.0238,1.0624,1.0624,1.0624,1.0624,1.0624,1.0624,1.0624,1.0624,1.0624,1.0624,1.0624,1.0807,1.0863,1.0863,1.0863,1.0863,1.08,0.9913,0.9466,0.921,0.8549,0.8285,0.8285,1.5786,1.5621,1.5304,1.425,1.4088,1.4088,1.4088,1.4088,1.4088,1.4088,1.4088,1.4082,1.4055,1.4055,1.4048,1.4028,1.3768,1.3614,1.3614,1.332,1.3013,1.2802,1.2452,1.2305,1.2305,1.2305,1.2305,1.2305,1.2305,1.2224,1.2224,1.2224,1.215,1.2077,1.2077,1.2077,1.2003,1.1087,1.0714,1.0714,1.0714,1.0115,0.9372,1.034,1.0115,0.9296,0.9296,0.9296,0.9296,0.9281,0.9134,0.9025,0.9083,0.8857,0.8614,0.8684,0.8594,0.8062,0.5966,0.5428,0.5428,0.5428,0.5428,0.562,0.6396,0.6588,0.685,0.7637,0.7832,0.7572,0.6719,0.7242,0.7567,0.6719,0.0,0.0,0.7832,0.8484,0.9011,0.9075,0.9843,1.0364,1.0428,1.0428,1.0428,1.0428,1.0428,1.0428,1.0428,1.0428,1.0428,1.0498,1.0561,1.0624,1.0624,1.0624,1.0624,1.0624,1.0624,1.0624,1.0624,1.0624,1.0624,1.0624,1.1413,1.171,1.171,1.171,1.171,1.1648,1.08,0.9977,0.9274,0.921,0.9204,0.9204,1.6764,1.6683,1.6355,1.5304,1.5054,1.4901,1.4166,1.4088,1.4088,1.4088,1.4088,1.4088,1.4088,1.4088,1.4088,1.4088,1.3981,1.3915,1.3915,1.3641,1.326,1.2842,1.2714,1.2492,1.2305,1.2305,1.2305,1.2305,1.2305,1.2305,1.2305,1.2305,1.2305,1.2305,1.2305,1.2305,1.2305,1.1922,1.1694,1.1694,1.1694,1.1471,1.1174,1.1545,1.1471,1.1174,1.1174,1.1174,1.1174,1.1174,1.073,1.0273,1.0869,1.0211,0.9087,0.9011,0.8975,0.876,0.7762,0.7391,0.7234,0.7234,0.6747,0.6461,0.7307,0.7111,0.6981,0.7827,0.8027,0.7892,0.7567,0.7762,0.7897,0.7567,0.0,0.8027,0.8027,0.8285,0.8683,0.9204,0.9594,0.9977,1.0561,1.0624,1.0624,1.0624,1.0624,1.0624,1.0624,1.0624,1.0624,1.0624,1.1108,1.1108,1.0624,1.0624,1.0624,1.0624,1.1108,1.1351,1.1351,1.1841,1.2097,1.2089,1.1896,1.2081,1.2512,1.202,1.2081,1.2451,1.1655,1.1461,1.1516,1.1017,1.0836,1.0836,1.7908,1.7827,1.7496,1.6355,1.6191,1.5951,1.5228,1.4817,1.4573,1.4573,1.4334,1.4088,1.4088,1.4088,1.4088,1.4088,1.4088,1.4088,1.4088,1.3895,1.3514,1.2919,1.2893,1.2752,1.2445,1.2445,1.2398,1.2305,1.2305,1.2305,1.2305,1.2305,1.2305,1.2305,1.2305,1.2305,1.2305,1.2305,1.2305,1.2305,1.2305,1.2305,1.2305,1.2305,1.2305,1.2305,1.2305,1.2305,1.2305,1.2305,1.1842,1.1391,1.2077,1.1323,1.0237,1.0143,1.0092,1.0053,0.995,0.9723,0.9377,0.868,0.7889,0.7466,0.833,0.8007,0.7762,0.8608,0.8801,0.8742,0.8484,0.8613,0.8742,0.8484,0.8613,0.8801,0.8801,0.8801,0.9064,0.9658,0.9722,0.9913,1.0561,1.0624,1.0624,1.0624,1.0624,1.0681,1.0989,1.0989,1.1108,1.1358,1.1903,1.1903,1.1358,1.1358,1.1233,1.0989,1.1779,1.202,1.1834,1.2634,1.3009,1.3009,1.2687,1.287,1.3304,1.281,1.287,1.3312,1.2504,1.2512,1.2948,1.2389,1.2205,1.2205,1.9204,1.9036,1.863,1.7496,1.7334,1.7342,1.7342,1.6437,1.5696,1.5696,1.4817,1.4173,1.4173,1.4088,1.4088,1.4088,1.4088,1.4088,1.4088,1.4088,1.3828,1.324,1.3213,1.3066,1.2835,1.2829,1.2605,1.2311,1.2311,1.2311,1.2305,1.2305,1.2305,1.2305,1.2305,1.2305,1.2305,1.2305,1.2305,1.2305,1.2305,1.2305,1.2305,1.2305,1.2305,1.2305,1.2305,1.2305,1.2305,1.2305,1.2305,1.2305,1.2305,1.2305,1.2305,1.2305,1.2305,1.2305,1.2305,1.2091,1.1436,0.9308,0.859,0.8627,0.9516,0.9527,0.953,1.0434,1.0624,1.0364,0.9466,1.0047,1.0301,0.9466,1.004,1.0624,1.0624,1.0624,1.0624,1.0624,1.0624,1.0624,1.0624,1.0624,1.0624,1.0624,1.0624,1.0989,1.1772,1.1834,1.2205,1.2948,1.3009,1.3009,1.3009,1.3009,1.2573,1.1834,1.2634,1.2573,1.1834,1.2634,1.3009,1.307,1.3846,1.4213,1.4213,1.4213,1.4213,1.4154,1.3312,1.3009,1.3009,1.3009,1.3009,1.3009,2.0167,2.0079,1.9766,1.8718,1.847,1.823,1.7415,1.7009,1.6846,1.6846,1.6527,1.637,1.637,1.5711,1.522,1.522,1.4489,1.4088,1.4088,1.4088,1.4008,1.3834,1.3627,1.338,1.308,1.3073,1.3026,1.2939,1.2939,1.2826,1.2612,1.2612,1.2505,1.2305,1.2305,1.2305,1.2305,1.2305,1.2305,1.2305,1.2305,1.2305,1.2305,1.2305,1.2305,1.2305,1.2305,1.2305,1.2305,1.2305,1.2305,1.2305,1.2305,1.2305,1.2305,1.2305,1.2305,1.2305,1.2305,1.2238,1.2025,1.1158,1.0311,0.9845,1.0678,1.0196,0.9808,1.0731,1.0701,1.0491,1.0238,1.0428,1.0498,1.0238,1.0428,1.0624,1.0624,1.0624,1.0624,1.0624,1.0624,1.0807,1.1413,1.1469,1.1655,1.2212,1.2274,1.2397,1.2634,1.2634,1.2757,1.3009,1.3554,1.3846,1.3846,1.3312,1.2887,1.2634,1.3485,1.3726,1.3537,1.4323,1.4688,1.4688,1.4332,1.451,1.4991,1.4451,1.451,1.4932,1.4154,1.4213,1.4628,1.4025,1.3846,1.3846,2.0566,2.0566,2.0401,1.9766,1.9599,1.9432,1.8709,1.823,1.798,1.798,1.7172,1.6683,1.6683,1.5711,1.5054,1.5054,1.4489,1.4088,1.4088,1.4088,1.4088,1.4088,1.3915,1.3681,1.3387,1.338,1.3327,1.3213,1.3213,1.3113,1.2926,1.2926,1.2832,1.2665,1.2665,1.2665,1.2652,1.2532,1.2478,1.2472,1.2351,1.2305,1.2305,1.2305,1.2305,1.2305,1.2305,1.2305,1.2305,1.2305,1.2305,1.2305,1.2305,1.2305,1.2305,1.2305,1.2305,1.2305,1.2305,1.2305,1.2258,1.2084,1.1456,1.0962,1.1457,1.096,1.0552,1.1028,1.1022,1.0902,1.0902,1.0808,1.0728,1.0728,1.0698,1.0624,1.0624,1.0624,1.0624,1.0624,1.0624,1.0926,1.171,1.1834,1.2143,1.2948,1.3009,1.313,1.3485,1.3485,1.3606,1.3965,1.4451,1.4688,1.4688,1.4204,1.3795,1.3485,1.4264,1.451,1.4213,1.505,1.541,1.5352,1.4874,1.4932,1.5352,1.4874,1.4932,1.5352,1.4874,1.5157,1.5748,1.4982,1.5021,1.5525,2.0566,2.0566,2.0566,2.0566,2.0566,2.0566,2.0566,1.9756,1.9116,1.9116,1.7407,1.6101,1.6101,1.5137,1.458,1.458,1.4334,1.4166,1.4088,1.4088,1.4173,1.425,1.4166,1.4038,1.3763,1.3681,1.3554,1.3287,1.3287,1.328,1.3253,1.3253,1.3233,1.3213,1.3213,1.3213,1.3193,1.2906,1.2869,1.2842,1.2492,1.2385,1.2385,1.2385,1.2385,1.2385,1.2385,1.2385,1.2378,1.2351,1.2345,1.2338,1.2311,1.2305,1.2305,1.2305,1.2305,1.2305,1.2305,1.2305,1.2305,1.2305,1.2104,1.1911,1.1911,1.1677,1.1463,1.1463,1.1443,1.1423,1.1423,1.1209,1.1035,1.1035,1.0808,1.0698,1.0698,1.0698,1.0698,1.0762,1.0826,1.1122,1.2003,1.2089,1.2443,1.3191,1.3183,1.3545,1.4273,1.4332,1.4628,1.5352,1.541,1.541,1.541,1.541,1.505,1.4332,1.505,1.4991,1.4323,1.5108,1.5526,1.5526,1.5584,1.5575,1.5526,1.5526,1.5526,1.5468,1.541,1.5921,1.6482,1.5748,1.6415,1.7523,2.0566,2.0566,2.0566,2.0566,2.0566,2.0566,2.0566,2.0401,2.0245,2.0245,1.9835,1.9511,1.9511,1.855,1.7908,1.7908,1.6355,1.4977,1.4166,1.4088,1.4489,1.5296,1.4573,1.4461,1.5194,1.4393,1.3961,1.3895,1.3895,1.3781,1.3547,1.3547,1.3427,1.3213,1.3213,1.3213,1.3206,1.314,1.3113,1.3106,1.3039,1.3013,1.3013,1.3013,1.3013,1.3013,1.3013,1.3013,1.2973,1.2732,1.2728,1.2688,1.2378,1.2305,1.2305,1.2305,1.2305,1.2305,1.2305,1.2305,1.2305,1.2305,1.2258,1.2204,1.2204,1.1984,1.177,1.177,1.159,1.1423,1.1423,1.1376,1.1329,1.1329,1.1276,1.1236,1.1236,1.1236,1.1505,1.2306,1.2365,1.291,1.4143,1.4445,1.4688,1.4874,1.4874,1.4932,1.5108,1.5108,1.5235,1.541,1.541,1.541,1.541,1.541,1.5294,1.5108,1.5294,1.5294,1.5167,1.5921,1.6265,1.6322,1.6856,1.681,1.6265,1.6265,1.6265,1.6208,1.5642,1.6187,1.7246,1.6539,1.681,1.7578,2.0566,2.0566,2.0566,2.0566,2.0566,2.0566,2.0566,2.0566,2.0566,2.0566,2.0157,1.9844,1.9844,1.8868,1.823,1.823,1.7172,1.6198,1.5636,1.5636,1.5876,1.6437,1.5462,1.5137,1.5703,1.5137,1.4894,1.4894,1.5387,1.5546,1.5375,1.481,1.4568,1.4413,1.3865,1.3627,1.3621,1.348,1.3414,1.3407,1.3267,1.3213,1.3213,1.3213,1.3213,1.3213,1.3213,1.3516,1.3938,1.3768,1.3789,1.3683,1.3514,1.3175,1.2705,1.2559,1.2512,1.2485,1.2338,1.2305,1.2305,1.2305,1.2305,1.2305,1.2305,1.2184,1.2078,1.2078,1.1951,1.1844,1.1844,1.173,1.1637,1.1637,1.193,1.2098,1.2098,1.2497,1.296,1.3494,1.3568,1.4016,1.5106,1.5662,1.6045,1.6045,1.6045,1.6045,1.6045,1.6045,1.6045,1.6045,1.6045,1.5937,1.5723,1.5723,1.5615,1.541,1.5748,1.5748,1.541,1.6528,1.681,1.6539,1.7302,1.7357,1.7034,1.7034,1.7034,1.6978,1.6585,1.7135,1.8058,1.7302,1.7468,1.8178,2.0566,2.0566,2.0566,2.0566,2.0566,2.0566,2.0566,2.0566,2.0566,2.0566,1.9844,1.9274,1.9274,1.847,1.7819,1.7585,1.7577,1.7496,1.7334,1.7342,1.7423,1.7585,1.6519,1.6026,1.6273,1.6265,1.6108,1.5696,1.6764,1.7342,1.7261,1.6355,1.5944,1.5944,1.5061,1.4657,1.4643,1.4385,1.4192,1.4172,1.4003,1.3898,1.3898,1.3898,1.3826,1.3666,1.3666,1.4202,1.496,1.49,1.5033,1.5173,1.5119,1.4499,1.3689,1.3271,1.3119,1.3058,1.2533,1.252,1.258,1.2532,1.2659,1.2732,1.2592,1.2445,1.2305,1.2305,1.2445,1.2519,1.2519,1.2387,1.2223,1.2223,1.2632,1.3014,1.3014,1.3878,1.453,1.4662,1.4744,1.5103,1.5753,1.6367,1.6665,1.6665,1.6665,1.6665,1.6665,1.6665,1.6792,1.6908,1.6908,1.6854,1.6648,1.6648,1.6417,1.5916,1.6654,1.6498,1.5642,1.7135,1.7468,1.6922,1.7688,1.7895,1.7797,1.7797,1.7797,1.7797,1.7633,1.8124,1.8821,1.8221,1.834,1.8992,2.0566,2.0566,2.0566,2.0566,2.0566,2.0566,2.0566,2.0566,2.0566,2.0566,2.0479,2.0401,2.0401,2.0245,1.9756,1.8877,1.8798,1.831,1.7334,1.7342,1.7738,1.8718,1.7658,1.7577,1.855,1.855,1.7658,1.5696,1.6764,1.7342,1.7342,1.7172,1.709,1.709,1.6935,1.6854,1.6846,1.6798,1.6782,1.6774,1.6726,1.6709,1.6709,1.6709,1.6141,1.5323,1.5323,1.5487,1.5524,1.532,1.585,1.6563,1.625,1.6076,1.5763,1.4811,1.4503,1.4282,1.3064,1.3353,1.3881,1.3594,1.4171,1.4593,1.3745,1.2879,1.2305,1.2305,1.2952,1.3528,1.3528,1.3491,1.3461,1.3461,1.3497,1.3618,1.3618,1.4458,1.5365,1.6198,1.6673,1.7023,1.7154,1.6879,1.6665,1.6665,1.6665,1.6665,1.6665,1.6665,1.7034,1.7811,1.7811,1.8137,1.8844,1.8844,1.86,1.8065,1.8848,1.8171,1.6368,1.7895,1.8501,1.8447,1.9202,1.915,1.8555,1.8555,1.8555,1.8501,1.7852,1.8447,1.9643,1.9527,1.9579,1.9695,2.0566,2.0566,2.0566,2.0566,2.0566,2.0566,2.0566,2.0566,2.0566,2.0566,2.0566,2.0566,2.0566,2.0566,2.0401,1.9923,1.9923,1.9678,1.9195,1.9116,1.9353,1.9844,1.8877,1.847,1.8966,1.9036,1.855,1.7568,1.8621,1.9116,1.9107,1.855,1.823,1.823,1.7585,1.7342,1.7342,1.7342,1.7342,1.7342,1.7342,1.7342,1.7342,1.7342,1.7009,1.6601,1.6601,1.7009,1.7552,1.7384,1.7652,1.8013,1.7917,1.7397,1.6806,1.6132,1.599,1.584,1.5034,1.5093,1.5356,1.5279,1.5381,1.5388,1.4952,1.4367,1.3593,1.2519,1.3025,1.3673,1.3673,1.4171,1.4522,1.4522,1.4942,1.5296,1.5296,1.6158,1.6941,1.7354,1.7562,1.7734,1.7734,1.7559,1.7451,1.7451,1.7451,1.7629,1.8131,1.8131,1.8572,1.9452,1.9452,1.9497,1.9648,1.9648,1.9264,1.8509,1.9244,1.8742,1.7146,1.8661,1.9097,1.8715,1.9475,1.9631,1.9307,1.9307,1.9307,1.9254,1.898,1.9202,1.9798,1.9798,1.9798,1.9798]}]]